[[{"header":{"parameterUnit":"m.s-1","parameterCategory":1,"la1":31.0,"la2":29.5877,"lo1":-88.7671,"lo2":-86.6584,"dy":0.0162,"dx":0.0185,"nx":115,"ny":88,"refTime":"2023-09-20T18:00:00:Z","depth":0,"parameterNumber":2,"parameterNumberName":"U-component_of_WINDS"},"data":[0.0,0.0,0.0,0.0,0.0,0.0,0.0,0.0,0.0,0.0,0.0,0.0,0.0,0.0,0.0,0.0,0.0,0.0,0.0,0.0,0.0,0.0,0.0,0.0,0.0,0.0,0.0,0.0,0.0,0.0,0.0,0.0,0.0,0.0,0.0,0.0,0.0,0.0,0.0,0.0,0.0,0.0,0.0,0.0,0.0,0.0,0.0,0.0,0.0,0.0,0.0,0.0,0.0,0.0,0.0,0.0,0.0,0.0,0.0,0.0,0.0,0.0,0.0,0.0,0.0,0.0,0.0,0.0,0.0,0.0,0.0,0.0,0.0,0.0,0.0,0.0,0.0,0.0,0.0,0.0,0.0,0.0,0.0,0.0,0.0,0.0,0.0,0.0,0.0,0.0,0.0,0.0,0.0,0.0,0.0,0.0,0.0,0.0,0.0,0.0,0.0,0.0,0.0,0.0,0.0,0.0,0.0,0.0,0.0,0.0,0.0,0.0,0.0,0.0,0.0,0.0,0.0,0.0,0.0,0.0,0.0,0.0,0.0,0.0,0.0,0.0,0.0,0.0,0.0,0.0,0.0,0.0,0.0,0.0,0.0,0.0,0.0,0.0,0.0,0.0,0.0,0.0,0.0,0.0,0.0,0.0,0.0,0.0,0.0,0.0,0.0,0.0,0.0,0.0,0.0,0.0,0.0,0.0,0.0,0.0,0.0,0.0,0.0,0.0,0.0,0.0,0.0,0.0,0.0,0.0,0.0,0.0,0.0,0.0,0.0,0.0,0.0,0.0,0.0,0.0,0.0,0.0,0.0,0.0,0.0,0.0,0.0,0.0,0.0,0.0,0.0,0.0,0.0,0.0,0.0,0.0,0.0,0.0,0.0,0.0,0.0,0.0,0.0,0.0,0.0,0.0,0.0,0.0,0.0,0.0,0.0,0.0,0.0,0.0,0.0,0.0,0.0,0.0,0.0,0.0,0.0,0.0,0.0,0.0,0.0,0.0,0.0,0.0,0.0,0.0,0.0,0.0,0.0,0.0,0.0,0.0,0.0,0.0,0.0,0.0,0.0,0.0,0.0,0.0,0.0,0.0,0.0,0.0,0.0,0.0,0.0,0.0,0.0,0.0,0.0,0.0,0.0,0.0,0.0,0.0,0.0,0.0,0.0,0.0,0.0,0.0,0.0,0.0,0.0,0.0,0.0,0.0,0.0,0.0,0.0,0.0,0.0,0.0,0.0,0.0,0.0,0.0,0.0,0.0,0.0,0.0,0.0,0.0,0.0,0.0,0.0,0.0,0.0,0.0,0.0,0.0,0.0,0.0,0.0,0.0,0.0,0.0,0.0,0.0,0.0,0.0,0.0,0.0,0.0,0.0,0.0,0.0,0.0,0.0,0.0,0.0,0.0,0.0,0.0,0.0,0.0,0.0,0.0,0.0,0.0,0.0,0.0,0.0,0.0,0.0,0.0,0.0,0.0,0.0,0.0,0.0,0.0,0.0,0.0,0.0,0.0,0.0,0.0,0.0,0.0,0.0,0.0,0.0,0.0,0.0,0.0,0.0,0.0,0.0,0.0,0.0,0.0,0.0,0.0,0.0,0.0,0.0,0.0,0.0,0.0,0.0,0.0,0.0,0.0,0.0,0.0,0.0,0.0,0.0,0.0,0.0,0.0,0.0,0.0,0.0,0.0,0.0,0.0,0.0,0.0,0.0,0.0,0.0,0.0,0.0,0.0,0.0,0.0,0.0,0.0,0.0,0.0,0.0,0.0,0.0,0.0,0.0,0.0,0.0,0.0,0.0,0.0,0.0,0.0,0.0,0.0,0.0,0.0,0.0,0.0,0.0,0.0,0.0,0.0,0.0,0.0,0.0,0.0,0.0,0.0,0.0,0.0,0.0,0.0,0.0,0.0,0.0,0.0,0.0,0.0,0.0,0.0,0.0,0.0,0.0,0.0,0.0,0.0,0.0,0.0,0.0,0.0,0.0,0.0,0.0,0.0,0.0,0.0,0.0,0.0,0.0,0.0,0.0,0.0,0.0,0.0,0.0,0.0,0.0,0.0,0.0,0.0,0.0,0.0,0.0,0.0,0.0,0.0,0.0,0.0,0.0,0.0,0.0,0.0,0.0,0.0,0.0,0.0,0.0,0.0,0.0,0.0,0.0,0.0,0.0,0.0,0.0,0.0,0.0,0.0,0.0,0.0,0.0,0.0,0.0,0.0,0.0,0.0,0.0,0.0,0.0,0.0,0.0,0.0,0.0,0.0,0.0,0.0,0.0,0.0,0.0,0.0,0.0,0.0,0.0,0.0,0.0,0.0,0.0,0.0,0.0,0.0,0.0,0.0,0.0,0.0,0.0,0.0,0.0,0.0,0.0,0.0,0.0,0.0,0.0,0.0,0.0,0.0,0.0,0.0,0.0,0.0,0.0,0.0,0.0,0.0,0.0,0.0,0.0,0.0,0.0,0.0,0.0,0.0,0.0,0.0,0.0,0.0,0.0,0.0,0.0,0.0,0.0,0.0,0.0,0.0,0.0,0.0,0.0,0.0,0.0,0.0,0.0,0.0,0.0,0.0,0.0,0.0,0.0,0.0,0.0,0.0,0.0,0.0,0.0,0.0,0.0,0.0,0.0,0.0,0.0,0.0,0.0,0.0,0.0,0.0,0.0,0.0,0.0,0.0,0.0,0.0,0.0,0.0,0.0,0.0,0.0,0.0,0.0,0.0,0.0,0.0,0.0,0.0,0.0,0.0,0.0,0.0,0.0,0.0,0.0,0.0,0.0,0.0,0.0,0.0,0.0,0.0,0.0,0.0,0.0,0.0,0.0,0.0,0.0,0.0,0.0,0.0,0.0,0.0,0.0,0.0,0.0,0.0,0.0,0.0,0.0,0.0,0.0,0.0,0.0,0.0,0.0,0.0,0.0,0.0,0.0,0.0,0.0,0.0,0.0,0.0,0.0,0.0,0.0,0.0,0.0,0.0,0.0,0.0,0.0,0.0,0.0,0.0,0.0,0.0,0.0,0.0,0.0,0.0,0.0,0.0,0.0,0.0,0.0,0.0,0.0,0.0,0.0,0.0,0.0,0.0,0.0,0.0,0.0,0.0,0.0,0.0,0.0,0.0,0.0,0.0,0.0,0.0,0.0,0.0,0.0,0.0,0.0,0.0,0.0,0.0,0.0,0.0,0.0,0.0,0.0,0.0,0.0,0.0,0.0,0.0,0.0,0.0,0.0,0.0,0.0,0.0,0.0,0.0,0.0,0.0,0.0,0.0,0.0,0.0,0.0,0.0,0.0,0.0,0.0,0.0,0.0,0.0,0.0,0.0,0.0,0.0,0.0,0.0,0.0,0.0,0.0,0.0,0.0,0.0,0.0,0.0,0.0,0.0,0.0,0.0,0.0,0.0,0.0,0.0,0.0,0.0,0.0,0.0,0.0,0.0,0.0,0.0,0.0,0.0,0.0,0.0,0.0,0.0,0.0,0.0,0.0,0.0,0.0,0.0,0.0,0.0,0.0,0.0,0.0,0.0,0.0,0.0,0.0,0.0,0.0,0.0,0.0,0.0,0.0,0.0,0.0,0.0,0.0,0.0,0.0,0.0,0.0,0.0,0.0,0.0,0.0,0.0,0.0,0.0,0.0,0.0,0.0,0.0,0.0,0.0,0.0,0.0,0.0,0.0,0.0,0.0,0.0,0.0,0.0,0.0,0.0,0.0,0.0,0.0,0.0,0.0,0.0,0.0,0.0,0.0,0.0,0.0,0.0,0.0,0.0,0.0,0.0,0.0,0.0,0.0,0.0,0.0,0.0,0.0,0.0,0.0,0.0,0.0,0.0,0.0,0.0,0.0,0.0,0.0,0.0,0.0,0.0,0.0,0.0,0.0,0.0,0.0,0.0,0.0,0.0,0.0,0.0,0.0,0.0,0.0,0.0,0.0,0.0,0.0,0.0,0.0,0.0,0.0,0.0,0.0,0.0,0.0,0.0,0.0,0.0,0.0,0.0,0.0,0.0,0.0,0.0,0.0,0.0,0.0,0.0,0.0,0.0,0.0,0.0,0.0,0.0,0.0,0.0,0.0,0.0,0.0,0.0,0.0,0.0,0.0,0.0,0.0,0.0,0.0,0.0,0.0,0.0,0.0,0.0,0.0,0.0,0.0,0.0,0.0,0.0,0.0,0.0,0.0,0.0,0.0,0.0,0.0,0.0,0.0,0.0,0.0,0.0,0.0,0.0,0.0,0.0,0.0,0.0,0.0,0.0,0.0,0.0,0.0,0.0,-1.7911,0.0,0.0,0.0,0.0,0.0,0.0,0.0,0.0,0.0,0.0,0.0,0.0,0.0,0.0,0.0,0.0,0.0,0.0,0.0,0.0,0.0,0.0,0.0,0.0,0.0,0.0,0.0,0.0,0.0,0.0,0.0,0.0,0.0,0.0,0.0,0.0,0.0,0.0,0.0,0.0,0.0,0.0,0.0,0.0,0.0,0.0,0.0,0.0,0.0,0.0,0.0,0.0,0.0,0.0,0.0,0.0,0.0,0.0,0.0,0.0,0.0,0.0,0.0,0.0,0.0,0.0,0.0,0.0,0.0,0.0,0.0,0.0,0.0,0.0,0.0,0.0,0.0,0.0,0.0,0.0,0.0,0.0,0.0,0.0,0.0,0.0,0.0,0.0,0.0,0.0,0.0,0.0,0.0,0.0,0.0,0.0,0.0,0.0,0.0,0.0,0.0,0.0,0.0,0.0,0.0,0.0,0.0,0.0,0.0,0.0,-1.9238,-1.8976,-1.9442,-1.9523,-1.9138,0.0,0.0,0.0,0.0,0.0,0.0,0.0,0.0,0.0,0.0,0.0,0.0,0.0,0.0,0.0,0.0,0.0,0.0,0.0,0.0,0.0,0.0,0.0,0.0,0.0,0.0,0.0,0.0,0.0,0.0,0.0,0.0,0.0,0.0,0.0,0.0,0.0,0.0,0.0,0.0,0.0,0.0,0.0,0.0,0.0,0.0,0.0,0.0,0.0,0.0,0.0,0.0,0.0,0.0,0.0,0.0,0.0,0.0,0.0,0.0,0.0,0.0,0.0,0.0,0.0,0.0,0.0,0.0,0.0,0.0,0.0,0.0,0.0,0.0,0.0,0.0,0.0,0.0,0.0,0.0,0.0,0.0,0.0,0.0,0.0,0.0,0.0,0.0,0.0,0.0,0.0,0.0,0.0,0.0,0.0,0.0,0.0,0.0,0.0,0.0,0.0,0.0,0.0,0.0,0.0,0.0,0.0,0.0,0.0,0.0,0.0,0.0,-2.0195,-2.0273,-2.0288,0.0,0.0,0.0,0.0,0.0,0.0,0.0,0.0,0.0,0.0,0.0,0.0,0.0,0.0,0.0,0.0,0.0,0.0,0.0,0.0,0.0,0.0,0.0,0.0,0.0,0.0,0.0,0.0,0.0,0.0,0.0,0.0,0.0,0.0,0.0,0.0,0.0,0.0,0.0,0.0,0.0,0.0,0.0,0.0,0.0,0.0,0.0,0.0,0.0,0.0,0.0,0.0,0.0,0.0,0.0,0.0,0.0,0.0,0.0,0.0,0.0,0.0,0.0,0.0,0.0,0.0,0.0,0.0,0.0,0.0,0.0,0.0,0.0,0.0,0.0,0.0,0.0,0.0,0.0,0.0,0.0,0.0,0.0,0.0,0.0,0.0,0.0,0.0,0.0,0.0,0.0,0.0,0.0,0.0,0.0,0.0,0.0,0.0,0.0,0.0,0.0,0.0,0.0,0.0,0.0,0.0,0.0,0.0,0.0,0.0,-1.9775,-1.992,-2.0069,0.0,-2.0285,0.0,0.0,0.0,0.0,0.0,0.0,0.0,0.0,0.0,0.0,0.0,0.0,0.0,0.0,0.0,0.0,0.0,0.0,0.0,0.0,0.0,0.0,0.0,0.0,0.0,0.0,0.0,0.0,0.0,0.0,0.0,0.0,0.0,0.0,0.0,0.0,0.0,0.0,0.0,0.0,0.0,0.0,0.0,0.0,0.0,0.0,0.0,0.0,0.0,0.0,0.0,0.0,0.0,0.0,0.0,0.0,0.0,0.0,0.0,0.0,0.0,0.0,0.0,0.0,0.0,0.0,0.0,0.0,0.0,0.0,0.0,0.0,0.0,0.0,0.0,0.0,0.0,0.0,0.0,0.0,0.0,0.0,0.0,0.0,0.0,0.0,0.0,0.0,0.0,0.0,0.0,0.0,0.0,0.0,0.0,0.0,0.0,0.0,0.0,0.0,0.0,0.0,0.0,0.0,0.0,0.0,0.0,0.0,0.0,0.0,-1.9726,-1.9904,-2.0112,-2.0256,0.0,0.0,0.0,0.0,0.0,0.0,0.0,0.0,0.0,0.0,0.0,0.0,0.0,0.0,0.0,0.0,0.0,0.0,0.0,0.0,0.0,0.0,0.0,0.0,0.0,0.0,0.0,0.0,0.0,0.0,0.0,0.0,0.0,0.0,0.0,0.0,0.0,0.0,0.0,0.0,0.0,0.0,0.0,0.0,0.0,0.0,0.0,0.0,0.0,0.0,0.0,0.0,0.0,0.0,0.0,0.0,0.0,0.0,0.0,0.0,0.0,0.0,0.0,0.0,0.0,0.0,0.0,0.0,0.0,0.0,0.0,0.0,0.0,0.0,0.0,0.0,0.0,0.0,0.0,0.0,0.0,0.0,0.0,0.0,0.0,0.0,0.0,0.0,0.0,0.0,0.0,0.0,0.0,0.0,0.0,0.0,0.0,0.0,0.0,0.0,0.0,0.0,0.0,0.0,0.0,0.0,0.0,0.0,0.0,0.0,-1.9518,-1.9663,-1.9885,-2.0168,-2.0288,-2.0288,0.0,0.0,0.0,0.0,0.0,0.0,0.0,0.0,0.0,0.0,0.0,0.0,0.0,0.0,0.0,0.0,0.0,0.0,0.0,0.0,0.0,0.0,0.0,0.0,0.0,0.0,0.0,0.0,0.0,0.0,0.0,0.0,0.0,0.0,0.0,0.0,0.0,0.0,0.0,0.0,0.0,0.0,0.0,0.0,0.0,0.0,0.0,0.0,0.0,0.0,0.0,0.0,0.0,0.0,0.0,0.0,0.0,0.0,0.0,0.0,0.0,0.0,0.0,0.0,0.0,0.0,0.0,0.0,0.0,0.0,0.0,0.0,0.0,0.0,0.0,0.0,0.0,0.0,0.0,0.0,0.0,0.0,0.0,0.0,0.0,0.0,0.0,0.0,0.0,0.0,0.0,0.0,0.0,0.0,0.0,0.0,0.0,0.0,0.0,0.0,0.0,0.0,0.0,0.0,0.0,0.0,0.0,0.0,-1.9483,-1.9496,-1.963,-1.9888,-2.0173,-2.0288,0.0,0.0,0.0,0.0,0.0,0.0,0.0,0.0,0.0,0.0,0.0,0.0,0.0,0.0,0.0,0.0,0.0,0.0,0.0,0.0,0.0,0.0,0.0,0.0,0.0,0.0,0.0,0.0,0.0,0.0,0.0,0.0,0.0,0.0,0.0,0.0,0.0,0.0,0.0,0.0,0.0,0.0,0.0,0.0,0.0,0.0,0.0,0.0,0.0,0.0,0.0,0.0,0.0,0.0,0.0,0.0,0.0,0.0,0.0,0.0,0.0,0.0,0.0,0.0,0.0,0.0,0.0,0.0,0.0,0.0,0.0,0.0,0.0,0.0,0.0,0.0,0.0,0.0,0.0,0.0,0.0,0.0,0.0,0.0,0.0,0.0,0.0,0.0,0.0,0.0,0.0,0.0,0.0,0.0,0.0,0.0,0.0,0.0,0.0,0.0,0.0,0.0,0.0,0.0,0.0,0.0,0.0,0.0,0.0,-1.9576,-1.975,-1.9874,-1.9963,-2.0184,-2.0265,0.0,0.0,0.0,0.0,0.0,0.0,0.0,0.0,0.0,0.0,0.0,0.0,0.0,0.0,0.0,0.0,0.0,0.0,0.0,0.0,0.0,0.0,0.0,0.0,0.0,0.0,0.0,0.0,0.0,0.0,0.0,0.0,0.0,0.0,0.0,0.0,0.0,0.0,0.0,0.0,0.0,0.0,0.0,0.0,0.0,0.0,0.0,0.0,0.0,0.0,0.0,0.0,0.0,0.0,0.0,0.0,0.0,0.0,0.0,0.0,0.0,0.0,0.0,0.0,0.0,0.0,0.0,0.0,0.0,0.0,0.0,0.0,0.0,0.0,0.0,0.0,0.0,0.0,0.0,0.0,0.0,0.0,0.0,0.0,0.0,0.0,0.0,0.0,0.0,0.0,0.0,0.0,0.0,0.0,0.0,0.0,0.0,0.0,0.0,0.0,0.0,0.0,0.0,0.0,0.0,0.0,0.0,0.0,0.0,-1.9638,0.0,-2.0012,-2.0041,-2.0201,-2.0285,0.0,0.0,0.0,0.0,0.0,0.0,0.0,0.0,0.0,0.0,0.0,0.0,0.0,0.0,0.0,0.0,0.0,0.0,0.0,0.0,0.0,0.0,0.0,0.0,0.0,0.0,0.0,0.0,0.0,0.0,0.0,0.0,0.0,0.0,0.0,0.0,0.0,0.0,0.0,0.0,0.0,0.0,0.0,0.0,0.0,0.0,0.0,0.0,0.0,0.0,0.0,0.0,0.0,0.0,0.0,0.0,0.0,0.0,0.0,0.0,0.0,0.0,0.0,0.0,0.0,0.0,0.0,0.0,0.0,0.0,0.0,0.0,0.0,0.0,0.0,0.0,0.0,0.0,0.0,0.0,0.0,0.0,0.0,0.0,0.0,0.0,0.0,0.0,0.0,0.0,0.0,0.0,0.0,0.0,0.0,0.0,0.0,0.0,0.0,0.0,0.0,0.0,0.0,0.0,0.0,0.0,0.0,0.0,-1.9658,-1.9763,-1.9993,-2.0122,-2.0136,-2.0244,-2.0288,0.0,0.0,0.0,0.0,0.0,0.0,0.0,0.0,0.0,0.0,0.0,0.0,0.0,0.0,0.0,0.0,0.0,0.0,0.0,0.0,0.0,0.0,0.0,0.0,0.0,0.0,0.0,0.0,0.0,0.0,0.0,0.0,0.0,0.0,0.0,0.0,0.0,0.0,0.0,0.0,0.0,0.0,0.0,0.0,0.0,0.0,0.0,0.0,0.0,0.0,0.0,0.0,0.0,0.0,0.0,0.0,0.0,0.0,0.0,0.0,0.0,0.0,0.0,0.0,0.0,0.0,0.0,0.0,0.0,0.0,0.0,0.0,0.0,0.0,0.0,0.0,0.0,0.0,0.0,0.0,0.0,0.0,0.0,0.0,0.0,0.0,0.0,0.0,0.0,0.0,0.0,0.0,0.0,0.0,0.0,0.0,0.0,0.0,0.0,0.0,0.0,0.0,0.0,0.0,0.0,0.0,0.0,0.0,0.0,-2.1444,-2.0632,-2.0446,-2.1016,-2.0565,-2.0265,0.0,0.0,0.0,0.0,0.0,0.0,0.0,0.0,0.0,0.0,0.0,0.0,0.0,0.0,0.0,0.0,0.0,0.0,0.0,0.0,0.0,0.0,0.0,0.0,0.0,0.0,0.0,0.0,0.0,0.0,0.0,0.0,0.0,0.0,0.0,0.0,0.0,0.0,0.0,0.0,0.0,0.0,0.0,0.0,0.0,0.0,0.0,0.0,0.0,0.0,0.0,0.0,0.0,0.0,0.0,0.0,0.0,0.0,0.0,0.0,0.0,0.0,0.0,0.0,0.0,0.0,0.0,0.0,0.0,0.0,0.0,0.0,0.0,0.0,0.0,0.0,0.0,0.0,0.0,0.0,0.0,0.0,0.0,0.0,0.0,0.0,0.0,0.0,0.0,0.0,0.0,0.0,0.0,0.0,0.0,0.0,0.0,0.0,0.0,0.0,0.0,0.0,0.0,0.0,0.0,0.0,0.0,0.0,0.0,-2.4066,-2.2168,-2.1376,-2.1966,-2.1812,-2.1231,-2.0296,0.0,0.0,0.0,0.0,0.0,0.0,0.0,0.0,0.0,0.0,0.0,0.0,0.0,0.0,0.0,0.0,0.0,0.0,0.0,0.0,0.0,0.0,0.0,0.0,0.0,0.0,0.0,0.0,0.0,0.0,0.0,0.0,0.0,0.0,0.0,0.0,0.0,0.0,0.0,0.0,0.0,0.0,0.0,0.0,0.0,0.0,0.0,0.0,0.0,0.0,0.0,0.0,0.0,0.0,0.0,0.0,0.0,0.0,0.0,0.0,0.0,0.0,0.0,0.0,0.0,0.0,0.0,0.0,0.0,0.0,0.0,0.0,0.0,0.0,0.0,0.0,0.0,0.0,0.0,0.0,0.0,0.0,0.0,0.0,0.0,0.0,0.0,0.0,0.0,0.0,0.0,0.0,0.0,0.0,0.0,0.0,0.0,0.0,0.0,0.0,0.0,0.0,0.0,0.0,0.0,0.0,0.0,0.0,-2.7453,-2.4562,-2.3125,-2.3216,-2.3817,-2.3047,0.0,0.0,0.0,0.0,0.0,0.0,0.0,0.0,0.0,0.0,0.0,0.0,0.0,0.0,0.0,0.0,0.0,0.0,0.0,0.0,0.0,0.0,0.0,0.0,0.0,0.0,0.0,0.0,0.0,0.0,0.0,0.0,0.0,0.0,0.0,0.0,0.0,0.0,0.0,0.0,0.0,0.0,0.0,0.0,0.0,0.0,0.0,0.0,0.0,0.0,0.0,0.0,0.0,0.0,0.0,0.0,0.0,0.0,0.0,0.0,0.0,0.0,0.0,0.0,0.0,0.0,0.0,0.0,0.0,0.0,0.0,0.0,0.0,0.0,0.0,0.0,0.0,0.0,0.0,0.0,0.0,0.0,0.0,0.0,0.0,0.0,0.0,0.0,0.0,0.0,0.0,0.0,0.0,0.0,0.0,0.0,0.0,0.0,0.0,0.0,0.0,0.0,0.0,0.0,0.0,0.0,0.0,0.0,0.0,-2.8327,-2.8281,-2.7967,-2.7448,-2.5851,-2.4673,0.0,0.0,0.0,0.0,0.0,0.0,0.0,0.0,0.0,0.0,0.0,0.0,0.0,0.0,0.0,0.0,0.0,0.0,0.0,0.0,0.0,0.0,0.0,0.0,0.0,0.0,0.0,0.0,0.0,0.0,0.0,0.0,0.0,0.0,0.0,0.0,0.0,0.0,0.0,0.0,0.0,0.0,0.0,0.0,0.0,0.0,0.0,0.0,0.0,0.0,0.0,0.0,0.0,0.0,0.0,0.0,0.0,0.0,0.0,0.0,0.0,0.0,0.0,0.0,0.0,0.0,0.0,0.0,0.0,0.0,0.0,0.0,0.0,0.0,0.0,0.0,0.0,0.0,0.0,0.0,0.0,0.0,0.0,0.0,0.0,0.0,0.0,0.0,0.0,0.0,0.0,0.0,0.0,0.0,0.0,0.0,0.0,0.0,0.0,0.0,0.0,0.0,0.0,0.0,0.0,0.0,0.0,0.0,-2.8135,-2.9389,-3.1384,-3.2218,-3.1795,-2.8621,-2.6365,0.0,0.0,0.0,0.0,0.0,0.0,0.0,0.0,0.0,0.0,0.0,0.0,0.0,0.0,0.0,0.0,0.0,0.0,0.0,0.0,0.0,0.0,0.0,0.0,0.0,0.0,0.0,0.0,0.0,0.0,0.0,0.0,0.0,0.0,0.0,0.0,0.0,0.0,0.0,0.0,0.0,0.0,0.0,0.0,0.0,0.0,0.0,0.0,0.0,0.0,0.0,0.0,0.0,0.0,0.0,0.0,0.0,0.0,0.0,0.0,0.0,0.0,0.0,0.0,0.0,0.0,0.0,0.0,0.0,0.0,0.0,0.0,0.0,0.0,0.0,0.0,0.0,0.0,0.0,0.0,0.0,0.0,0.0,0.0,0.0,0.0,0.0,0.0,0.0,0.0,0.0,0.0,0.0,0.0,0.0,0.0,0.0,0.0,0.0,0.0,0.0,0.0,0.0,0.0,0.0,0.0,0.0,0.0,-3.0102,-3.0508,-3.3761,-3.5481,-3.5378,-3.1429,-2.8159,0.0,0.0,0.0,0.0,0.0,0.0,0.0,0.0,0.0,0.0,0.0,0.0,0.0,0.0,0.0,0.0,0.0,0.0,0.0,0.0,0.0,0.0,0.0,0.0,0.0,0.0,0.0,0.0,0.0,0.0,0.0,0.0,0.0,0.0,0.0,0.0,0.0,0.0,0.0,0.0,0.0,0.0,0.0,0.0,0.0,0.0,0.0,0.0,0.0,0.0,0.0,0.0,0.0,0.0,0.0,0.0,0.0,0.0,0.0,0.0,0.0,0.0,0.0,0.0,0.0,0.0,0.0,0.0,0.0,0.0,0.0,0.0,0.0,0.0,0.0,0.0,0.0,0.0,0.0,0.0,0.0,0.0,0.0,0.0,0.0,0.0,0.0,0.0,0.0,0.0,0.0,0.0,0.0,0.0,0.0,0.0,0.0,0.0,0.0,0.0,0.0,0.0,0.0,0.0,0.0,0.0,0.0,0.0,-3.0798,-3.2333,-3.4403,-3.5467,-3.542,-3.1981,-2.9885,0.0,0.0,0.0,0.0,0.0,0.0,0.0,0.0,0.0,0.0,0.0,0.0,0.0,0.0,0.0,0.0,0.0,0.0,0.0,0.0,0.0,0.0,0.0,0.0,0.0,0.0,0.0,0.0,0.0,0.0,0.0,0.0,0.0,0.0,0.0,0.0,0.0,0.0,0.0,0.0,0.0,0.0,0.0,0.0,0.0,0.0,0.0,0.0,-2.183,0.0,0.0,0.0,0.0,0.0,0.0,0.0,0.0,0.0,0.0,0.0,0.0,0.0,0.0,0.0,0.0,0.0,0.0,0.0,0.0,0.0,0.0,0.0,0.0,0.0,0.0,0.0,0.0,0.0,0.0,0.0,0.0,0.0,0.0,0.0,0.0,0.0,0.0,0.0,0.0,0.0,0.0,0.0,0.0,0.0,0.0,0.0,0.0,0.0,0.0,0.0,0.0,0.0,0.0,0.0,0.0,0.0,0.0,0.0,-3.1033,-3.2878,-3.4589,-3.5486,-3.5357,-3.2936,-3.1212,0.0,0.0,0.0,0.0,0.0,0.0,0.0,0.0,0.0,0.0,0.0,0.0,0.0,0.0,0.0,0.0,0.0,0.0,0.0,0.0,0.0,0.0,0.0,0.0,0.0,0.0,0.0,0.0,0.0,0.0,0.0,0.0,0.0,0.0,0.0,0.0,0.0,0.0,0.0,0.0,0.0,0.0,0.0,0.0,0.0,0.0,0.0,0.0,0.0,0.0,0.0,0.0,0.0,0.0,0.0,0.0,0.0,0.0,0.0,0.0,0.0,0.0,0.0,0.0,0.0,0.0,0.0,0.0,0.0,0.0,0.0,0.0,0.0,0.0,0.0,0.0,0.0,0.0,0.0,0.0,0.0,0.0,0.0,0.0,0.0,0.0,0.0,0.0,0.0,0.0,0.0,0.0,0.0,0.0,0.0,0.0,0.0,0.0,0.0,0.0,0.0,0.0,0.0,0.0,0.0,0.0,0.0,-2.9732,-3.1545,-3.3436,-3.4923,-3.5692,-3.5666,-3.3885,-3.2122,-3.0462,0.0,0.0,0.0,0.0,0.0,0.0,0.0,0.0,0.0,0.0,0.0,0.0,0.0,0.0,0.0,0.0,0.0,0.0,0.0,0.0,0.0,0.0,0.0,0.0,0.0,0.0,0.0,0.0,0.0,0.0,0.0,0.0,0.0,0.0,0.0,0.0,0.0,0.0,-1.8826,-1.9245,0.0,0.0,0.0,0.0,0.0,0.0,0.0,0.0,-2.442,0.0,0.0,0.0,0.0,0.0,0.0,0.0,0.0,0.0,0.0,0.0,0.0,0.0,0.0,0.0,0.0,0.0,0.0,0.0,0.0,0.0,0.0,0.0,0.0,0.0,0.0,0.0,0.0,0.0,0.0,0.0,0.0,0.0,0.0,0.0,0.0,0.0,0.0,0.0,0.0,0.0,0.0,0.0,0.0,0.0,0.0,0.0,0.0,0.0,0.0,0.0,0.0,0.0,0.0,0.0,0.0,-3.0698,-3.1878,-3.3627,-3.5996,-3.6351,-3.6505,-3.6438,-3.416,-3.2122,-3.0462,0.0,0.0,0.0,0.0,0.0,0.0,0.0,0.0,0.0,0.0,0.0,0.0,0.0,0.0,0.0,0.0,0.0,0.0,0.0,0.0,0.0,0.0,0.0,0.0,0.0,0.0,0.0,0.0,0.0,0.0,0.0,0.0,0.0,0.0,0.0,0.0,0.0,0.0,0.0,-2.0925,-2.1211,0.0,0.0,0.0,0.0,0.0,0.0,0.0,0.0,-2.6674,0.0,0.0,0.0,0.0,0.0,0.0,0.0,0.0,0.0,0.0,0.0,0.0,0.0,0.0,0.0,0.0,0.0,0.0,0.0,0.0,0.0,0.0,0.0,0.0,0.0,0.0,0.0,0.0,0.0,0.0,0.0,0.0,0.0,0.0,0.0,0.0,0.0,0.0,0.0,0.0,0.0,0.0,0.0,0.0,0.0,0.0,0.0,0.0,0.0,0.0,0.0,0.0,0.0,0.0,0.0,-3.1972,-3.3504,-3.5262,-3.7286,-3.7385,-3.7385,-3.7324,-3.5339,-3.3449,0.0,0.0,0.0,0.0,0.0,0.0,0.0,0.0,0.0,0.0,0.0,0.0,0.0,0.0,0.0,0.0,0.0,0.0,0.0,0.0,0.0,0.0,0.0,0.0,0.0,0.0,0.0,0.0,0.0,0.0,0.0,0.0,0.0,0.0,0.0,0.0,0.0,0.0,0.0,0.0,-2.2929,-2.3472,-2.5435,0.0,0.0,0.0,0.0,0.0,0.0,-2.7673,-2.7468,0.0,0.0,0.0,0.0,0.0,0.0,0.0,0.0,0.0,0.0,0.0,0.0,0.0,0.0,0.0,0.0,0.0,0.0,0.0,0.0,0.0,0.0,0.0,0.0,0.0,0.0,0.0,0.0,0.0,0.0,0.0,0.0,0.0,0.0,0.0,0.0,0.0,0.0,0.0,0.0,0.0,0.0,0.0,0.0,0.0,0.0,0.0,0.0,0.0,0.0,0.0,0.0,0.0,0.0,0.0,-3.2943,-3.4944,-3.6731,-3.818,-3.8257,-3.8257,-3.82,-3.6122,-3.4308,0.0,0.0,0.0,0.0,0.0,0.0,0.0,0.0,0.0,0.0,0.0,0.0,0.0,0.0,0.0,0.0,0.0,0.0,0.0,0.0,0.0,0.0,0.0,0.0,0.0,0.0,0.0,0.0,0.0,0.0,0.0,0.0,0.0,0.0,0.0,0.0,0.0,0.0,0.0,0.0,0.0,-2.5647,-2.7869,-2.7061,0.0,0.0,0.0,0.0,-2.7824,-2.8258,0.0,0.0,0.0,0.0,0.0,0.0,0.0,0.0,0.0,0.0,0.0,0.0,0.0,0.0,0.0,0.0,0.0,0.0,0.0,0.0,0.0,0.0,0.0,0.0,0.0,0.0,0.0,0.0,0.0,0.0,0.0,0.0,0.0,0.0,0.0,0.0,0.0,0.0,0.0,0.0,0.0,0.0,0.0,0.0,0.0,0.0,0.0,0.0,0.0,0.0,0.0,0.0,0.0,0.0,0.0,0.0,-3.3788,-3.6384,-3.818,-3.9092,-3.915,-3.9142,-3.9092,-3.5295,-3.3103,0.0,0.0,0.0,0.0,0.0,0.0,0.0,0.0,0.0,0.0,0.0,0.0,0.0,0.0,0.0,0.0,0.0,0.0,0.0,0.0,0.0,0.0,0.0,0.0,0.0,0.0,0.0,0.0,0.0,0.0,0.0,0.0,0.0,0.0,0.0,0.0,0.0,0.0,0.0,0.0,0.0,-2.6483,-2.8061,-2.7438,-2.6767,0.0,0.0,-2.9584,-2.9464,-3.0974,0.0,0.0,0.0,0.0,0.0,0.0,0.0,0.0,0.0,0.0,0.0,0.0,0.0,0.0,0.0,0.0,0.0,0.0,0.0,0.0,0.0,0.0,0.0,0.0,0.0,0.0,0.0,0.0,0.0,0.0,0.0,0.0,0.0,0.0,0.0,0.0,0.0,0.0,0.0,0.0,0.0,0.0,0.0,0.0,0.0,0.0,0.0,0.0,0.0,0.0,0.0,0.0,0.0,0.0,0.0,-3.396,-3.4877,-3.7843,-3.9611,-3.9958,-3.9996,-3.9977,-3.9977,-3.6334,-3.4372,0.0,0.0,0.0,0.0,0.0,0.0,0.0,0.0,0.0,0.0,0.0,0.0,0.0,0.0,0.0,0.0,0.0,0.0,0.0,0.0,0.0,0.0,0.0,0.0,0.0,0.0,0.0,0.0,0.0,0.0,0.0,0.0,0.0,0.0,0.0,0.0,0.0,0.0,0.0,0.0,0.0,0.0,-2.8864,-2.8628,0.0,0.0,0.0,-2.9554,-2.8601,0.0,0.0,0.0,0.0,0.0,0.0,0.0,0.0,0.0,0.0,0.0,0.0,0.0,0.0,0.0,0.0,0.0,0.0,0.0,0.0,0.0,0.0,0.0,0.0,0.0,0.0,0.0,0.0,0.0,0.0,0.0,0.0,0.0,0.0,0.0,0.0,0.0,0.0,0.0,0.0,0.0,0.0,0.0,0.0,0.0,0.0,0.0,0.0,0.0,0.0,0.0,0.0,0.0,0.0,0.0,0.0,0.0,-3.5558,-3.8815,-4.0496,-4.0496,-4.0496,-4.0496,-4.0458,-3.7661,0.0,0.0,0.0,0.0,0.0,0.0,0.0,0.0,0.0,0.0,0.0,0.0,0.0,0.0,0.0,0.0,0.0,0.0,0.0,0.0,0.0,0.0,0.0,0.0,0.0,0.0,0.0,-2.0938,0.0,0.0,0.0,0.0,0.0,0.0,0.0,0.0,0.0,0.0,0.0,0.0,0.0,0.0,-2.9235,-2.9514,-2.957,-2.9801,0.0,0.0,-2.9627,-2.8968,-3.1488,-3.2391,0.0,0.0,0.0,0.0,0.0,0.0,0.0,0.0,0.0,0.0,0.0,0.0,0.0,0.0,0.0,0.0,0.0,0.0,0.0,0.0,0.0,0.0,0.0,0.0,0.0,0.0,0.0,0.0,0.0,0.0,0.0,0.0,0.0,0.0,0.0,0.0,0.0,0.0,0.0,0.0,0.0,0.0,0.0,0.0,0.0,0.0,0.0,0.0,0.0,0.0,0.0,0.0,0.0,0.0,0.0,-3.5615,-3.8796,-4.0496,-4.0496,-4.0496,-4.0496,-4.0458,-3.8784,-3.7084,0.0,0.0,0.0,0.0,0.0,0.0,0.0,0.0,0.0,0.0,0.0,0.0,0.0,0.0,0.0,0.0,0.0,0.0,0.0,0.0,0.0,0.0,0.0,0.0,0.0,0.0,0.0,0.0,0.0,0.0,0.0,0.0,0.0,0.0,0.0,0.0,0.0,0.0,0.0,0.0,0.0,-2.9315,-2.9647,-2.975,-3.0473,0.0,0.0,-3.0647,-3.2282,-3.407,-3.4186,-3.0752,0.0,0.0,0.0,0.0,0.0,0.0,0.0,0.0,0.0,0.0,0.0,0.0,0.0,0.0,0.0,0.0,0.0,0.0,0.0,0.0,0.0,0.0,0.0,0.0,0.0,0.0,0.0,0.0,0.0,0.0,0.0,0.0,0.0,0.0,0.0,0.0,0.0,0.0,0.0,0.0,0.0,0.0,0.0,0.0,0.0,0.0,0.0,0.0,0.0,0.0,0.0,0.0,0.0,-3.55,-3.5538,-3.8796,-4.0496,-4.0496,-4.0496,-4.0496,-4.0496,-3.888,-3.7219,0.0,0.0,0.0,0.0,0.0,0.0,0.0,0.0,0.0,0.0,0.0,0.0,0.0,0.0,0.0,0.0,0.0,0.0,0.0,0.0,0.0,0.0,0.0,0.0,0.0,0.0,0.0,0.0,-2.6904,-2.7474,-2.7352,0.0,0.0,0.0,0.0,0.0,0.0,0.0,0.0,0.0,0.0,-3.0176,-3.1337,-3.1508,0.0,0.0,-3.2177,-3.1553,-3.1385,-3.3237,-3.3538,-3.0148,-3.0053,0.0,0.0,0.0,0.0,0.0,0.0,0.0,0.0,0.0,0.0,0.0,0.0,0.0,0.0,0.0,0.0,0.0,0.0,0.0,0.0,0.0,0.0,0.0,0.0,0.0,0.0,0.0,0.0,0.0,0.0,0.0,0.0,0.0,0.0,0.0,0.0,0.0,0.0,0.0,0.0,0.0,0.0,0.0,0.0,0.0,0.0,0.0,0.0,0.0,0.0,0.0,0.0,-3.6231,-3.625,-3.9565,-4.1266,-4.1285,-4.1285,-4.1285,-4.1247,-3.9892,-3.8368,0.0,0.0,0.0,0.0,0.0,0.0,0.0,0.0,0.0,0.0,0.0,0.0,0.0,0.0,0.0,0.0,0.0,0.0,0.0,0.0,0.0,0.0,0.0,0.0,0.0,0.0,0.0,0.0,-2.8128,-2.8401,-2.7865,0.0,0.0,0.0,0.0,0.0,0.0,0.0,0.0,0.0,0.0,-3.1534,-3.2262,-3.2541,-3.2741,-3.2909,-3.2352,-3.1755,-3.1238,-3.2672,-3.3049,-3.0675,0.0,0.0,0.0,0.0,0.0,0.0,0.0,0.0,0.0,0.0,0.0,0.0,0.0,0.0,0.0,0.0,0.0,0.0,0.0,0.0,0.0,0.0,0.0,0.0,0.0,0.0,0.0,0.0,0.0,0.0,-2.2477,0.0,0.0,0.0,0.0,0.0,0.0,0.0,0.0,0.0,0.0,0.0,0.0,0.0,0.0,0.0,0.0,0.0,0.0,0.0,0.0,0.0,0.0,-3.7911,-3.7969,-4.1239,-4.3008,-4.3008,-4.3047,-4.2989,-4.297,-4.2181,-4.0961,-3.9314,0.0,0.0,0.0,0.0,0.0,0.0,0.0,0.0,0.0,0.0,0.0,0.0,0.0,0.0,0.0,0.0,0.0,0.0,0.0,0.0,0.0,0.0,0.0,0.0,0.0,0.0,-2.4543,-2.6447,-2.7904,0.0,0.0,0.0,0.0,0.0,0.0,0.0,0.0,0.0,0.0,-3.1424,-3.3376,-3.2046,-3.2449,-3.2934,-3.3047,-3.162,-3.1019,-3.257,-3.2935,-3.3015,0.0,0.0,0.0,0.0,0.0,0.0,0.0,0.0,0.0,0.0,0.0,0.0,0.0,0.0,0.0,0.0,0.0,0.0,0.0,0.0,0.0,0.0,0.0,0.0,0.0,0.0,0.0,-2.6476,-2.6571,0.0,0.0,0.0,0.0,0.0,0.0,0.0,0.0,0.0,0.0,0.0,-3.248,-3.3014,0.0,0.0,0.0,0.0,0.0,0.0,0.0,0.0,0.0,0.0,0.0,0.0,-3.8007,-3.8161,-4.1373,-4.3085,-4.3085,-4.3085,-4.3085,-4.3085,-4.2816,-4.1901,-4.0306,0.0,0.0,0.0,0.0,0.0,0.0,0.0,0.0,0.0,0.0,0.0,0.0,0.0,0.0,0.0,0.0,0.0,0.0,0.0,0.0,0.0,0.0,0.0,0.0,0.0,-2.7292,0.0,0.0,0.0,0.0,0.0,0.0,0.0,0.0,0.0,0.0,0.0,-2.945,-3.1224,-3.1635,-3.1976,-3.2626,-3.2938,-3.3509,0.0,0.0,0.0,0.0,0.0,0.0,0.0,0.0,0.0,0.0,0.0,0.0,0.0,0.0,-3.0409,-2.9279,-2.9952,-3.0721,-3.0722,0.0,0.0,0.0,0.0,0.0,0.0,0.0,0.0,0.0,0.0,0.0,0.0,0.0,0.0,-2.9699,0.0,-3.0592,0.0,0.0,0.0,0.0,0.0,0.0,0.0,0.0,-3.3681,-3.4818,-3.5229,-3.6042,-3.6415,0.0,-3.6129,-3.4901,0.0,0.0,0.0,0.0,0.0,0.0,0.0,0.0,-3.8873,-3.9027,-4.2239,-4.397,-4.397,-4.397,-4.397,-4.3959,-4.3736,-4.2995,-4.1687,-3.9539,-3.791,0.0,0.0,0.0,0.0,0.0,0.0,0.0,0.0,0.0,0.0,0.0,0.0,0.0,0.0,0.0,0.0,0.0,0.0,0.0,0.0,0.0,0.0,0.0,-2.8833,0.0,0.0,0.0,0.0,0.0,0.0,0.0,0.0,0.0,-2.9881,-3.0338,-3.1343,-3.2989,-3.3001,-3.2831,-3.2787,0.0,0.0,0.0,0.0,0.0,0.0,0.0,-3.2175,-3.1747,-3.2628,-3.3738,-3.4867,-3.5087,-3.4918,-3.4392,0.0,0.0,-3.2129,-3.2576,-3.33,-3.3333,-3.2846,-3.2457,-3.2506,-3.2097,-3.1691,0.0,0.0,0.0,0.0,0.0,0.0,0.0,0.0,-3.2511,-3.179,0.0,-3.2372,0.0,0.0,0.0,0.0,0.0,-3.3216,0.0,0.0,-3.8584,-3.9726,-3.8296,-3.9034,-3.9411,-3.9361,-3.8584,-3.8192,-3.8135,-3.7225,0.0,0.0,0.0,0.0,0.0,0.0,-4.0543,-4.0685,-4.386,-4.5584,-4.5582,-4.5601,-4.5593,-4.5571,-4.4976,-4.4282,-4.3476,-4.1967,-4.1135,-4.1049,-3.7899,0.0,0.0,0.0,0.0,0.0,0.0,0.0,0.0,0.0,0.0,0.0,0.0,0.0,0.0,0.0,0.0,0.0,0.0,0.0,0.0,-2.8987,0.0,0.0,0.0,0.0,0.0,0.0,0.0,0.0,0.0,0.0,-3.1068,-3.2213,-3.3203,-3.327,0.0,0.0,0.0,0.0,-3.4469,-3.1444,-3.0842,-3.0876,-3.0976,-3.2316,-3.3951,-3.5554,0.0,0.0,-3.8474,-3.7206,-3.623,-3.6184,-3.7471,-3.753,-3.4323,-3.384,-3.3824,-3.3841,-3.3872,-3.3571,-3.3548,-3.3801,-3.3678,-3.4933,0.0,0.0,0.0,0.0,-3.1641,-3.2693,-3.4429,-3.5162,-3.5143,-3.4711,-3.6074,0.0,0.0,0.0,0.0,0.0,0.0,-3.6813,-3.8015,-3.9835,-4.1003,-4.1651,-4.194,-4.2052,-4.1997,-4.1771,-4.1944,-4.245,-4.2206,-4.0087,-3.6315,0.0,0.0,0.0,0.0,-4.1135,-4.2477,-4.4622,-4.5754,-4.5796,-4.5815,-4.5815,-4.5815,-4.5706,-4.5558,-4.5328,-4.4384,-4.3285,-4.2064,-4.0476,0.0,0.0,0.0,0.0,0.0,0.0,0.0,0.0,0.0,0.0,0.0,0.0,0.0,0.0,0.0,0.0,0.0,0.0,0.0,-3.0037,-3.1325,-3.1465,0.0,0.0,0.0,0.0,0.0,0.0,0.0,0.0,0.0,-3.4498,-3.3241,-3.2652,0.0,0.0,-3.2235,-3.1272,-3.2824,-3.4148,-3.4456,-3.4451,0.0,-3.6105,-3.5661,-3.5346,-3.59,-3.7434,-3.8578,-3.8513,-3.912,-3.9629,-3.9604,-4.0032,-3.9993,-3.9191,-3.8889,-3.8816,-3.8851,-3.8407,-3.7956,-3.7895,-3.7475,-3.7019,-3.9827,-3.7254,-3.5665,-3.5152,-3.5363,-3.5444,-3.6555,-3.8331,-3.8931,-3.8811,-3.8223,-3.9625,-3.8858,-3.6511,-3.6623,0.0,0.0,0.0,-3.9316,-4.0924,-4.1452,-4.2223,-4.3142,-4.3532,-4.369,-4.3681,-4.3975,-4.4391,-4.485,-4.4157,-4.2302,-3.9319,0.0,0.0,-3.9027,-4.0718,-4.2109,-4.3215,-4.4951,-4.5871,-4.5899,-4.5905,-4.5905,-4.5905,-4.6037,-4.6118,-4.6102,-4.5731,-4.5031,-4.3997,-4.2791,-4.1035,0.0,0.0,0.0,0.0,0.0,0.0,0.0,0.0,0.0,0.0,0.0,-3.0928,0.0,0.0,0.0,0.0,-3.1844,-3.1975,-3.2308,-3.264,0.0,0.0,0.0,0.0,0.0,0.0,0.0,-3.2197,-3.4392,-3.6017,-3.5978,-3.4923,-3.4491,-3.533,-3.4549,-3.3651,-3.2967,0.0,-3.607,-3.648,-3.6812,-3.7399,-3.8415,-3.8264,-3.82,-3.8938,-3.9878,-4.057,-4.0602,-4.1209,-4.1601,-4.1574,-4.1332,-4.1115,-4.1104,-4.1107,-4.1111,-4.11,-4.0694,-4.0331,-4.0309,-3.9883,-3.9532,-4.4242,-4.3459,-3.9634,-3.8838,-4.0141,-4.0329,-4.14,-4.2967,-4.3002,-4.2271,-4.1126,-4.2602,-4.1564,-3.8618,-3.8599,0.0,-4.099,-4.1087,-4.188,-4.3322,-4.3354,-4.3397,-4.3458,-4.423,-4.4596,-4.4608,-4.5341,-4.5719,-4.5629,-4.4087,-4.3239,-4.3138,-4.3119,-4.2248,-4.0708,-4.2143,-4.3092,-4.324,-4.4858,-4.5784,-4.5911,-4.5925,-4.5925,-4.593,-4.6053,-4.6128,-4.6112,-4.6221,-4.6302,-4.6243,-4.4767,-4.3482,-4.2487,0.0,0.0,0.0,0.0,0.0,0.0,0.0,0.0,0.0,0.0,0.0,0.0,0.0,0.0,0.0,-3.3629,0.0,-3.493,-3.3566,0.0,0.0,0.0,-3.4235,-3.5818,-3.619,-3.6248,-3.6112,0.0,0.0,-3.6398,-3.7097,-3.7933,-3.887,-3.877,-3.8024,-3.6441,-3.8219,-3.9351,-3.7887,-3.8435,-3.9022,-3.9377,-4.0333,-4.16,-4.2949,-4.3705,-4.3498,-4.3453,-4.2987,-4.2539,-4.2519,-4.1843,-4.1363,-4.1326,-4.144,-4.1323,-4.14,-4.1178,-4.1068,-4.1029,-4.099,-4.0935,-4.545,-4.5374,-4.3956,-4.2929,-4.2272,-4.2324,-4.2607,-4.3014,-4.3168,-4.2963,-4.251,-4.3045,-4.2841,-4.2086,-4.2086,-4.2318,-4.2744,-4.3401,-4.3898,-4.4297,-4.4903,-4.5172,-4.5194,-4.5397,-4.546,-4.5418,-4.5661,-4.5778,-4.577,-4.5364,-4.4536,-4.3388,-4.3324,-4.2427,-4.0751,-4.1126,-4.2049,-4.3412,-4.3844,-4.4764,-4.6147,-4.6189,-4.6209,-4.6189,-4.6221,-4.6247,-4.6267,-4.6275,-4.6303,-4.629,-4.5902,-4.4967,-4.3449,-4.1378,0.0,0.0,0.0,0.0,0.0,0.0,0.0,0.0,0.0,-3.2553,-3.1281,0.0,-3.298,0.0,-3.5795,-3.7455,-3.765,-3.7299,0.0,0.0,-3.5621,-3.5527,-3.5914,-3.7651,-3.8308,-3.6973,-3.8579,-3.982,-3.9801,-3.9997,-4.0701,-4.2127,-4.021,-3.8435,-3.8064,-3.9573,-4.0667,-4.0408,-4.1468,-4.2469,-4.2457,-4.277,-4.3238,-4.3629,-4.3718,-4.3693,-4.3708,-4.3553,-4.3379,-4.339,-4.3248,-4.3088,-4.3043,-4.3047,-4.2993,-4.2921,-4.1997,-4.1107,-4.1107,-4.1127,-4.1127,-4.6744,-4.6956,-4.6624,-4.6069,-4.5353,-4.4581,-4.4253,-4.4261,-4.436,-4.4346,-4.4253,-4.4353,-4.4407,-4.4407,-4.4407,-4.4407,-4.4446,-4.4929,-4.5142,-4.5162,-4.5613,-4.5812,-4.581,-4.5812,-4.5786,-4.5742,-4.5854,-4.5873,-4.5832,-4.5869,-4.5449,-4.4565,-4.458,-4.3723,-4.2035,-4.1279,-4.1386,-4.2373,-4.3192,-4.4458,-4.6209,-4.6306,-4.5934,-4.5187,-4.5151,-4.4782,-4.4001,-4.3985,-4.3967,-4.3989,-4.3991,-4.3565,-4.2572,-4.0932,-3.937,0.0,0.0,0.0,0.0,0.0,0.0,0.0,0.0,0.0,0.0,0.0,-3.4956,-3.4605,-3.7009,-3.8435,-3.8044,-3.7988,-3.8025,-3.8201,-3.8193,-3.8473,-3.9193,-4.052,-4.1035,-4.0081,-4.1228,-4.2108,-4.2128,-4.2444,-4.3015,-4.4014,-4.2881,-4.166,-4.1093,-4.1952,-4.2791,-4.2879,-4.3945,-4.4783,-4.4781,-4.4784,-4.4804,-4.4804,-4.4804,-4.4804,-4.4785,-4.4492,-4.4236,-4.4223,-4.3905,-4.3645,-4.3654,-4.3636,-4.3602,-4.3482,-4.286,-4.2279,-4.2198,-4.2218,-4.2198,-4.8006,-4.8249,-4.8153,-4.8259,-4.845,-4.6832,-4.6078,-4.5962,-4.5845,-4.5807,-4.5807,-4.5807,-4.5807,-4.5807,-4.5807,-4.5807,-4.5807,-4.5807,-4.5807,-4.5807,-4.5807,-4.5807,-4.5807,-4.5807,-4.5814,-4.5841,-4.5953,-4.5982,-4.5929,-4.5994,-4.5919,-4.5715,-4.5767,-4.4971,-4.3297,-4.1774,-4.102,-4.1037,-4.2776,-4.4424,-4.5902,-4.5765,-4.4904,-4.3453,-4.3361,-4.2661,-4.1197,-4.1103,-4.1104,-4.1101,-4.1105,-4.1206,-4.1382,-3.9823,-3.9023,0.0,-3.7596,0.0,0.0,0.0,0.0,0.0,0.0,0.0,0.0,-3.7891,-3.7226,-3.666,-3.8007,-3.867,-3.8144,-3.805,-3.8883,-4.1014,-4.1262,-4.1827,-4.3288,-4.358,-4.3654,-4.3662,-4.3739,-4.3812,-4.3851,-4.4494,-4.4952,-4.4971,-4.5367,-4.5114,-4.4249,-4.4456,-4.4935,-4.5136,-4.5665,-4.5882,-4.5917,-4.6049,-4.6058,-4.6117,-4.6042,-4.618,-4.6082,-4.5513,-4.5077,-4.4998,-4.4517,-4.4011,-4.3932,-4.3961,-4.3957,-4.4012,-4.3953,-4.3798,-4.3529,-4.3435,-4.3575,-4.8869,-4.9009,-4.8365,-4.8634,-4.9359,-4.8353,-4.7502,-4.6813,-4.6097,-4.5807,-4.5807,-4.5807,-4.5807,-4.5807,-4.5807,-4.5807,-4.5807,-4.5807,-4.5807,-4.5807,-4.5807,-4.5807,-4.5807,-4.5807,-4.5848,-4.5944,-4.5991,-4.6044,-4.6155,-4.6145,-4.5462,-4.4155,-4.4157,-4.3299,-4.1717,0.0,0.0,0.0,-4.2825,-4.3859,-4.4127,-4.2817,-4.1918,-4.1604,-4.1589,0.0,-4.1124,-4.1105,-4.1107,-4.111,-4.111,0.0,0.0,0.0,0.0,0.0,0.0,0.0,0.0,0.0,0.0,0.0,-4.0164,-3.9579,-3.8672,-3.8392,-3.8738,-3.9858,-4.0273,-4.0975,-4.2189,-4.2314,-4.2497,-4.2948,-4.3013,-4.314,-4.3423,-4.403,-4.4452,-4.4414,-4.5062,-4.5507,-4.5468,-4.5687,-4.575,-4.5731,-4.5925,-4.5896,-4.5564,-4.5657,-4.586,-4.5915,-4.5952,-4.6013,-4.602,-4.6047,-4.6037,-4.6034,-4.6086,-4.6099,-4.6111,-4.6011,-4.5886,-4.5904,-4.576,-4.5578,-4.5585,-4.5589,-4.5449,-4.5522,-4.5522,-4.5143,-4.3813,-4.3529,-4.3529,-4.9989,0.0,-4.9654,-4.981,0.0,-4.9823,-4.9397,-4.8856,-4.7173,-4.6187,-4.5807,-4.5807,-4.5807,-4.5807,-4.5807,-4.5807,-4.5807,-4.5807,-4.5807,-4.5807,-4.5807,-4.5848,-4.5911,-4.5911,-4.5956,-4.6054,-4.608,-4.6134,-4.6202,-4.6238,-4.5817,-4.5,-4.5,-4.4551,-4.373,-4.3711,-4.3281,-4.2382,-4.3241,-4.4118,-4.4896,-4.4134,-4.3254,-4.2432,-4.2397,0.0,0.0,0.0,0.0,0.0,0.0,0.0,0.0,-4.1491,0.0,-4.22,-4.1389,-4.1289,-4.2107,-4.2172,-4.2542,-4.3399,-4.3461,-4.2577,-4.0558,-4.1142,-4.1774,-4.2137,-4.2185,-4.2711,-4.3984,-4.4106,-4.4275,-4.4664,-4.4681,-4.4625,-4.4632,-4.4969,-4.5221,-4.5221,-4.5596,-4.5892,-4.5892,-4.5911,-4.5911,-4.5911,-4.5892,-4.5911,-4.5904,-4.5983,-4.6028,-4.5959,-4.5985,-4.5996,-4.5954,-4.5988,-4.6002,-4.6007,-4.6028,-4.6045,-4.6056,-4.6056,-4.6072,-4.6078,-4.6075,-4.6061,-4.6037,-4.6017,-4.5982,-4.5982,-4.5982,-4.5763,-4.4851,-4.4715,-4.4705,-5.0898,-5.0898,-5.0898,-5.0975,-5.1111,-5.0975,-5.0898,-5.0724,0.0,0.0,0.0,-4.6039,-4.5962,-4.5807,-4.5807,-4.5807,-4.5807,-4.5815,-4.5828,-4.5822,-4.5848,-4.5896,-4.6027,-4.6027,-4.6059,-4.6122,-4.6167,-4.6206,-4.6212,-4.6268,-4.6289,-4.6289,-4.6289,-4.6289,-4.6289,-4.6289,-4.5586,-4.4219,-4.3848,-4.4394,-4.576,-4.5545,-4.4685,-4.3277,-4.326,-4.2577,-4.1171,-4.1172,-4.1172,-4.1132,-4.1171,-4.1289,-4.1453,-4.1466,-4.1581,-4.1818,-4.1804,-4.2436,-4.3845,-4.3931,-4.451,-4.5959,-4.6056,-4.5145,-4.302,-4.4199,-4.4702,-4.3981,-4.3903,-4.4195,-4.49,-4.4929,-4.5182,-4.5892,-4.5874,-4.5787,-4.5787,-4.5807,-4.5768,-4.5807,-4.5787,-4.5807,-4.5807,-4.5814,-4.5807,-4.5807,-4.5814,-4.5807,-4.5821,-4.5892,-4.5922,-4.5835,-4.5894,-4.5944,-4.5916,-4.5916,-4.5969,-4.5944,-4.595,-4.5975,-4.5986,-4.5986,-4.5986,-4.6012,-4.5997,-4.5986,-4.5986,-4.5969,-4.5969,-4.5969,-4.5969,-4.5947,-4.5893,-4.5904,-4.5826,-5.0917,-5.0898,-5.0898,-5.1331,-5.197,-5.1207,-5.0898,-5.0821,-4.9784,-4.845,-4.6922,-4.6922,-4.6503,-4.5807,-4.5807,-4.5807,-4.5814,-4.5929,-4.5975,-4.598,-4.6031,-4.6072,-4.6084,-4.6084,-4.6122,-4.6193,-4.62,-4.6237,-4.6269,-4.6289,-4.6289,-4.6289,-4.6289,-4.6289,-4.6289,-4.6289,-4.6172,-4.5918,-4.4453,-4.3827,-4.4042,-4.2596,-4.1737,-4.1502,-4.1582,-4.1445,-4.1211,-4.125,-4.1191,-4.1191,-4.1191,-4.1836,-4.3203,-4.3268,-4.3895,-4.5291,-4.5348,-4.5395,-4.5609,-4.5555,-4.559,-4.5809,-4.5848,-4.5717,-4.5521,-4.5687,-4.5728,-4.5493,-4.5422,-4.5512,-4.5648,-4.5635,-4.5667,-4.5802,-4.5801,-4.5807,-4.5807,-4.5807,-4.5807,-4.5807,-4.5807,-4.5807,-4.5807,-4.5807,-4.5807,-4.5807,-4.5807,-4.5807,-4.5807,-4.5801,-4.5827,-4.5807,-4.5827,-4.5822,-4.5815,-4.5827,-4.5848,-4.5815,-4.5848,-4.5848,-4.5917,-4.5904,-4.5941,-4.5991,-4.5953,-4.5929,-4.5923,-4.5874,-4.5854,-4.5854,-4.5854,-4.5794,-4.5708,-4.5766,-4.5828,-5.1602,-5.1525,-5.1091,-5.1111,-5.1505,-5.1563,-5.1892,-5.226,-5.1912,-5.079,-4.9243,-4.9165,-4.8701,-4.7908,-4.7424,-4.6941,-4.6491,-4.6141,-4.5982,-4.6007,-4.6064,-4.6122,-4.615,-4.6153,-4.6177,-4.6244,-4.6244,-4.6267,-4.6289,-4.6289,-4.6289,-4.6289,-4.6289,-4.6289,-4.6289,-4.6289,-4.6289,-4.6269,-4.5527,-4.5117,-4.5078,-4.4336,-4.3925,-4.3906,-4.3945,-4.3965,-4.3965,-4.3965,-4.3965,-4.3965,-4.3965,-4.4296,-4.4992,-4.5039,-4.5352,-4.6086,-4.6063,-4.5982,-4.5982,-4.5867,-4.5807,-4.5807,-4.5807,-4.5808,-4.5893,-4.588,-4.5874,-4.5814,-4.5807,-4.5807,-4.5807,-4.5807,-4.5807,-4.5807,-4.5807,-4.5807,-4.5807,-4.5807,-4.5807,-4.5807,-4.5807,-4.5807,-4.5807,-4.5807,-4.5807,-4.5807,-4.5807,-4.5807,-4.5807,-4.5807,-4.5807,-4.5807,-4.5807,-4.5807,-4.5807,-4.5807,-4.5807,-4.5807,-4.5807,-4.5814,-4.5828,-4.5835,-4.5867,-4.5873,-4.5854,-4.5854,-4.5854,-4.5827,-4.5807,-4.5807,-4.5807,-4.5771,-4.573,-4.5752,-4.5773,-5.25,-5.2422,-5.1563,-5.108,-5.0995,-5.1834,-5.2693,-5.3478,-5.3691,-5.313,-5.2078,-5.1486,-5.0751,-4.9939,-4.928,-4.8546,-4.7701,-4.7144,-4.6697,-4.6374,-4.6408,-4.6362,-4.6231,-4.6234,-4.6262,-4.6289,-4.6289,-4.6289,-4.6289,-4.6289,-4.6289,-4.6289,-4.6289,-4.6289,-4.6289,-4.6289,-4.6289,-4.6289,-4.6289,-4.6289,-4.6289,-4.6289,-4.6289,-4.6289,-4.6269,-4.6289,-4.6289,-4.6289,-4.6289,-4.6268,-4.6288,-4.6242,-4.6173,-4.6169,-4.6153,-4.6102,-4.6036,-4.5986,-4.5939,-4.5848,-4.5807,-4.5807,-4.5807,-4.5807,-4.5807,-4.5807,-4.5807,-4.5807,-4.5807,-4.5807,-4.5807,-4.5807,-4.5807,-4.5807,-4.5807,-4.5807,-4.5807,-4.5807,-4.5807,-4.5807,-4.5807,-4.5807,-4.5807,-4.5807,-4.5807,-4.5807,-4.5807,-4.5807,-4.5807,-4.5807,-4.5807,-4.5807,-4.5807,-4.5807,-4.5807,-4.5807,-4.5807,-4.5807,-4.5807,-4.5807,-4.5814,-4.5807,-4.5807,-4.5814,-4.5814,-4.5814,-4.5807,-4.5807,-4.5793,-4.5771,-4.5749,-4.573,-4.5685,-4.5677,-4.5708,-5.3382,-5.3246,-5.2434,-5.1621,-5.1072,-5.1834,-5.2705,-5.3536,-5.431,-5.5045,-5.5114,-5.3111,-5.1668,-5.0863,-5.0849,-5.0355,-4.9571,-4.9601,-4.8788,-4.7483,-4.7415,-4.7051,-4.6387,-4.6308,-4.6289,-4.6289,-4.6289,-4.6289,-4.6289,-4.6289,-4.6289,-4.6289,-4.6289,-4.6289,-4.6289,-4.6289,-4.6289,-4.6289,-4.6289,-4.6289,-4.6289,-4.6289,-4.6289,-4.6289,-4.6289,-4.6289,-4.6289,-4.6289,-4.6267,-4.623,-4.6228,-4.6191,-4.6122,-4.6112,-4.6109,-4.6118,-4.6041,-4.5958,-4.5822,-4.5814,-4.5807,-4.5807,-4.5807,-4.5807,-4.5807,-4.5807,-4.5807,-4.5807,-4.5807,-4.5807,-4.5807,-4.5807,-4.5807,-4.5807,-4.5807,-4.5807,-4.5807,-4.5807,-4.5807,-4.5807,-4.5807,-4.5807,-4.5807,-4.5807,-4.5807,-4.5807,-4.5807,-4.5807,-4.5807,-4.5807,-4.5807,-4.5807,-4.5807,-4.5807,-4.5807,-4.5807,-4.5807,-4.5807,-4.5807,-4.5807,-4.5807,-4.5807,-4.5807,-4.5807,-4.5807,-4.5807,-4.5807,-4.58,-4.5757,-4.5688,-4.5629,-4.5588,-4.5475,-4.5456,-4.5528,-5.4271,-5.4175,-5.3332,-5.2472,-5.1796,-5.2066,-5.2693,-5.3517,-5.3865,-5.4755,-5.5835,-5.4963,-5.4064,-5.3196,-5.2764,-5.2127,-5.1284,-5.0413,-4.9663,-4.8961,-4.8574,-4.7891,-4.7129,-4.707,-4.6816,-4.6328,-4.6289,-4.6289,-4.6289,-4.6289,-4.6289,-4.6289,-4.6289,-4.6289,-4.6289,-4.6289,-4.6289,-4.6289,-4.6289,-4.6289,-4.6289,-4.6289,-4.6289,-4.6289,-4.6289,-4.6289,-4.6289,-4.6289,-4.6267,-4.6207,-4.6204,-4.6184,-4.6105,-4.6118,-4.6118,-4.6095,-4.6036,-4.5947,-4.5814,-4.5807,-4.5807,-4.5807,-4.5807,-4.5807,-4.5807,-4.5807,-4.5807,-4.5807,-4.5807,-4.5807,-4.5807,-4.5807,-4.5807,-4.5807,-4.5807,-4.5807,-4.5807,-4.5807,-4.5807,-4.5807,-4.5807,-4.5807,-4.5807,-4.5807,-4.5807,-4.5807,-4.5807,-4.5807,-4.5807,-4.5807,-4.5807,-4.5807,-4.5807,-4.5807,-4.5807,-4.5807,-4.5807,-4.5807,-4.5807,-4.5807,-4.5807,-4.5807,-4.5807,-4.5807,-4.5793,-4.58,-4.5807,-4.5715,-4.5653,-4.558,-4.551,-4.5475,-4.5419,-4.541,-4.5475,-5.5142,-5.4987,-5.4213,-5.3362,-5.2577,-5.255,-5.3053,-5.3804,-5.3863,-5.4711,-5.6005,-5.6168,-5.5851,-5.5202,-5.4622,-5.3955,-5.3078,-5.1967,-5.1041,-5.0418,-4.9823,-4.9023,-4.8027,-4.7695,-4.7285,-4.6699,-4.6406,-4.6289,-4.6289,-4.6289,-4.6289,-4.6289,-4.6289,-4.6289,-4.6289,-4.6289,-4.6289,-4.6289,-4.6289,-4.6289,-4.6289,-4.6289,-4.6289,-4.6289,-4.6289,-4.6289,-4.6268,-4.6267,-4.6237,-4.6147,-4.6145,-4.6115,-4.602,-4.6011,-4.6011,-4.6007,-4.5963,-4.5892,-4.5807,-4.5807,-4.5807,-4.5807,-4.5807,-4.5807,-4.5807,-4.5807,-4.5807,-4.5807,-4.5807,-4.5807,-4.5807,-4.5807,-4.5807,-4.5807,-4.5807,-4.5807,-4.5807,-4.5807,-4.5807,-4.5807,-4.5807,-4.5807,-4.5807,-4.5807,-4.5807,-4.5807,-4.5807,-4.5807,-4.5807,-4.5807,-4.5807,-4.5807,-4.5807,-4.5807,-4.5807,-4.5807,-4.5807,-4.5807,-4.5807,-4.5807,-4.5807,-4.5807,-4.5807,-4.58,-4.5786,-4.5749,-4.57,-4.5629,-4.551,-4.5465,-4.5381,-4.5272,-4.521,-4.526,-4.526,-5.5965,-5.581,-5.5084,-5.4252,-5.344,-5.344,-5.3931,-5.4672,-5.4749,-5.5333,-5.6123,-5.6261,-5.6284,-5.6182,-5.616,-5.5875,-5.5099,-5.4857,-5.3574,-5.1621,-5.1308,-5.041,-4.8848,-4.8008,-4.7617,-4.748,-4.6758,-4.6367,-4.6308,-4.6289,-4.6289,-4.6289,-4.6289,-4.6289,-4.6289,-4.6289,-4.6289,-4.6289,-4.6289,-4.6289,-4.6289,-4.6289,-4.6289,-4.6289,-4.6289,-4.6267,-4.623,-4.6206,-4.6145,-4.6027,-4.6008,-4.5956,-4.5848,-4.5834,-4.5822,-4.5834,-4.5827,-4.5814,-4.5807,-4.5807,-4.5807,-4.5807,-4.5807,-4.5807,-4.5807,-4.5807,-4.5807,-4.5807,-4.5807,-4.5807,-4.5807,-4.5807,-4.5807,-4.5807,-4.5807,-4.5807,-4.5807,-4.5807,-4.5807,-4.5807,-4.5807,-4.5807,-4.5807,-4.5807,-4.5807,-4.5807,-4.5807,-4.5807,-4.5807,-4.5807,-4.5807,-4.5807,-4.5807,-4.5807,-4.5807,-4.5807,-4.5807,-4.5807,-4.5807,-4.5807,-4.5807,-4.5807,-4.5807,-4.5778,-4.5712,-4.5637,-4.5596,-4.5493,-4.5352,-4.525,-4.5109,-4.5007,-4.5042,-4.4948,-4.4979,-5.6003,-5.5965,-5.5683,-5.5084,-5.4368,-5.4349,-5.4529,-5.4858,-5.4893,-5.5413,-5.6169,-5.637,-5.6419,-5.6425,-5.6512,-5.6358,-5.6005,-5.5543,-5.4785,-5.3789,-5.2754,-5.1621,-5.0508,-4.9648,-4.8926,-4.8359,-4.7558,-4.6836,-4.6328,-4.6289,-4.6289,-4.6289,-4.6289,-4.6289,-4.6289,-4.6289,-4.6289,-4.6289,-4.6289,-4.6289,-4.6289,-4.6289,-4.6288,-4.6239,-4.6239,-4.6234,-4.6204,-4.6155,-4.6091,-4.6007,-4.5982,-4.5927,-4.5827,-4.5807,-4.5807,-4.5807,-4.5807,-4.5807,-4.5807,-4.5807,-4.5807,-4.5807,-4.5807,-4.58,-4.5807,-4.5807,-4.5807,-4.5807,-4.5807,-4.5807,-4.5807,-4.5807,-4.5807,-4.5807,-4.5807,-4.5807,-4.5807,-4.5807,-4.5807,-4.5807,-4.5807,-4.5807,-4.5807,-4.5807,-4.5807,-4.5807,-4.5807,-4.5807,-4.5807,-4.5807,-4.5807,-4.5807,-4.5807,-4.5807,-4.5807,-4.5807,-4.5807,-4.5807,-4.5807,-4.5807,-4.5807,-4.5807,-4.5807,-4.5692,-4.5621,-4.5528,-4.5475,-4.5312,-4.5194,-4.5072,-4.4907,-4.4858,-4.4895,-4.4846,-4.4858,-5.6003,-5.6003,-5.6003,-5.5683,-5.5227,-5.5226,-5.5271,-5.5339,-5.536,-5.5743,-5.627,-5.646,-5.6533,-5.6536,-5.6582,-5.6562,-5.6478,-5.5957,-5.5586,-5.5233,-5.4081,-5.2928,-5.1835,-5.0976,-5.0116,-4.9258,-4.8437,-4.7558,-4.6815,-4.6718,-4.6562,-4.6328,-4.6289,-4.6289,-4.6289,-4.6289,-4.6289,-4.6289,-4.6289,-4.6289,-4.6289,-4.6288,-4.6261,-4.6183,-4.6133,-4.6111,-4.6134,-4.6091,-4.6036,-4.5953,-4.5929,-4.588,-4.5786,-4.5771,-4.5771,-4.5771,-4.5791,-4.5764,-4.5771,-4.5771,-4.5771,-4.5783,-4.5771,-4.5764,-4.5771,-4.5778,-4.5805,-4.5812,-4.58,-4.5807,-4.5807,-4.5807,-4.5807,-4.5807,-4.5807,-4.5807,-4.5807,-4.5807,-4.5807,-4.5807,-4.5807,-4.5807,-4.5807,-4.5807,-4.5807,-4.5807,-4.5807,-4.5807,-4.5807,-4.5807,-4.5807,-4.5807,-4.5807,-4.5807,-4.58,-4.58,-4.58,-4.58,-4.5807,-4.5807,-4.5793,-4.5793,-4.5749,-4.5629,-4.5528,-4.5428,-4.5292,-4.5151,-4.5014,-4.4895,-4.4802,-4.4712,-4.4732,-4.477,-4.4757,-5.6012,-5.5993,-5.5993,-5.5999,-5.5927,-5.6012,-5.6162,-5.6136,-5.6238,-5.6302,-5.643,-5.6543,-5.6597,-5.6595,-5.6595,-5.6594,-5.6556,-5.6496,-5.6105,-5.5442,-5.5188,-5.4211,-5.2709,-5.181,-5.0892,-4.9974,-4.927,-4.845,-4.7649,-4.7494,-4.7105,-4.6482,-4.6346,-4.6288,-4.6289,-4.6289,-4.6289,-4.6289,-4.6289,-4.6289,-4.6289,-4.6239,-4.6183,-4.6165,-4.6013,-4.5933,-4.6007,-4.5997,-4.5929,-4.5805,-4.5803,-4.5754,-4.5704,-4.5696,-4.5688,-4.5696,-4.5715,-4.5708,-4.5688,-4.5715,-4.5696,-4.5696,-4.5715,-4.5696,-4.5704,-4.5765,-4.5788,-4.5788,-4.5791,-4.5773,-4.5793,-4.5819,-4.58,-4.5807,-4.5807,-4.5807,-4.5807,-4.5807,-4.5807,-4.5807,-4.5807,-4.5807,-4.5807,-4.5807,-4.5807,-4.5807,-4.5807,-4.5793,-4.5778,-4.5771,-4.5793,-4.5793,-4.5757,-4.5719,-4.5764,-4.58,-4.5793,-4.5786,-4.58,-4.58,-4.5764,-4.573,-4.5665,-4.5537,-4.5293,-4.5188,-4.5034,-4.4895,-4.4846,-4.4732,-4.4646,-4.4597,-4.4632,-4.464,-4.4592,-5.6057,-5.6018,-5.6102,-5.613,-5.6149,-5.6242,-5.6301,-5.635,-5.6387,-5.6461,-5.6523,-5.6577,-5.6612,-5.6611,-5.6607,-5.6605,-5.6605,-5.66,-5.6447,-5.6102,-5.5576,-5.4738,-5.3625,-5.2687,-5.1535,-5.0285,-4.9856,-4.9308,-4.8527,-4.7902,-4.7434,-4.7142,-4.6576,-4.6304,-4.6325,-4.6288,-4.6288,-4.6288,-4.6289,-4.6268,-4.6239,-4.6227,-4.6131,-4.6,-4.5919,-4.5879,-4.5807,-4.58,-4.5791,-4.5743,-4.5723,-4.5715,-4.5708,-4.5688,-4.5688,-4.5688,-4.5688,-4.5688,-4.5688,-4.568,-4.568,-4.5688,-4.5688,-4.5688,-4.5688,-4.5696,-4.5723,-4.5723,-4.5719,-4.5719,-4.5727,-4.5769,-4.5791,-4.58,-4.5807,-4.5807,-4.5807,-4.5807,-4.5807,-4.5807,-4.5807,-4.5807,-4.58,-4.58,-4.5786,-4.5786,-4.5786,-4.5745,-4.5677,-4.5645,-4.5661,-4.5661,-4.5613,-4.5543,-4.5569,-4.5541,-4.5516,-4.5566,-4.5642,-4.5677,-4.5661,-4.5629,-4.5537,-4.5342,-4.5105,-4.4948,-4.4783,-4.4699,-4.4627,-4.4605,-4.4542,-4.4528,-4.4556,-4.4496,-4.4426,-5.6126,-5.6093,-5.6166,-5.6207,-5.6237,-5.6312,-5.6358,-5.6418,-5.6444,-5.6522,-5.6591,-5.6606,-5.6605,-5.6603,-5.6618,-5.6616,-5.6614,-5.6608,-5.6612,-5.6545,-5.6097,-5.5316,-5.438,-5.3228,-5.2016,-5.0845,-5.0589,-5.016,-4.9359,-4.8813,-4.8365,-4.7977,-4.7196,-4.6788,-4.6731,-4.646,-4.6305,-4.6305,-4.6243,-4.6195,-4.6152,-4.6095,-4.5994,-4.5881,-4.5841,-4.5793,-4.5684,-4.5687,-4.5687,-4.5695,-4.5687,-4.566,-4.566,-4.566,-4.566,-4.566,-4.566,-4.566,-4.566,-4.5651,-4.566,-4.566,-4.566,-4.566,-4.566,-4.5668,-4.5684,-4.5684,-4.57,-4.5688,-4.5688,-4.5731,-4.5712,-4.5607,-4.5737,-4.5793,-4.5807,-4.5807,-4.5778,-4.5737,-4.5734,-4.5719,-4.5669,-4.5653,-4.5653,-4.5653,-4.5602,-4.5549,-4.5445,-4.538,-4.5371,-4.5333,-4.5246,-4.5236,-4.5304,-4.5265,-4.5225,-4.5314,-4.5445,-4.5445,-4.5455,-4.5428,-4.5352,-4.5074,-4.4814,-4.4757,-4.4624,-4.4515,-4.4444,-4.443,-4.443,-4.4368,-4.4321,-4.4292,-4.4233,-5.6265,-5.6216,-5.6217,-5.6258,-5.6302,-5.639,-5.6422,-5.6443,-5.6538,-5.6584,-5.6618,-5.6612,-5.6608,-5.6606,-5.6606,-5.6606,-5.6604,-5.6606,-5.6606,-5.6608,-5.6452,-5.5966,-5.4834,-5.3391,-5.2198,-5.1416,-5.1299,-5.0928,-5.0206,-4.9952,-4.968,-4.8847,-4.8087,-4.7602,-4.7391,-4.675,-4.6397,-4.6274,-4.6173,-4.6114,-4.6072,-4.5925,-4.5814,-4.5783,-4.5742,-4.5698,-4.5673,-4.5629,-4.564,-4.5665,-4.562,-4.5603,-4.5594,-4.5594,-4.5603,-4.5622,-4.5594,-4.5603,-4.5594,-4.5612,-4.5622,-4.5612,-4.5612,-4.5594,-4.5612,-4.5637,-4.5673,-4.5673,-4.5687,-4.5673,-4.5673,-4.57,-4.5596,-4.5426,-4.5539,-4.5646,-4.5737,-4.5703,-4.5607,-4.5533,-4.5543,-4.5528,-4.5381,-4.5362,-4.5362,-4.5352,-4.5274,-4.5214,-4.5142,-4.5069,-4.4943,-4.492,-4.4939,-4.4962,-4.5006,-4.4977,-4.4927,-4.4962,-4.5088,-4.512,-4.515,-4.5129,-4.5094,-4.4801,-4.4602,-4.4537,-4.4458,-4.4358,-4.4314,-4.431,-4.4266,-4.4158,-4.4113,-4.4113,-4.4113,-5.685,-5.6305,-5.6393,-5.6393,-5.6399,-5.6501,-5.6531,-5.6549,-5.6579,-5.661,-5.6608,-5.6606,-5.6604,-5.6604,-5.6604,-5.6604,-5.6604,-5.6604,-5.6604,-5.6604,-5.6604,-5.5708,-5.44,-5.327,-5.2273,-5.155,-5.1414,-5.1277,-5.1023,-5.0455,-5.0008,-4.9737,-4.8917,-4.8195,-4.7634,-4.7364,-4.6829,-4.626,-4.6133,-4.6013,-4.5901,-4.5836,-4.5783,-4.5723,-4.5706,-4.5684,-4.564,-4.5603,-4.5614,-4.5622,-4.5603,-4.5594,-4.5594,-4.5594,-4.5594,-4.5594,-4.5594,-4.5594,-4.5594,-4.5594,-4.5594,-4.5594,-4.5594,-4.5594,-4.5594,-4.5603,-4.5612,-4.5631,-4.5629,-4.561,-4.5618,-4.5637,-4.5618,-4.556,-4.5304,-4.5158,-4.5188,-4.5128,-4.5118,-4.5095,-4.5105,-4.5074,-4.505,-4.5047,-4.5047,-4.5047,-4.4984,-4.4916,-4.4849,-4.4776,-4.4663,-4.4701,-4.4707,-4.4701,-4.4707,-4.4655,-4.4621,-4.4608,-4.4681,-4.4726,-4.4739,-4.4752,-4.4681,-4.4546,-4.443,-4.434,-4.4281,-4.4207,-4.4207,-4.4207,-4.4147,-4.4051,-4.4036,-4.4036,-4.4036,-5.7356,-5.6909,-5.6599,-5.6484,-5.6481,-5.6579,-5.6604,-5.6604,-5.6604,-5.6604,-5.6604,-5.6604,-5.6604,-5.6604,-5.6604,-5.6604,-5.6604,-5.6604,-5.6604,-5.6604,-5.6604,-5.5845,-5.4635,-5.3678,-5.28,-5.196,-5.157,-5.1394,-5.1316,-5.0867,-5.067,-5.0471,-4.9716,-4.904,-4.8605,-4.7729,-4.72,-4.659,-4.6238,-4.5905,-4.5822,-4.5722,-4.5708,-4.5646,-4.5648,-4.564,-4.5594,-4.5594,-4.5594,-4.5594,-4.5594,-4.5594,-4.5594,-4.5594,-4.5594,-4.5594,-4.5594,-4.5594,-4.5594,-4.5594,-4.5594,-4.5594,-4.5594,-4.5594,-4.5594,-4.5594,-4.5594,-4.5594,-4.5594,-4.555,-4.5419,-4.5273,-4.5182,-4.505,-4.4768,-4.4694,-4.499,-4.499,-4.4897,-4.4839,-4.4823,-4.4787,-4.4745,-4.4732,-4.4739,-4.4726,-4.4682,-4.4604,-4.453,-4.4471,-4.443,-4.4435,-4.4426,-4.4393,-4.4393,-4.4341,-4.4345,-4.435,-4.4364,-4.4402,-4.443,-4.443,-4.4345,-4.431,-4.4237,-4.4177,-4.4147,-4.4116,-4.4101,-4.4067,-4.4005,-4.4005,-4.4005,-4.4005,-4.4005,-5.7824,-5.7734,-5.6875,-5.6536,-5.6591,-5.6604,-5.6604,-5.6604,-5.6604,-5.6604,-5.6604,-5.6604,-5.6604,-5.6604,-5.6604,-5.6604,-5.6604,-5.6604,-5.6604,-5.6604,-5.6565,-5.6118,-5.5415,-5.4303,-5.3405,-5.2567,-5.1804,-5.1472,-5.1375,-5.1336,-5.133,-5.1062,-5.0378,-4.9972,-4.9449,-4.8327,-4.7501,-4.7006,-4.6429,-4.5976,-4.5803,-4.5665,-4.561,-4.5612,-4.5603,-4.5603,-4.5594,-4.5594,-4.5594,-4.5594,-4.5594,-4.5594,-4.5594,-4.5594,-4.5594,-4.5594,-4.5594,-4.5594,-4.5594,-4.5594,-4.5568,-4.555,-4.5549,-4.554,-4.5495,-4.5476,-4.5495,-4.5419,-4.5523,-4.5352,-4.5169,-4.4763,-4.4618,-4.4593,-4.4308,-4.4468,-4.4912,-4.4976,-4.4756,-4.4663,-4.463,-4.4557,-4.4505,-4.4458,-4.444,-4.4421,-4.4383,-4.4341,-4.4269,-4.4225,-4.4166,-4.414,-4.4113,-4.4051,-4.4067,-4.4051,-4.4082,-4.4082,-4.4113,-4.4158,-4.4218,-4.4203,-4.4097,-4.4055,-4.4085,-4.4085,-4.4055,-4.402,-4.3989,-4.4005,-4.4005,-4.4005,-4.4005,-4.4005,-4.4005,-5.8397,-5.7713,-5.6912,-5.6575,-5.6606,-5.6604,-5.6604,-5.6604,-5.6604,-5.6604,-5.6604,-5.6604,-5.6604,-5.6604,-5.6604,-5.6604,-5.6604,-5.6604,-5.6604,-5.6604,-5.6604,-5.6545,-5.5981,-5.481,-5.36,-5.2741,-5.1843,-5.1414,-5.1392,-5.1367,-5.1333,-5.119,-5.0942,-5.0542,-4.9817,-4.9365,-4.8438,-4.7326,-4.6825,-4.6325,-4.5795,-4.5648,-4.5594,-4.5594,-4.5594,-4.5594,-4.5594,-4.5594,-4.5594,-4.5594,-4.5594,-4.5594,-4.5594,-4.5594,-4.5594,-4.5594,-4.5594,-4.5594,-4.5594,-4.5577,-4.5504,-4.5342,-4.5429,-4.5419,-4.5019,-4.5191,-4.5169,-4.5041,-4.4954,-4.4977,-4.4891,-4.4788,-4.4637,-4.4565,-4.4411,-4.4327,-4.4514,-4.4383,-4.4246,-4.421,-4.4199,-4.4155,-4.4128,-4.4143,-4.4128,-4.4113,-4.4097,-4.4067,-4.4051,-4.4036,-4.402,-4.4005,-4.4005,-4.4005,-4.4005,-4.4005,-4.4005,-4.4005,-4.4005,-4.4005,-4.4085,-4.4101,-4.402,-4.4005,-4.4005,-4.3989,-4.3942,-4.3958,-4.3923,-4.3974,-4.3974,-4.3958,-4.3942,-4.3958,-4.3942,-5.8832,-5.8285,-5.7113,-5.6604,-5.6604,-5.6604,-5.6604,-5.6604,-5.6604,-5.6604,-5.6604,-5.6604,-5.6604,-5.6604,-5.6604,-5.6604,-5.6604,-5.6604,-5.6604,-5.6604,-5.6604,-5.6604,-5.6391,-5.5318,-5.4166,-5.321,-5.198,-5.1445,-5.1327,-5.1294,-5.1241,-5.1118,-5.1072,-5.0803,-5.0241,-4.9882,-4.9107,-4.8194,-4.7301,-4.6673,-4.6277,-4.5787,-4.5594,-4.5594,-4.5594,-4.5594,-4.5594,-4.5594,-4.5594,-4.5594,-4.5594,-4.5594,-4.5594,-4.5594,-4.5594,-4.5594,-4.5594,-4.5594,-4.5586,-4.5485,-4.5342,-4.5211,-4.5232,-4.5063,-4.4884,-4.495,-4.495,-4.4837,-4.4788,-4.4763,-4.4624,-4.4471,-4.4462,-4.4421,-4.4303,-4.424,-4.4177,-4.4079,-4.4005,-4.4005,-4.4036,-4.4036,-4.4005,-4.4005,-4.4005,-4.4051,-4.4051,-4.4036,-4.4036,-4.4005,-4.4005,-4.4005,-4.4005,-4.4005,-4.4005,-4.4005,-4.4005,-4.4005,-4.4005,-4.4005,-4.4039,-4.402,-4.4005,-4.3989,-4.3989,-4.386,-4.3828,-4.3844,-4.3812,-4.3763,-4.3747,-4.3795,-4.3828,-4.3812,-4.3795,-5.9122,-5.8946,-5.7309,-5.6604,-5.6604,-5.6604,-5.6604,-5.6604,-5.6604,-5.6604,-5.6604,-5.6604,-5.6604,-5.6604,-5.6604,-5.6604,-5.6604,-5.6604,-5.6604,-5.6604,-5.6531,-5.6528,-5.6272,-5.5538,-5.4612,-5.383,-5.2411,-5.1603,-5.1261,-5.1178,-5.1113,-5.1004,-5.0937,-5.0832,-5.0626,-5.0102,-4.9509,-4.9027,-4.8114,-4.7181,-4.6817,-4.6182,-4.5874,-4.5594,-4.5594,-4.5594,-4.5594,-4.5594,-4.5594,-4.5594,-4.5594,-4.5577,-4.5559,-4.5586,-4.5594,-4.5586,-4.5559,-4.5495,-4.5438,-4.5292,-4.5126,-4.5115,-4.4943,-4.4763,-4.4688,-4.4676,-4.4676,-4.465,-4.4585,-4.4519,-4.4346,-4.4206,-4.4079,-4.4051,-4.402,-4.4005,-4.4005,-4.4005,-4.4005,-4.4005,-4.4005,-4.4005,-4.4005,-4.4005,-4.4005,-4.4005,-4.4005,-4.4005,-4.4005,-4.4005,-4.4005,-4.4005,-4.4005,-4.3876,-4.386,-4.3862,-4.3878,-4.3878,-4.391,-4.3926,-4.3958,-4.4005,-4.4005,-4.3955,-4.3923,-4.3793,-4.3646,-4.3595,-4.3545,-4.3494,-4.3495,-4.3512,-4.358,-4.3647,-4.3614,-5.9122,-5.8966,-5.7289,-5.6604,-5.6604,-5.6604,-5.6604,-5.6604,-5.6604,-5.6604,-5.6604,-5.6604,-5.6604,-5.6604,-5.6604,-5.6604,-5.6599,-5.6577,-5.6577,-5.6528,-5.6436,-5.6371,-5.6184,-5.557,-5.4591,-5.3662,-5.2674,-5.1929,-5.1194,-5.1006,-5.0985,-5.0916,-5.0894,-5.0841,-5.0729,-5.0491,-5.0038,-4.9606,-4.8952,-4.8202,-4.7192,-4.6605,-4.6144,-4.5671,-4.5594,-4.5594,-4.5594,-4.5594,-4.5594,-4.5594,-4.5594,-4.5485,-4.539,-4.5485,-4.554,-4.5495,-4.5371,-4.5282,-4.5232,-4.5019,-4.4782,-4.465,-4.465,-4.4538,-4.4332,-4.4332,-4.4374,-4.425,-4.4196,-4.4155,-4.4079,-4.4036,-4.402,-4.4005,-4.4005,-4.4005,-4.4005,-4.4005,-4.4005,-4.4005,-4.4005,-4.4005,-4.4005,-4.4005,-4.4005,-4.4005,-4.4005,-4.4005,-4.4005,-4.4005,-4.4005,-4.4005,-4.4005,-4.3828,-4.3679,-4.3681,-4.3681,-4.3647,-4.3664,-4.3747,-4.3812,-4.3958,-4.3989,-4.3828,-4.3728,-4.3629,-4.3511,-4.3338,-4.3232,-4.316,-4.3178,-4.3196,-4.325,-4.3267,-4.3249,-5.9122,-5.8927,-5.7289,-5.6604,-5.6604,-5.6604,-5.6604,-5.6604,-5.6604,-5.6604,-5.6604,-5.6604,-5.6604,-5.6604,-5.6604,-5.6572,-5.6469,-5.6443,-5.6402,-5.6323,-5.6232,-5.6211,-5.6186,-5.5663,-5.4672,-5.376,-5.3068,-5.2207,-5.1069,-5.0945,-5.0879,-5.0816,-5.0793,-5.0758,-5.0712,-5.0654,-5.0462,-5.0029,-4.9606,-4.8817,-4.7509,-4.6817,-4.599,-4.5748,-4.5594,-4.5594,-4.5594,-4.5594,-4.5594,-4.5594,-4.5594,-4.5448,-4.5322,-4.5292,-4.5313,-4.5201,-4.5063,-4.4996,-4.4962,-4.477,-4.4533,-4.4443,-4.443,-4.4279,-4.4124,-4.4106,-4.4136,-4.4067,-4.4005,-4.4005,-4.402,-4.4005,-4.4005,-4.4005,-4.4005,-4.3989,-4.4005,-4.3989,-4.3989,-4.3989,-4.4005,-4.4005,-4.4005,-4.4005,-4.4005,-4.4005,-4.4005,-4.4005,-4.4005,-4.4005,-4.4005,-4.4005,-4.3989,-4.3812,-4.3595,-4.3511,-4.3408,-4.3355,-4.3302,-4.3389,-4.3494,-4.3562,-4.358,-4.3495,-4.3443,-4.3337,-4.3123,-4.2902,-4.2845,-4.275,-4.2634,-4.2575,-4.2769,-4.2864,-4.2826,-5.8987,-5.8714,-5.7231,-5.6604,-5.6604,-5.6604,-5.6604,-5.6604,-5.6604,-5.6604,-5.6604,-5.6604,-5.6604,-5.6602,-5.6528,-5.6439,-5.6266,-5.6261,-5.6191,-5.6122,-5.6038,-5.6044,-5.6029,-5.5792,-5.5028,-5.3505,-5.3254,-5.2453,-5.1137,-5.0839,-5.0793,-5.0759,-5.0693,-5.0683,-5.0683,-5.0683,-5.0683,-5.0481,-5.0077,-4.9202,-4.799,-4.6721,-4.574,-4.5614,-4.5594,-4.5594,-4.5594,-4.5594,-4.5594,-4.5594,-4.5568,-4.5448,-4.5171,-4.5118,-4.4954,-4.4714,-4.467,-4.4714,-4.465,-4.4484,-4.4303,-4.4279,-4.4106,-4.4017,-4.402,-4.4036,-4.402,-4.4005,-4.4005,-4.4005,-4.4005,-4.4005,-4.3989,-4.3974,-4.3974,-4.3974,-4.3961,-4.3961,-4.3942,-4.3942,-4.3989,-4.3989,-4.4008,-4.4005,-4.4005,-4.4005,-4.4005,-4.4005,-4.4005,-4.4005,-4.4005,-4.4005,-4.3942,-4.3798,-4.358,-4.332,-4.3178,-4.2958,-4.2865,-4.2829,-4.294,-4.3051,-4.305,-4.2995,-4.2977,-4.2829,-4.2635,-4.2456,-4.2356,-4.2213,-4.2002,-4.2002,-4.2213,-4.2315,-4.2315,-5.8636,-5.7894,-5.6977,-5.6604,-5.6604,-5.6604,-5.6604,-5.6604,-5.6604,-5.6604,-5.658,-5.6602,-5.658,-5.6545,-5.6383,-5.6252,-5.6152,-5.611,-5.6051,-5.5959,-5.5891,-5.5814,-5.575,-5.5618,-5.4687,-5.3424,-5.3154,-5.2202,-5.1077,-5.073,-5.0731,-5.0693,-5.0683,-5.0683,-5.0683,-5.0683,-5.0683,-5.0673,-5.0539,-4.9683,-4.8221,-4.7154,-4.6355,-4.5778,-4.5586,-4.5586,-4.5586,-4.5586,-4.5586,-4.5586,-4.5586,-4.5342,-4.4943,-4.4837,-4.4546,-4.4332,-4.4275,-4.4438,-4.4397,-4.4236,-4.4109,-4.4109,-4.4036,-4.4005,-4.4005,-4.4005,-4.4005,-4.4005,-4.3989,-4.3992,-4.3992,-4.3989,-4.3958,-4.3945,-4.3913,-4.3883,-4.3851,-4.3899,-4.3881,-4.3881,-4.3931,-4.3961,-4.3992,-4.4008,-4.4005,-4.4005,-4.3989,-4.3942,-4.386,-4.3728,-4.3695,-4.361,-4.3543,-4.3407,-4.3159,-4.2977,-4.2808,-4.2555,-4.2418,-4.232,-4.242,-4.2498,-4.24,-4.238,-4.2362,-4.2362,-4.2218,-4.2068,-4.1895,-4.1784,-4.1657,-4.1631,-4.1675,-4.174,-4.187,-5.8148,-5.7738,-5.6938,-5.6604,-5.6604,-5.6604,-5.6604,-5.6604,-5.6604,-5.6531,-5.6443,-5.6448,-5.6375,-5.6271,-5.6141,-5.6031,-5.5893,-5.588,-5.5822,-5.574,-5.5661,-5.5618,-5.5594,-5.5447,-5.4645,-5.3418,-5.2872,-5.2127,-5.1102,-5.0663,-5.0683,-5.0683,-5.0683,-5.0683,-5.0673,-5.0683,-5.0683,-5.0548,-5.0144,-4.9327,-4.8203,-4.7271,-4.6444,-4.5589,-4.5569,-4.555,-4.5559,-4.5605,-4.5559,-4.5522,-4.5531,-4.54,-4.5049,-4.4843,-4.4604,-4.4192,-4.4091,-4.4117,-4.4151,-4.4048,-4.402,-4.3989,-4.3989,-4.4005,-4.4005,-4.3989,-4.3992,-4.3945,-4.3945,-4.3929,-4.3915,-4.3899,-4.3883,-4.3851,-4.3835,-4.3818,-4.3804,-4.382,-4.3853,-4.3853,-4.3853,-4.3883,-4.3814,-4.3594,-4.3559,-4.3559,-4.3406,-4.3195,-4.3123,-4.3014,-4.3014,-4.3032,-4.2959,-4.2867,-4.26,-4.2382,-4.2239,-4.2047,-4.1959,-4.1878,-4.192,-4.192,-4.186,-4.1839,-4.1899,-4.1856,-4.1792,-4.1683,-4.1547,-4.1436,-4.1368,-4.1363,-4.1363,-4.156,-4.1653,-5.7428,-5.737,-5.6836,-5.6604,-5.6604,-5.655,-5.652,-5.652,-5.6452,-5.6355,-5.6266,-5.6225,-5.6117,-5.5963,-5.5915,-5.5821,-5.5662,-5.5652,-5.5585,-5.552,-5.5468,-5.548,-5.5488,-5.5349,-5.4594,-5.297,-5.297,-5.2042,-5.1031,-5.0593,-5.0633,-5.0653,-5.0633,-5.0643,-5.0624,-5.0624,-5.0624,-5.0625,-5.0134,-4.9384,-4.8481,-4.7607,-4.6743,-4.6033,-4.562,-4.5466,-4.5485,-4.5513,-4.5466,-4.5448,-4.5495,-4.5341,-4.4976,-4.477,-4.4498,-4.4136,-4.3958,-4.3929,-4.3961,-4.3945,-4.3942,-4.3942,-4.3942,-4.3929,-4.3945,-4.3961,-4.3945,-4.3883,-4.3883,-4.3851,-4.382,-4.3804,-4.3769,-4.3769,-4.3736,-4.3736,-4.3719,-4.3651,-4.3686,-4.3719,-4.3719,-4.3769,-4.3597,-4.3212,-4.3087,-4.3105,-4.2885,-4.2541,-4.2462,-4.2424,-4.2523,-4.2639,-4.2639,-4.2523,-4.2244,-4.199,-4.1792,-4.1631,-4.1498,-4.1431,-4.1498,-4.1475,-4.1413,-4.1408,-4.1471,-4.1386,-4.1346,-4.1255,-4.1186,-4.1157,-4.1111,-4.1041,-4.1088,-4.1312,-4.138,-5.6398,-5.6402,-5.6545,-5.6599,-5.6558,-5.6387,-5.6324,-5.63,-5.6129,-5.6063,-5.6035,-5.6005,-5.5891,-5.5768,-5.5721,-5.5651,-5.5501,-5.5508,-5.548,-5.5444,-5.5389,-5.5402,-5.5415,-5.5192,-5.4574,-5.3149,-5.2862,-5.1997,-5.0843,-5.0489,-5.0511,-5.0521,-5.0542,-5.0521,-5.0532,-5.0542,-5.0563,-5.0584,-5.0353,-4.9931,-4.9094,-4.8287,-4.7462,-4.658,-4.587,-4.541,-4.541,-4.54,-4.5352,-4.5322,-4.5322,-4.5159,-4.477,-4.463,-4.4351,-4.4036,-4.3851,-4.3802,-4.3802,-4.3818,-4.3818,-4.382,-4.3837,-4.3835,-4.3851,-4.3818,-4.382,-4.3802,-4.3786,-4.3769,-4.3788,-4.3788,-4.3703,-4.3634,-4.3566,-4.348,-4.3427,-4.3374,-4.3409,-4.3532,-4.3515,-4.3374,-4.3178,-4.2716,-4.2736,-4.2774,-4.2346,-4.2015,-4.2101,-4.2121,-4.2244,-4.2324,-4.2346,-4.2264,-4.2015,-4.1774,-4.1503,-4.134,-4.1203,-4.1105,-4.1059,-4.1012,-4.1105,-4.1082,-4.1129,-4.1012,-4.0965,-4.1041,-4.1065,-4.0965,-4.0894,-4.0918,-4.0871,-4.0965,-4.0989,-5.6121,-5.6127,-5.6195,-5.626,-5.6271,-5.6158,-5.6122,-5.609,-5.6029,-5.5927,-5.5816,-5.5681,-5.5594,-5.5543,-5.5508,-5.5492,-5.5421,-5.544,-5.5415,-5.5403,-5.539,-5.5377,-5.5403,-5.5154,-5.4517,-5.3185,-5.2745,-5.1973,-5.0543,-5.0401,-5.0401,-5.0412,-5.0438,-5.05,-5.05,-5.05,-5.0511,-5.0521,-5.0455,-5.0099,-4.9309,-4.8867,-4.8033,-4.6673,-4.6462,-4.5849,-4.5495,-4.525,-4.5137,-4.5041,-4.4966,-4.4732,-4.4538,-4.4416,-4.4192,-4.3929,-4.3786,-4.3686,-4.3651,-4.3738,-4.3788,-4.3788,-4.3804,-4.3788,-4.3771,-4.3788,-4.3736,-4.3701,-4.3667,-4.3686,-4.3617,-4.36,-4.3566,-4.3479,-4.3375,-4.325,-4.3105,-4.3014,-4.294,-4.2995,-4.2827,-4.2693,-4.244,-4.218,-4.2324,-4.2426,-4.1913,-4.1561,-4.167,-4.1696,-4.176,-4.1782,-4.1803,-4.1739,-4.1512,-4.1328,-4.118,-4.1065,-4.0965,-4.0918,-4.0894,-4.0894,-4.0965,-4.0894,-4.0894,-4.0918,-4.0942,-4.0989,-4.0965,-4.0918,-4.0894,-4.0894,-4.0823,-4.0655,-4.0566,-5.5916,-5.5909,-5.5866,-5.5932,-5.6038,-5.5959,-5.5901,-5.5896,-5.5814,-5.576,-5.561,-5.5444,-5.5384,-5.5384,-5.5403,-5.5396,-5.5396,-5.5384,-5.5403,-5.5384,-5.5384,-5.539,-5.539,-5.5135,-5.4505,-5.3168,-5.2652,-5.1938,-5.0371,-5.0302,-5.0314,-5.0337,-5.0382,-5.0435,-5.0446,-5.0468,-5.0459,-5.0459,-5.0391,-5.0227,-4.9551,-4.9146,-4.8655,-4.7239,-4.6759,-4.6081,-4.5498,-4.5095,-4.4769,-4.4701,-4.4612,-4.4465,-4.4318,-4.4177,-4.4045,-4.386,-4.3699,-4.3548,-4.3566,-4.36,-4.3703,-4.3686,-4.3686,-4.3686,-4.3703,-4.3721,-4.3634,-4.36,-4.3583,-4.3566,-4.3479,-4.3513,-4.3392,-4.3304,-4.3142,-4.2995,-4.2693,-4.2559,-4.244,-4.2378,-4.2297,-4.23,-4.2157,-4.1948,-4.1739,-4.1828,-4.1516,-4.1192,-4.1209,-4.1209,-4.1163,-4.1163,-4.114,-4.1041,-4.0918,-4.0989,-4.1059,-4.1012,-4.0918,-4.0918,-4.0894,-4.0871,-4.0871,-4.0894,-4.0894,-4.0894,-4.0894,-4.0918,-4.0918,-4.0894,-4.0823,-4.068,-4.0311,-4.0137,-4.0104,-5.5702,-5.5683,-5.5572,-5.5702,-5.5932,-5.5788,-5.5711,-5.569,-5.5539,-5.5453,-5.5428,-5.5384,-5.5384,-5.539,-5.539,-5.539,-5.539,-5.539,-5.539,-5.539,-5.539,-5.539,-5.539,-5.5161,-5.4505,-5.3187,-5.2652,-5.1945,-5.0321,-5.0302,-5.0302,-5.0302,-5.0325,-5.0337,-5.0314,-5.0359,-5.0401,-5.0401,-5.0401,-5.0306,-5.0038,-4.9496,-4.8869,-4.803,-4.6967,-4.6171,-4.5555,-4.4794,-4.4462,-4.4397,-4.4313,-4.4188,-4.4033,-4.3986,-4.3846,-4.3582,-4.3531,-4.3496,-4.3496,-4.3496,-4.3532,-4.3549,-4.3566,-4.3566,-4.3513,-4.3513,-4.3531,-4.3513,-4.3513,-4.3496,-4.3479,-4.3462,-4.3304,-4.3087,-4.2938,-4.2614,-4.2338,-4.199,-4.1881,-4.1796,-4.199,-4.2136,-4.199,-4.1774,-4.1356,-4.1169,-4.0995,-4.0894,-4.0894,-4.0894,-4.0894,-4.0894,-4.0894,-4.0894,-4.0894,-4.0894,-4.0918,-4.0894,-4.0894,-4.0894,-4.0847,-4.0776,-4.0799,-4.0847,-4.0662,-4.0476,-4.0638,-4.0823,-4.059,-4.0353,-4.0461,-4.0313,-3.9935,-3.9662,-3.9653,-5.5504,-5.5493,-5.5458,-5.5485,-5.5588,-5.5538,-5.5501,-5.5497,-5.544,-5.539,-5.539,-5.539,-5.539,-5.539,-5.539,-5.539,-5.539,-5.539,-5.539,-5.539,-5.539,-5.539,-5.539,-5.5212,-5.4448,-5.3225,-5.2671,-5.1945,-5.0302,-5.0302,-5.0302,-5.0302,-5.0248,-5.0302,-5.0302,-5.0325,-5.0344,-5.0344,-5.0314,-5.0209,-4.9981,-4.9645,-4.9153,-4.8338,-4.7208,-4.6332,-4.5615,-4.4748,-4.4229,-4.4106,-4.4011,-4.3809,-4.3716,-4.3699,-4.3632,-4.3496,-4.3479,-4.3479,-4.3479,-4.3496,-4.3496,-4.3479,-4.3479,-4.3479,-4.3479,-4.3479,-4.3479,-4.3479,-4.3444,-4.3462,-4.3479,-4.3479,-4.3286,-4.2939,-4.2671,-4.2216,-4.1842,-4.1463,-4.1232,-4.1209,-4.1328,-4.1418,-4.1351,-4.1463,-4.1163,-4.1018,-4.0918,-4.0894,-4.0894,-4.0894,-4.0894,-4.0894,-4.0894,-4.0894,-4.0894,-4.0894,-4.0799,-4.071,-4.0799,-4.0894,-4.0823,-4.0541,-4.0444,-4.0353,-4.0187,-4.002,-4.007,-4.007,-3.9859,-3.9705,-3.9799,-3.9961,-3.9773,-3.9444,-3.9222,-5.539,-5.5396,-5.5396,-5.539,-5.5377,-5.539,-5.539,-5.5396,-5.5396,-5.539,-5.539,-5.539,-5.539,-5.539,-5.539,-5.539,-5.539,-5.539,-5.539,-5.539,-5.539,-5.539,-5.539,-5.5256,-5.4333,-5.3244,-5.2614,-5.1945,-5.0359,-5.0302,-5.0224,-5.0132,-5.012,-5.0012,-5.0012,-5.0,-5.012,-5.0063,-4.9981,-4.9798,-4.9669,-4.9471,-4.919,-4.8418,-4.7526,-4.671,-4.5733,-4.4848,-4.4089,-4.3876,-4.3649,-4.3479,-4.3479,-4.3479,-4.3479,-4.3479,-4.3479,-4.3479,-4.3479,-4.3479,-4.3479,-4.3479,-4.3479,-4.3479,-4.3479,-4.3479,-4.3479,-4.3462,-4.3375,-4.3304,-4.3286,-4.3268,-4.2902,-4.2536,-4.2236,-4.1756,-4.144,-4.1065,-4.0989,-4.0918,-4.0894,-4.0894,-4.0871,-4.0942,-4.0942,-4.0918,-4.0894,-4.0871,-4.0871,-4.0871,-4.0871,-4.0894,-4.0871,-4.0888,-4.0888,-4.0894,-4.0776,-4.0566,-4.0614,-4.0686,-4.0195,-3.98,-3.9817,-3.9808,-3.9542,-3.9325,-3.9315,-3.9236,-3.9156,-3.9119,-3.9152,-3.9286,-3.9487,-3.9142,-3.865,-5.539,-5.539,-5.539,-5.539,-5.5403,-5.5384,-5.5384,-5.5384,-5.5384,-5.539,-5.539,-5.539,-5.539,-5.539,-5.539,-5.539,-5.539,-5.539,-5.539,-5.539,-5.539,-5.539,-5.539,-5.5294,-5.4295,-5.3339,-5.2594,-5.1921,-5.0431,-5.0088,-4.9955,-4.9844,-4.9771,-4.9674,-4.9618,-4.9603,-4.973,-4.9702,-4.9599,-4.9439,-4.9317,-4.9268,-4.9022,-4.8435,-4.7779,-4.6973,-4.6059,-4.5182,-4.4375,-4.3916,-4.3551,-4.3497,-4.3479,-4.3479,-4.3479,-4.3479,-4.3479,-4.3479,-4.3479,-4.3479,-4.3479,-4.3479,-4.3445,-4.3462,-4.3462,-4.3427,-4.3339,-4.3232,-4.3087,-4.2957,-4.2863,-4.2537,-4.2198,-4.1927,-4.1692,-4.1373,-4.1088,-4.0918,-4.0918,-4.0894,-4.0888,-4.0864,-4.0823,-4.0847,-4.0799,-4.0776,-4.0776,-4.0776,-4.0776,-4.0823,-4.0847,-4.0871,-4.0871,-4.0864,-4.0864,-4.0799,-4.05,-4.0212,-4.0279,-4.0279,-3.9671,-3.9156,-3.9119,-3.9038,-3.8789,-3.8608,-3.8557,-3.8569,-3.8596,-3.8557,-3.8423,-3.8551,-3.8689,-3.8254,-3.7812,-5.539,-5.539,-5.539,-5.539,-5.539,-5.539,-5.539,-5.539,-5.539,-5.539,-5.539,-5.539,-5.539,-5.539,-5.539,-5.539,-5.539,-5.539,-5.539,-5.539,-5.539,-5.539,-5.539,-5.5243,-5.4244,-5.3327,-5.2519,-5.1771,-5.0252,-4.9757,-4.9613,-4.9468,-4.9453,-4.9345,-4.9237,-4.9142,-4.9271,-4.9333,-4.9237,-4.9129,-4.9001,-4.8951,-4.8746,-4.8347,-4.7794,-4.7095,-4.6563,-4.5461,-4.4727,-4.4378,-4.3754,-4.3516,-4.3479,-4.3479,-4.3479,-4.3479,-4.3479,-4.3479,-4.3479,-4.3479,-4.3462,-4.3375,-4.325,-4.3286,-4.3322,-4.3232,-4.3069,-4.292,-4.2674,-4.2476,-4.2358,-4.2095,-4.1799,-4.1578,-4.1378,-4.1192,-4.0942,-4.0823,-4.0823,-4.0823,-4.0817,-4.0752,-4.0728,-4.068,-4.0631,-4.0631,-4.0631,-4.0655,-4.068,-4.0728,-4.0752,-4.0799,-4.0752,-4.0704,-4.0673,-4.0607,-4.0204,-3.991,-3.9885,-3.962,-3.8951,-3.8513,-3.8435,-3.8266,-3.7994,-3.7867,-3.7767,-3.7809,-3.7879,-3.7738,-3.7623,-3.774,-3.777,-3.7447,-3.7252,-5.539,-5.539,-5.539,-5.539,-5.539,-5.539,-5.539,-5.539,-5.539,-5.539,-5.539,-5.539,-5.539,-5.539,-5.539,-5.539,-5.539,-5.539,-5.539,-5.539,-5.5358,-5.539,-5.539,-5.5094,-5.4074,-5.3141,-5.2197,-5.1391,-4.9967,-4.942,-4.9283,-4.9113,-4.9113,-4.9015,-4.8883,-4.8729,-4.8729,-4.8815,-4.8849,-4.8781,-4.8693,-4.8623,-4.8439,-4.8253,-4.7719,-4.748,-4.7076,-4.592,-4.5443,-4.4838,-4.4085,-4.3791,-4.3644,-4.3479,-4.3479,-4.3479,-4.3481,-4.3445,-4.3445,-4.3464,-4.3357,-4.3178,-4.2958,-4.2846,-4.2789,-4.2674,-4.2635,-4.2537,-4.2177,-4.1924,-4.1842,-4.1756,-4.1512,-4.1283,-4.1169,-4.1071,-4.0924,-4.0776,-4.0728,-4.0728,-4.068,-4.0631,-4.0583,-4.0534,-4.051,-4.0534,-4.0558,-4.0558,-4.0558,-4.0583,-4.0631,-4.0638,-4.0583,-4.0485,-4.0436,-4.0179,-3.9636,-3.9236,-3.9102,-3.8778,-3.8177,-3.7879,-3.7796,-3.7519,-3.7238,-3.7194,-3.7178,-3.7088,-3.7088,-3.6998,-3.6998,-3.7104,-3.7194,-3.7043,-3.6922,-5.539,-5.539,-5.539,-5.539,-5.539,-5.539,-5.539,-5.539,-5.539,-5.539,-5.539,-5.539,-5.539,-5.539,-5.539,-5.539,-5.539,-5.539,-5.539,-5.5358,-5.5273,-5.526,-5.5159,-5.4862,-5.3787,-5.2685,-5.1771,-5.1061,-4.9715,-4.9094,-4.8898,-4.8764,-4.8764,-4.8658,-4.8439,-4.8402,-4.8383,-4.8402,-4.8421,-4.8383,-4.8364,-4.8325,-4.8324,-4.8324,-4.814,-4.7957,-4.7406,-4.6856,-4.6397,-4.5351,-4.4581,-4.4251,-4.3719,-4.3427,-4.3444,-4.3427,-4.3375,-4.3376,-4.3376,-4.3376,-4.3123,-4.2883,-4.2635,-4.2342,-4.218,-4.2077,-4.2035,-4.1931,-4.1609,-4.1383,-4.1271,-4.1197,-4.1007,-4.0931,-4.0877,-4.0806,-4.0734,-4.0631,-4.0607,-4.0583,-4.0534,-4.0485,-4.0461,-4.0412,-4.0337,-4.0412,-4.0419,-4.0419,-4.0412,-4.0412,-4.0395,-4.0444,-4.0412,-4.0246,-3.991,-3.9568,-3.8914,-3.8557,-3.839,-3.7953,-3.7356,-3.7193,-3.7118,-3.6983,-3.6846,-3.6693,-3.6631,-3.6662,-3.6693,-3.6662,-3.6647,-3.6554,-3.6554,-3.6631,-3.6662,-5.539,-5.539,-5.539,-5.539,-5.539,-5.539,-5.539,-5.539,-5.539,-5.539,-5.539,-5.539,-5.539,-5.539,-5.539,-5.539,-5.539,-5.539,-5.539,-5.5227,-5.5113,-5.4962,-5.4889,-5.4519,-5.3449,-5.2403,-5.152,-5.0611,-4.9271,-4.8711,-4.855,-4.8458,-4.8458,-4.8363,-4.8247,-4.8228,-4.8189,-4.8111,-4.8111,-4.817,-4.8248,-4.8305,-4.8324,-4.8324,-4.8232,-4.8213,-4.7773,-4.7351,-4.6654,-4.5755,-4.4949,-4.4199,-4.3341,-4.3286,-4.3268,-4.3286,-4.3232,-4.3196,-4.3178,-4.3105,-4.2845,-4.2519,-4.2221,-4.1807,-4.1525,-4.1415,-4.1321,-4.123,-4.1111,-4.0896,-4.0748,-4.0686,-4.0607,-4.0607,-4.0583,-4.0558,-4.0534,-4.051,-4.0485,-4.0436,-4.0404,-4.0379,-4.0337,-4.0288,-4.0213,-4.0196,-4.0171,-4.0171,-4.0096,-4.0096,-4.0054,-4.0079,-4.0213,-4.0045,-3.9558,-3.9076,-3.8502,-3.7953,-3.7679,-3.7178,-3.6616,-3.6693,-3.68,-3.6662,-3.6554,-3.6492,-3.6492,-3.6523,-3.6523,-3.6492,-3.6492,-3.6492,-3.6492,-3.6554,-3.6554,-5.539,-5.539,-5.539,-5.539,-5.539,-5.539,-5.539,-5.539,-5.539,-5.539,-5.539,-5.539,-5.539,-5.539,-5.539,-5.539,-5.539,-5.539,-5.5181,-5.4985,-5.4821,-5.4632,-5.4406,-5.4101,-5.2928,-5.1868,-5.0504,-4.9417,-4.8624,-4.8439,-4.8305,-4.8286,-4.8286,-4.8228,-4.8187,-4.813,-4.807,-4.8012,-4.7992,-4.8052,-4.819,-4.8228,-4.8286,-4.8305,-4.8306,-4.8287,-4.8195,-4.7772,-4.7203,-4.6213,-4.5242,-4.4163,-4.3451,-4.3233,-4.3214,-4.3123,-4.3013,-4.2844,-4.2788,-4.2655,-4.24,-4.1994,-4.1682,-4.1218,-4.0873,-4.0772,-4.0802,-4.0724,-4.0772,-4.0621,-4.0621,-4.0558,-4.0558,-4.0534,-4.0461,-4.0387,-4.0337,-4.0271,-4.0288,-4.0263,-4.0238,-4.0238,-4.0196,-4.0188,-4.0121,-4.002,-4.0003,-3.9705,-3.967,-3.9618,-3.9627,-3.9662,-3.9756,-3.9497,-3.8957,-3.8557,-3.8193,-3.7634,-3.7088,-3.6831,-3.6554,-3.6523,-3.6492,-3.6492,-3.6492,-3.6492,-3.6492,-3.6492,-3.6492,-3.6492,-3.6492,-3.6492,-3.6492,-3.6492,-3.6429,-5.539,-5.539,-5.539,-5.539,-5.539,-5.539,-5.539,-5.539,-5.539,-5.5345,-5.5241,-5.5273,-5.5319,-5.5377,-5.5358,-5.5358,-5.53,-5.5154,-5.4909,-5.4708,-5.4468,-5.4221,-5.3923,-5.3514,-5.2418,-5.0989,-4.947,-4.8802,-4.8228,-4.8187,-4.8189,-4.8229,-4.8208,-4.8168,-4.8128,-4.8068,-4.797,-4.7929,-4.7929,-4.7951,-4.8012,-4.809,-4.8189,-4.8229,-4.8249,-4.8267,-4.8229,-4.808,-4.7692,-4.6739,-4.5513,-4.4617,-4.3922,-4.3666,-4.3338,-4.3242,-4.2801,-4.2553,-4.2272,-4.2011,-4.1583,-4.118,-4.0961,-4.072,-4.0395,-4.0288,-4.0337,-4.0345,-4.0419,-4.0419,-4.0419,-4.0419,-4.0419,-4.0436,-4.0313,-4.0255,-4.0188,-4.0121,-4.0138,-4.0138,-4.0113,-4.0096,-4.0096,-4.0096,-3.9944,-3.985,-3.9601,-3.9295,-3.9055,-3.8957,-3.8914,-3.9022,-3.9146,-3.8794,-3.8294,-3.8096,-3.7838,-3.7252,-3.6754,-3.6616,-3.6492,-3.6492,-3.6492,-3.6492,-3.6492,-3.6492,-3.6492,-3.6492,-3.6492,-3.6492,-3.6492,-3.6492,-3.6492,-3.646,-3.6367,-5.539,-5.539,-5.539,-5.539,-5.5358,-5.5358,-5.539,-5.539,-5.5345,-5.52,-5.4847,-5.4764,-5.4905,-5.5216,-5.5248,-5.5162,-5.4976,-5.4821,-5.4697,-5.4519,-5.3995,-5.3702,-5.334,-5.2858,-5.1909,-5.0508,-4.9044,-4.8254,-4.8068,-4.805,-4.807,-4.8072,-4.807,-4.8028,-4.7963,-4.7922,-4.7884,-4.7824,-4.7804,-4.7824,-4.7907,-4.7988,-4.8032,-4.8034,-4.8052,-4.8052,-4.8034,-4.8052,-4.7557,-4.677,-4.5871,-4.5154,-4.4598,-4.418,-4.3801,-4.3337,-4.2871,-4.2339,-4.2027,-4.17,-4.1296,-4.0849,-4.0689,-4.0587,-4.032,-4.0163,-4.0171,-4.0171,-4.0221,-4.0221,-4.0221,-4.0221,-4.0221,-4.0221,-4.0163,-4.0163,-4.0138,-4.0096,-4.0113,-4.0113,-4.0113,-4.0096,-4.007,-3.9876,-3.947,-3.9269,-3.8876,-3.8574,-3.8463,-3.8334,-3.8193,-3.8306,-3.8446,-3.8153,-3.7679,-3.7725,-3.7447,-3.6877,-3.6492,-3.6492,-3.6492,-3.6492,-3.6492,-3.6492,-3.6492,-3.6492,-3.6492,-3.6492,-3.6492,-3.6492,-3.6492,-3.6492,-3.6492,-3.6289,-3.6053]},{"header":{"parameterUnit":"m.s-1","parameterCategory":1,"la1":31.0,"la2":29.5877,"lo1":-88.7671,"lo2":-86.6584,"dy":0.0162,"dx":0.0185,"nx":115,"ny":88,"refTime":"2023-09-20T18:00:00:Z","depth":0,"parameterNumber":3,"parameterNumberName":"V-component_of_WINDS"},"data":[0.0,0.0,0.0,0.0,0.0,0.0,0.0,0.0,0.0,0.0,0.0,0.0,0.0,0.0,0.0,0.0,0.0,0.0,0.0,0.0,0.0,0.0,0.0,0.0,0.0,0.0,0.0,0.0,0.0,0.0,0.0,0.0,0.0,0.0,0.0,0.0,0.0,0.0,0.0,0.0,0.0,0.0,0.0,0.0,0.0,0.0,0.0,0.0,0.0,0.0,0.0,0.0,0.0,0.0,0.0,0.0,0.0,0.0,0.0,0.0,0.0,0.0,0.0,0.0,0.0,0.0,0.0,0.0,0.0,0.0,0.0,0.0,0.0,0.0,0.0,0.0,0.0,0.0,0.0,0.0,0.0,0.0,0.0,0.0,0.0,0.0,0.0,0.0,0.0,0.0,0.0,0.0,0.0,0.0,0.0,0.0,0.0,0.0,0.0,0.0,0.0,0.0,0.0,0.0,0.0,0.0,0.0,0.0,0.0,0.0,0.0,0.0,0.0,0.0,0.0,0.0,0.0,0.0,0.0,0.0,0.0,0.0,0.0,0.0,0.0,0.0,0.0,0.0,0.0,0.0,0.0,0.0,0.0,0.0,0.0,0.0,0.0,0.0,0.0,0.0,0.0,0.0,0.0,0.0,0.0,0.0,0.0,0.0,0.0,0.0,0.0,0.0,0.0,0.0,0.0,0.0,0.0,0.0,0.0,0.0,0.0,0.0,0.0,0.0,0.0,0.0,0.0,0.0,0.0,0.0,0.0,0.0,0.0,0.0,0.0,0.0,0.0,0.0,0.0,0.0,0.0,0.0,0.0,0.0,0.0,0.0,0.0,0.0,0.0,0.0,0.0,0.0,0.0,0.0,0.0,0.0,0.0,0.0,0.0,0.0,0.0,0.0,0.0,0.0,0.0,0.0,0.0,0.0,0.0,0.0,0.0,0.0,0.0,0.0,0.0,0.0,0.0,0.0,0.0,0.0,0.0,0.0,0.0,0.0,0.0,0.0,0.0,0.0,0.0,0.0,0.0,0.0,0.0,0.0,0.0,0.0,0.0,0.0,0.0,0.0,0.0,0.0,0.0,0.0,0.0,0.0,0.0,0.0,0.0,0.0,0.0,0.0,0.0,0.0,0.0,0.0,0.0,0.0,0.0,0.0,0.0,0.0,0.0,0.0,0.0,0.0,0.0,0.0,0.0,0.0,0.0,0.0,0.0,0.0,0.0,0.0,0.0,0.0,0.0,0.0,0.0,0.0,0.0,0.0,0.0,0.0,0.0,0.0,0.0,0.0,0.0,0.0,0.0,0.0,0.0,0.0,0.0,0.0,0.0,0.0,0.0,0.0,0.0,0.0,0.0,0.0,0.0,0.0,0.0,0.0,0.0,0.0,0.0,0.0,0.0,0.0,0.0,0.0,0.0,0.0,0.0,0.0,0.0,0.0,0.0,0.0,0.0,0.0,0.0,0.0,0.0,0.0,0.0,0.0,0.0,0.0,0.0,0.0,0.0,0.0,0.0,0.0,0.0,0.0,0.0,0.0,0.0,0.0,0.0,0.0,0.0,0.0,0.0,0.0,0.0,0.0,0.0,0.0,0.0,0.0,0.0,0.0,0.0,0.0,0.0,0.0,0.0,0.0,0.0,0.0,0.0,0.0,0.0,0.0,0.0,0.0,0.0,0.0,0.0,0.0,0.0,0.0,0.0,0.0,0.0,0.0,0.0,0.0,0.0,0.0,0.0,0.0,0.0,0.0,0.0,0.0,0.0,0.0,0.0,0.0,0.0,0.0,0.0,0.0,0.0,0.0,0.0,0.0,0.0,0.0,0.0,0.0,0.0,0.0,0.0,0.0,0.0,0.0,0.0,0.0,0.0,0.0,0.0,0.0,0.0,0.0,0.0,0.0,0.0,0.0,0.0,0.0,0.0,0.0,0.0,0.0,0.0,0.0,0.0,0.0,0.0,0.0,0.0,0.0,0.0,0.0,0.0,0.0,0.0,0.0,0.0,0.0,0.0,0.0,0.0,0.0,0.0,0.0,0.0,0.0,0.0,0.0,0.0,0.0,0.0,0.0,0.0,0.0,0.0,0.0,0.0,0.0,0.0,0.0,0.0,0.0,0.0,0.0,0.0,0.0,0.0,0.0,0.0,0.0,0.0,0.0,0.0,0.0,0.0,0.0,0.0,0.0,0.0,0.0,0.0,0.0,0.0,0.0,0.0,0.0,0.0,0.0,0.0,0.0,0.0,0.0,0.0,0.0,0.0,0.0,0.0,0.0,0.0,0.0,0.0,0.0,0.0,0.0,0.0,0.0,0.0,0.0,0.0,0.0,0.0,0.0,0.0,0.0,0.0,0.0,0.0,0.0,0.0,0.0,0.0,0.0,0.0,0.0,0.0,0.0,0.0,0.0,0.0,0.0,0.0,0.0,0.0,0.0,0.0,0.0,0.0,0.0,0.0,0.0,0.0,0.0,0.0,0.0,0.0,0.0,0.0,0.0,0.0,0.0,0.0,0.0,0.0,0.0,0.0,0.0,0.0,0.0,0.0,0.0,0.0,0.0,0.0,0.0,0.0,0.0,0.0,0.0,0.0,0.0,0.0,0.0,0.0,0.0,0.0,0.0,0.0,0.0,0.0,0.0,0.0,0.0,0.0,0.0,0.0,0.0,0.0,0.0,0.0,0.0,0.0,0.0,0.0,0.0,0.0,0.0,0.0,0.0,0.0,0.0,0.0,0.0,0.0,0.0,0.0,0.0,0.0,0.0,0.0,0.0,0.0,0.0,0.0,0.0,0.0,0.0,0.0,0.0,0.0,0.0,0.0,0.0,0.0,0.0,0.0,0.0,0.0,0.0,0.0,0.0,0.0,0.0,0.0,0.0,0.0,0.0,0.0,0.0,0.0,0.0,0.0,0.0,0.0,0.0,0.0,0.0,0.0,0.0,0.0,0.0,0.0,0.0,0.0,0.0,0.0,0.0,0.0,0.0,0.0,0.0,0.0,0.0,0.0,0.0,0.0,0.0,0.0,0.0,0.0,0.0,0.0,0.0,0.0,0.0,0.0,0.0,0.0,0.0,0.0,0.0,0.0,0.0,0.0,0.0,0.0,0.0,0.0,0.0,0.0,0.0,0.0,0.0,0.0,0.0,0.0,0.0,0.0,0.0,0.0,0.0,0.0,0.0,0.0,0.0,0.0,0.0,0.0,0.0,0.0,0.0,0.0,0.0,0.0,0.0,0.0,0.0,0.0,0.0,0.0,0.0,0.0,0.0,0.0,0.0,0.0,0.0,0.0,0.0,0.0,0.0,0.0,0.0,0.0,0.0,0.0,0.0,0.0,0.0,0.0,0.0,0.0,0.0,0.0,0.0,0.0,0.0,0.0,0.0,0.0,0.0,0.0,0.0,0.0,0.0,0.0,0.0,0.0,0.0,0.0,0.0,0.0,0.0,0.0,0.0,0.0,0.0,0.0,0.0,0.0,0.0,0.0,0.0,0.0,0.0,0.0,0.0,0.0,0.0,0.0,0.0,0.0,0.0,0.0,0.0,0.0,0.0,0.0,0.0,0.0,0.0,0.0,0.0,0.0,0.0,0.0,0.0,0.0,0.0,0.0,0.0,0.0,0.0,0.0,0.0,0.0,0.0,0.0,0.0,0.0,0.0,0.0,0.0,0.0,0.0,0.0,0.0,0.0,0.0,0.0,0.0,0.0,0.0,0.0,0.0,0.0,0.0,0.0,0.0,0.0,0.0,0.0,0.0,0.0,0.0,0.0,0.0,0.0,0.0,0.0,0.0,0.0,0.0,0.0,0.0,0.0,0.0,0.0,0.0,0.0,0.0,0.0,0.0,0.0,0.0,0.0,0.0,0.0,0.0,0.0,0.0,0.0,0.0,0.0,0.0,0.0,0.0,0.0,0.0,0.0,0.0,0.0,0.0,0.0,0.0,0.0,0.0,0.0,0.0,0.0,0.0,0.0,0.0,0.0,0.0,0.0,0.0,0.0,0.0,0.0,0.0,0.0,0.0,0.0,0.0,0.0,0.0,0.0,0.0,0.0,0.0,0.0,0.0,0.0,0.0,0.0,0.0,0.0,0.0,0.0,0.0,0.0,0.0,0.0,0.0,0.0,0.0,0.0,0.0,0.0,0.0,0.0,0.0,0.0,0.0,0.0,0.0,0.0,0.0,0.0,0.0,0.0,0.0,0.0,0.0,0.0,0.0,0.0,0.0,0.0,0.0,0.0,0.0,0.0,0.0,0.0,0.0,0.0,0.0,0.0,0.0,0.0,0.0,-0.3138,0.0,0.0,0.0,0.0,0.0,0.0,0.0,0.0,0.0,0.0,0.0,0.0,0.0,0.0,0.0,0.0,0.0,0.0,0.0,0.0,0.0,0.0,0.0,0.0,0.0,0.0,0.0,0.0,0.0,0.0,0.0,0.0,0.0,0.0,0.0,0.0,0.0,0.0,0.0,0.0,0.0,0.0,0.0,0.0,0.0,0.0,0.0,0.0,0.0,0.0,0.0,0.0,0.0,0.0,0.0,0.0,0.0,0.0,0.0,0.0,0.0,0.0,0.0,0.0,0.0,0.0,0.0,0.0,0.0,0.0,0.0,0.0,0.0,0.0,0.0,0.0,0.0,0.0,0.0,0.0,0.0,0.0,0.0,0.0,0.0,0.0,0.0,0.0,0.0,0.0,0.0,0.0,0.0,0.0,0.0,0.0,0.0,0.0,0.0,0.0,0.0,0.0,0.0,0.0,0.0,0.0,0.0,0.0,0.0,0.0,-0.4619,-0.4099,-0.3669,-0.3442,-0.3375,0.0,0.0,0.0,0.0,0.0,0.0,0.0,0.0,0.0,0.0,0.0,0.0,0.0,0.0,0.0,0.0,0.0,0.0,0.0,0.0,0.0,0.0,0.0,0.0,0.0,0.0,0.0,0.0,0.0,0.0,0.0,0.0,0.0,0.0,0.0,0.0,0.0,0.0,0.0,0.0,0.0,0.0,0.0,0.0,0.0,0.0,0.0,0.0,0.0,0.0,0.0,0.0,0.0,0.0,0.0,0.0,0.0,0.0,0.0,0.0,0.0,0.0,0.0,0.0,0.0,0.0,0.0,0.0,0.0,0.0,0.0,0.0,0.0,0.0,0.0,0.0,0.0,0.0,0.0,0.0,0.0,0.0,0.0,0.0,0.0,0.0,0.0,0.0,0.0,0.0,0.0,0.0,0.0,0.0,0.0,0.0,0.0,0.0,0.0,0.0,0.0,0.0,0.0,0.0,0.0,0.0,0.0,0.0,0.0,0.0,0.0,0.0,-0.3994,-0.3689,-0.36,0.0,0.0,0.0,0.0,0.0,0.0,0.0,0.0,0.0,0.0,0.0,0.0,0.0,0.0,0.0,0.0,0.0,0.0,0.0,0.0,0.0,0.0,0.0,0.0,0.0,0.0,0.0,0.0,0.0,0.0,0.0,0.0,0.0,0.0,0.0,0.0,0.0,0.0,0.0,0.0,0.0,0.0,0.0,0.0,0.0,0.0,0.0,0.0,0.0,0.0,0.0,0.0,0.0,0.0,0.0,0.0,0.0,0.0,0.0,0.0,0.0,0.0,0.0,0.0,0.0,0.0,0.0,0.0,0.0,0.0,0.0,0.0,0.0,0.0,0.0,0.0,0.0,0.0,0.0,0.0,0.0,0.0,0.0,0.0,0.0,0.0,0.0,0.0,0.0,0.0,0.0,0.0,0.0,0.0,0.0,0.0,0.0,0.0,0.0,0.0,0.0,0.0,0.0,0.0,0.0,0.0,0.0,0.0,0.0,0.0,-0.5507,-0.5036,-0.4495,0.0,-0.3622,0.0,0.0,0.0,0.0,0.0,0.0,0.0,0.0,0.0,0.0,0.0,0.0,0.0,0.0,0.0,0.0,0.0,0.0,0.0,0.0,0.0,0.0,0.0,0.0,0.0,0.0,0.0,0.0,0.0,0.0,0.0,0.0,0.0,0.0,0.0,0.0,0.0,0.0,0.0,0.0,0.0,0.0,0.0,0.0,0.0,0.0,0.0,0.0,0.0,0.0,0.0,0.0,0.0,0.0,0.0,0.0,0.0,0.0,0.0,0.0,0.0,0.0,0.0,0.0,0.0,0.0,0.0,0.0,0.0,0.0,0.0,0.0,0.0,0.0,0.0,0.0,0.0,0.0,0.0,0.0,0.0,0.0,0.0,0.0,0.0,0.0,0.0,0.0,0.0,0.0,0.0,0.0,0.0,0.0,0.0,0.0,0.0,0.0,0.0,0.0,0.0,0.0,0.0,0.0,0.0,0.0,0.0,0.0,0.0,0.0,-0.575,-0.5101,-0.4298,-0.3777,0.0,0.0,0.0,0.0,0.0,0.0,0.0,0.0,0.0,0.0,0.0,0.0,0.0,0.0,0.0,0.0,0.0,0.0,0.0,0.0,0.0,0.0,0.0,0.0,0.0,0.0,0.0,0.0,0.0,0.0,0.0,0.0,0.0,0.0,0.0,0.0,0.0,0.0,0.0,0.0,0.0,0.0,0.0,0.0,0.0,0.0,0.0,0.0,0.0,0.0,0.0,0.0,0.0,0.0,0.0,0.0,0.0,0.0,0.0,0.0,0.0,0.0,0.0,0.0,0.0,0.0,0.0,0.0,0.0,0.0,0.0,0.0,0.0,0.0,0.0,0.0,0.0,0.0,0.0,0.0,0.0,0.0,0.0,0.0,0.0,0.0,0.0,0.0,0.0,0.0,0.0,0.0,0.0,0.0,0.0,0.0,0.0,0.0,0.0,0.0,0.0,0.0,0.0,0.0,0.0,0.0,0.0,0.0,0.0,0.0,-0.6483,-0.5894,-0.5096,-0.4126,-0.36,-0.36,0.0,0.0,0.0,0.0,0.0,0.0,0.0,0.0,0.0,0.0,0.0,0.0,0.0,0.0,0.0,0.0,0.0,0.0,0.0,0.0,0.0,0.0,0.0,0.0,0.0,0.0,0.0,0.0,0.0,0.0,0.0,0.0,0.0,0.0,0.0,0.0,0.0,0.0,0.0,0.0,0.0,0.0,0.0,0.0,0.0,0.0,0.0,0.0,0.0,0.0,0.0,0.0,0.0,0.0,0.0,0.0,0.0,0.0,0.0,0.0,0.0,0.0,0.0,0.0,0.0,0.0,0.0,0.0,0.0,0.0,0.0,0.0,0.0,0.0,0.0,0.0,0.0,0.0,0.0,0.0,0.0,0.0,0.0,0.0,0.0,0.0,0.0,0.0,0.0,0.0,0.0,0.0,0.0,0.0,0.0,0.0,0.0,0.0,0.0,0.0,0.0,0.0,0.0,0.0,0.0,0.0,0.0,0.0,-0.6708,-0.6547,-0.6002,-0.5005,-0.4104,-0.36,0.0,0.0,0.0,0.0,0.0,0.0,0.0,0.0,0.0,0.0,0.0,0.0,0.0,0.0,0.0,0.0,0.0,0.0,0.0,0.0,0.0,0.0,0.0,0.0,0.0,0.0,0.0,0.0,0.0,0.0,0.0,0.0,0.0,0.0,0.0,0.0,0.0,0.0,0.0,0.0,0.0,0.0,0.0,0.0,0.0,0.0,0.0,0.0,0.0,0.0,0.0,0.0,0.0,0.0,0.0,0.0,0.0,0.0,0.0,0.0,0.0,0.0,0.0,0.0,0.0,0.0,0.0,0.0,0.0,0.0,0.0,0.0,0.0,0.0,0.0,0.0,0.0,0.0,0.0,0.0,0.0,0.0,0.0,0.0,0.0,0.0,0.0,0.0,0.0,0.0,0.0,0.0,0.0,0.0,0.0,0.0,0.0,0.0,0.0,0.0,0.0,0.0,0.0,0.0,0.0,0.0,0.0,0.0,0.0,-0.6243,-0.5524,-0.4978,-0.4609,-0.3946,-0.3619,0.0,0.0,0.0,0.0,0.0,0.0,0.0,0.0,0.0,0.0,0.0,0.0,0.0,0.0,0.0,0.0,0.0,0.0,0.0,0.0,0.0,0.0,0.0,0.0,0.0,0.0,0.0,0.0,0.0,0.0,0.0,0.0,0.0,0.0,0.0,0.0,0.0,0.0,0.0,0.0,0.0,0.0,0.0,0.0,0.0,0.0,0.0,0.0,0.0,0.0,0.0,0.0,0.0,0.0,0.0,0.0,0.0,0.0,0.0,0.0,0.0,0.0,0.0,0.0,0.0,0.0,0.0,0.0,0.0,0.0,0.0,0.0,0.0,0.0,0.0,0.0,0.0,0.0,0.0,0.0,0.0,0.0,0.0,0.0,0.0,0.0,0.0,0.0,0.0,0.0,0.0,0.0,0.0,0.0,0.0,0.0,0.0,0.0,0.0,0.0,0.0,0.0,0.0,0.0,0.0,0.0,0.0,0.0,0.0,-0.591,0.0,-0.4391,-0.4351,-0.3858,-0.3622,0.0,0.0,0.0,0.0,0.0,0.0,0.0,0.0,0.0,0.0,0.0,0.0,0.0,0.0,0.0,0.0,0.0,0.0,0.0,0.0,0.0,0.0,0.0,0.0,0.0,0.0,0.0,0.0,0.0,0.0,0.0,0.0,0.0,0.0,0.0,0.0,0.0,0.0,0.0,0.0,0.0,0.0,0.0,0.0,0.0,0.0,0.0,0.0,0.0,0.0,0.0,0.0,0.0,0.0,0.0,0.0,0.0,0.0,0.0,0.0,0.0,0.0,0.0,0.0,0.0,0.0,0.0,0.0,0.0,0.0,0.0,0.0,0.0,0.0,0.0,0.0,0.0,0.0,0.0,0.0,0.0,0.0,0.0,0.0,0.0,0.0,0.0,0.0,0.0,0.0,0.0,0.0,0.0,0.0,0.0,0.0,0.0,0.0,0.0,0.0,0.0,0.0,0.0,0.0,0.0,0.0,0.0,0.0,-0.6175,-0.569,-0.4823,-0.4346,-0.428,-0.3843,-0.36,0.0,0.0,0.0,0.0,0.0,0.0,0.0,0.0,0.0,0.0,0.0,0.0,0.0,0.0,0.0,0.0,0.0,0.0,0.0,0.0,0.0,0.0,0.0,0.0,0.0,0.0,0.0,0.0,0.0,0.0,0.0,0.0,0.0,0.0,0.0,0.0,0.0,0.0,0.0,0.0,0.0,0.0,0.0,0.0,0.0,0.0,0.0,0.0,0.0,0.0,0.0,0.0,0.0,0.0,0.0,0.0,0.0,0.0,0.0,0.0,0.0,0.0,0.0,0.0,0.0,0.0,0.0,0.0,0.0,0.0,0.0,0.0,0.0,0.0,0.0,0.0,0.0,0.0,0.0,0.0,0.0,0.0,0.0,0.0,0.0,0.0,0.0,0.0,0.0,0.0,0.0,0.0,0.0,0.0,0.0,0.0,0.0,0.0,0.0,0.0,0.0,0.0,0.0,0.0,0.0,0.0,0.0,0.0,0.0,-0.5771,-0.4574,-0.3928,-0.3966,-0.3719,-0.3619,0.0,0.0,0.0,0.0,0.0,0.0,0.0,0.0,0.0,0.0,0.0,0.0,0.0,0.0,0.0,0.0,0.0,0.0,0.0,0.0,0.0,0.0,0.0,0.0,0.0,0.0,0.0,0.0,0.0,0.0,0.0,0.0,0.0,0.0,0.0,0.0,0.0,0.0,0.0,0.0,0.0,0.0,0.0,0.0,0.0,0.0,0.0,0.0,0.0,0.0,0.0,0.0,0.0,0.0,0.0,0.0,0.0,0.0,0.0,0.0,0.0,0.0,0.0,0.0,0.0,0.0,0.0,0.0,0.0,0.0,0.0,0.0,0.0,0.0,0.0,0.0,0.0,0.0,0.0,0.0,0.0,0.0,0.0,0.0,0.0,0.0,0.0,0.0,0.0,0.0,0.0,0.0,0.0,0.0,0.0,0.0,0.0,0.0,0.0,0.0,0.0,0.0,0.0,0.0,0.0,0.0,0.0,0.0,0.0,-0.6168,-0.4864,-0.4058,-0.3873,-0.3846,-0.3767,-0.367,0.0,0.0,0.0,0.0,0.0,0.0,0.0,0.0,0.0,0.0,0.0,0.0,0.0,0.0,0.0,0.0,0.0,0.0,0.0,0.0,0.0,0.0,0.0,0.0,0.0,0.0,0.0,0.0,0.0,0.0,0.0,0.0,0.0,0.0,0.0,0.0,0.0,0.0,0.0,0.0,0.0,0.0,0.0,0.0,0.0,0.0,0.0,0.0,0.0,0.0,0.0,0.0,0.0,0.0,0.0,0.0,0.0,0.0,0.0,0.0,0.0,0.0,0.0,0.0,0.0,0.0,0.0,0.0,0.0,0.0,0.0,0.0,0.0,0.0,0.0,0.0,0.0,0.0,0.0,0.0,0.0,0.0,0.0,0.0,0.0,0.0,0.0,0.0,0.0,0.0,0.0,0.0,0.0,0.0,0.0,0.0,0.0,0.0,0.0,0.0,0.0,0.0,0.0,0.0,0.0,0.0,0.0,0.0,-0.6877,-0.5614,-0.4679,-0.4094,-0.4173,-0.4038,0.0,0.0,0.0,0.0,0.0,0.0,0.0,0.0,0.0,0.0,0.0,0.0,0.0,0.0,0.0,0.0,0.0,0.0,0.0,0.0,0.0,0.0,0.0,0.0,0.0,0.0,0.0,0.0,0.0,0.0,0.0,0.0,0.0,0.0,0.0,0.0,0.0,0.0,0.0,0.0,0.0,0.0,0.0,0.0,0.0,0.0,0.0,0.0,0.0,0.0,0.0,0.0,0.0,0.0,0.0,0.0,0.0,0.0,0.0,0.0,0.0,0.0,0.0,0.0,0.0,0.0,0.0,0.0,0.0,0.0,0.0,0.0,0.0,0.0,0.0,0.0,0.0,0.0,0.0,0.0,0.0,0.0,0.0,0.0,0.0,0.0,0.0,0.0,0.0,0.0,0.0,0.0,0.0,0.0,0.0,0.0,0.0,0.0,0.0,0.0,0.0,0.0,0.0,0.0,0.0,0.0,0.0,0.0,0.0,-0.641,-0.5979,-0.5468,-0.484,-0.4558,-0.4378,0.0,0.0,0.0,0.0,0.0,0.0,0.0,0.0,0.0,0.0,0.0,0.0,0.0,0.0,0.0,0.0,0.0,0.0,0.0,0.0,0.0,0.0,0.0,0.0,0.0,0.0,0.0,0.0,0.0,0.0,0.0,0.0,0.0,0.0,0.0,0.0,0.0,0.0,0.0,0.0,0.0,0.0,0.0,0.0,0.0,0.0,0.0,0.0,0.0,0.0,0.0,0.0,0.0,0.0,0.0,0.0,0.0,0.0,0.0,0.0,0.0,0.0,0.0,0.0,0.0,0.0,0.0,0.0,0.0,0.0,0.0,0.0,0.0,0.0,0.0,0.0,0.0,0.0,0.0,0.0,0.0,0.0,0.0,0.0,0.0,0.0,0.0,0.0,0.0,0.0,0.0,0.0,0.0,0.0,0.0,0.0,0.0,0.0,0.0,0.0,0.0,0.0,0.0,0.0,0.0,0.0,0.0,0.0,-0.7047,-0.6213,-0.6207,-0.6008,-0.5606,-0.5047,-0.4679,0.0,0.0,0.0,0.0,0.0,0.0,0.0,0.0,0.0,0.0,0.0,0.0,0.0,0.0,0.0,0.0,0.0,0.0,0.0,0.0,0.0,0.0,0.0,0.0,0.0,0.0,0.0,0.0,0.0,0.0,0.0,0.0,0.0,0.0,0.0,0.0,0.0,0.0,0.0,0.0,0.0,0.0,0.0,0.0,0.0,0.0,0.0,0.0,0.0,0.0,0.0,0.0,0.0,0.0,0.0,0.0,0.0,0.0,0.0,0.0,0.0,0.0,0.0,0.0,0.0,0.0,0.0,0.0,0.0,0.0,0.0,0.0,0.0,0.0,0.0,0.0,0.0,0.0,0.0,0.0,0.0,0.0,0.0,0.0,0.0,0.0,0.0,0.0,0.0,0.0,0.0,0.0,0.0,0.0,0.0,0.0,0.0,0.0,0.0,0.0,0.0,0.0,0.0,0.0,0.0,0.0,0.0,0.0,-0.6881,-0.6207,-0.6257,-0.6296,-0.6318,-0.5542,-0.4965,0.0,0.0,0.0,0.0,0.0,0.0,0.0,0.0,0.0,0.0,0.0,0.0,0.0,0.0,0.0,0.0,0.0,0.0,0.0,0.0,0.0,0.0,0.0,0.0,0.0,0.0,0.0,0.0,0.0,0.0,0.0,0.0,0.0,0.0,0.0,0.0,0.0,0.0,0.0,0.0,0.0,0.0,0.0,0.0,0.0,0.0,0.0,0.0,0.0,0.0,0.0,0.0,0.0,0.0,0.0,0.0,0.0,0.0,0.0,0.0,0.0,0.0,0.0,0.0,0.0,0.0,0.0,0.0,0.0,0.0,0.0,0.0,0.0,0.0,0.0,0.0,0.0,0.0,0.0,0.0,0.0,0.0,0.0,0.0,0.0,0.0,0.0,0.0,0.0,0.0,0.0,0.0,0.0,0.0,0.0,0.0,0.0,0.0,0.0,0.0,0.0,0.0,0.0,0.0,0.0,0.0,0.0,0.0,-0.6441,-0.6139,-0.6221,-0.6374,-0.6525,-0.5783,-0.5303,0.0,0.0,0.0,0.0,0.0,0.0,0.0,0.0,0.0,0.0,0.0,0.0,0.0,0.0,0.0,0.0,0.0,0.0,0.0,0.0,0.0,0.0,0.0,0.0,0.0,0.0,0.0,0.0,0.0,0.0,0.0,0.0,0.0,0.0,0.0,0.0,0.0,0.0,0.0,0.0,0.0,0.0,0.0,0.0,0.0,0.0,0.0,0.0,-1.0442,0.0,0.0,0.0,0.0,0.0,0.0,0.0,0.0,0.0,0.0,0.0,0.0,0.0,0.0,0.0,0.0,0.0,0.0,0.0,0.0,0.0,0.0,0.0,0.0,0.0,0.0,0.0,0.0,0.0,0.0,0.0,0.0,0.0,0.0,0.0,0.0,0.0,0.0,0.0,0.0,0.0,0.0,0.0,0.0,0.0,0.0,0.0,0.0,0.0,0.0,0.0,0.0,0.0,0.0,0.0,0.0,0.0,0.0,0.0,-0.6173,-0.5982,-0.6177,-0.6377,-0.6433,-0.5882,-0.5539,0.0,0.0,0.0,0.0,0.0,0.0,0.0,0.0,0.0,0.0,0.0,0.0,0.0,0.0,0.0,0.0,0.0,0.0,0.0,0.0,0.0,0.0,0.0,0.0,0.0,0.0,0.0,0.0,0.0,0.0,0.0,0.0,0.0,0.0,0.0,0.0,0.0,0.0,0.0,0.0,0.0,0.0,0.0,0.0,0.0,0.0,0.0,0.0,0.0,0.0,0.0,0.0,0.0,0.0,0.0,0.0,0.0,0.0,0.0,0.0,0.0,0.0,0.0,0.0,0.0,0.0,0.0,0.0,0.0,0.0,0.0,0.0,0.0,0.0,0.0,0.0,0.0,0.0,0.0,0.0,0.0,0.0,0.0,0.0,0.0,0.0,0.0,0.0,0.0,0.0,0.0,0.0,0.0,0.0,0.0,0.0,0.0,0.0,0.0,0.0,0.0,0.0,0.0,0.0,0.0,0.0,0.0,-0.6387,-0.6096,-0.5971,-0.6197,-0.6334,-0.6369,-0.6013,-0.5664,-0.5405,0.0,0.0,0.0,0.0,0.0,0.0,0.0,0.0,0.0,0.0,0.0,0.0,0.0,0.0,0.0,0.0,0.0,0.0,0.0,0.0,0.0,0.0,0.0,0.0,0.0,0.0,0.0,0.0,0.0,0.0,0.0,0.0,0.0,0.0,0.0,0.0,0.0,0.0,-0.9515,-0.9939,0.0,0.0,0.0,0.0,0.0,0.0,0.0,0.0,-0.8798,0.0,0.0,0.0,0.0,0.0,0.0,0.0,0.0,0.0,0.0,0.0,0.0,0.0,0.0,0.0,0.0,0.0,0.0,0.0,0.0,0.0,0.0,0.0,0.0,0.0,0.0,0.0,0.0,0.0,0.0,0.0,0.0,0.0,0.0,0.0,0.0,0.0,0.0,0.0,0.0,0.0,0.0,0.0,0.0,0.0,0.0,0.0,0.0,0.0,0.0,0.0,0.0,0.0,0.0,0.0,0.0,-0.663,-0.6124,-0.6119,-0.6631,-0.6532,-0.656,-0.6712,-0.6139,-0.5664,-0.5405,0.0,0.0,0.0,0.0,0.0,0.0,0.0,0.0,0.0,0.0,0.0,0.0,0.0,0.0,0.0,0.0,0.0,0.0,0.0,0.0,0.0,0.0,0.0,0.0,0.0,0.0,0.0,0.0,0.0,0.0,0.0,0.0,0.0,0.0,0.0,0.0,0.0,0.0,0.0,-1.0206,-1.0288,0.0,0.0,0.0,0.0,0.0,0.0,0.0,0.0,-0.8474,0.0,0.0,0.0,0.0,0.0,0.0,0.0,0.0,0.0,0.0,0.0,0.0,0.0,0.0,0.0,0.0,0.0,0.0,0.0,0.0,0.0,0.0,0.0,0.0,0.0,0.0,0.0,0.0,0.0,0.0,0.0,0.0,0.0,0.0,0.0,0.0,0.0,0.0,0.0,0.0,0.0,0.0,0.0,0.0,0.0,0.0,0.0,0.0,0.0,0.0,0.0,0.0,0.0,0.0,0.0,-0.665,-0.6247,-0.6297,-0.6742,-0.6634,-0.6634,-0.6749,-0.6311,-0.5898,0.0,0.0,0.0,0.0,0.0,0.0,0.0,0.0,0.0,0.0,0.0,0.0,0.0,0.0,0.0,0.0,0.0,0.0,0.0,0.0,0.0,0.0,0.0,0.0,0.0,0.0,0.0,0.0,0.0,0.0,0.0,0.0,0.0,0.0,0.0,0.0,0.0,0.0,0.0,0.0,-1.0814,-1.0852,-1.1726,0.0,0.0,0.0,0.0,0.0,0.0,-0.7577,-0.736,0.0,0.0,0.0,0.0,0.0,0.0,0.0,0.0,0.0,0.0,0.0,0.0,0.0,0.0,0.0,0.0,0.0,0.0,0.0,0.0,0.0,0.0,0.0,0.0,0.0,0.0,0.0,0.0,0.0,0.0,0.0,0.0,0.0,0.0,0.0,0.0,0.0,0.0,0.0,0.0,0.0,0.0,0.0,0.0,0.0,0.0,0.0,0.0,0.0,0.0,0.0,0.0,0.0,0.0,0.0,-0.6777,-0.6516,-0.6518,-0.6732,-0.6746,-0.6746,-0.6736,-0.6369,-0.6088,0.0,0.0,0.0,0.0,0.0,0.0,0.0,0.0,0.0,0.0,0.0,0.0,0.0,0.0,0.0,0.0,0.0,0.0,0.0,0.0,0.0,0.0,0.0,0.0,0.0,0.0,0.0,0.0,0.0,0.0,0.0,0.0,0.0,0.0,0.0,0.0,0.0,0.0,0.0,0.0,0.0,-1.1352,-1.1973,-1.1174,0.0,0.0,0.0,0.0,-0.7002,-0.6621,0.0,0.0,0.0,0.0,0.0,0.0,0.0,0.0,0.0,0.0,0.0,0.0,0.0,0.0,0.0,0.0,0.0,0.0,0.0,0.0,0.0,0.0,0.0,0.0,0.0,0.0,0.0,0.0,0.0,0.0,0.0,0.0,0.0,0.0,0.0,0.0,0.0,0.0,0.0,0.0,0.0,0.0,0.0,0.0,0.0,0.0,0.0,0.0,0.0,0.0,0.0,0.0,0.0,0.0,0.0,0.0,-0.7028,-0.6785,-0.6732,-0.6849,-0.6859,-0.6902,-0.6849,-0.6224,-0.5837,0.0,0.0,0.0,0.0,0.0,0.0,0.0,0.0,0.0,0.0,0.0,0.0,0.0,0.0,0.0,0.0,0.0,0.0,0.0,0.0,0.0,0.0,0.0,0.0,0.0,0.0,0.0,0.0,0.0,0.0,0.0,0.0,0.0,0.0,0.0,0.0,0.0,0.0,0.0,0.0,0.0,-1.1038,-1.1516,-0.9987,-0.8762,0.0,0.0,-0.7205,-0.7449,-0.6831,0.0,0.0,0.0,0.0,0.0,0.0,0.0,0.0,0.0,0.0,0.0,0.0,0.0,0.0,0.0,0.0,0.0,0.0,0.0,0.0,0.0,0.0,0.0,0.0,0.0,0.0,0.0,0.0,0.0,0.0,0.0,0.0,0.0,0.0,0.0,0.0,0.0,0.0,0.0,0.0,0.0,0.0,0.0,0.0,0.0,0.0,0.0,0.0,0.0,0.0,0.0,0.0,0.0,0.0,0.0,-0.6871,-0.6661,-0.6843,-0.694,-0.7001,-0.7007,-0.7004,-0.7004,-0.6407,-0.6061,0.0,0.0,0.0,0.0,0.0,0.0,0.0,0.0,0.0,0.0,0.0,0.0,0.0,0.0,0.0,0.0,0.0,0.0,0.0,0.0,0.0,0.0,0.0,0.0,0.0,0.0,0.0,0.0,0.0,0.0,0.0,0.0,0.0,0.0,0.0,0.0,0.0,0.0,0.0,0.0,0.0,0.0,-0.9939,-0.9164,0.0,0.0,0.0,-0.7164,-0.6867,0.0,0.0,0.0,0.0,0.0,0.0,0.0,0.0,0.0,0.0,0.0,0.0,0.0,0.0,0.0,0.0,0.0,0.0,0.0,0.0,0.0,0.0,0.0,0.0,0.0,0.0,0.0,0.0,0.0,0.0,0.0,0.0,0.0,0.0,0.0,0.0,0.0,0.0,0.0,0.0,0.0,0.0,0.0,0.0,0.0,0.0,0.0,0.0,0.0,0.0,0.0,0.0,0.0,0.0,0.0,0.0,0.0,-0.631,-0.6844,-0.7095,-0.7095,-0.7095,-0.7095,-0.7088,-0.6641,0.0,0.0,0.0,0.0,0.0,0.0,0.0,0.0,0.0,0.0,0.0,0.0,0.0,0.0,0.0,0.0,0.0,0.0,0.0,0.0,0.0,0.0,0.0,0.0,0.0,0.0,0.0,-0.5391,0.0,0.0,0.0,0.0,0.0,0.0,0.0,0.0,0.0,0.0,0.0,0.0,0.0,0.0,-0.9253,-0.8463,-0.8409,-0.816,0.0,0.0,-0.6942,-0.6223,-0.6085,-0.593,0.0,0.0,0.0,0.0,0.0,0.0,0.0,0.0,0.0,0.0,0.0,0.0,0.0,0.0,0.0,0.0,0.0,0.0,0.0,0.0,0.0,0.0,0.0,0.0,0.0,0.0,0.0,0.0,0.0,0.0,0.0,0.0,0.0,0.0,0.0,0.0,0.0,0.0,0.0,0.0,0.0,0.0,0.0,0.0,0.0,0.0,0.0,0.0,0.0,0.0,0.0,0.0,0.0,0.0,0.0,-0.632,-0.6841,-0.7095,-0.7095,-0.7095,-0.7095,-0.7088,-0.6795,-0.6539,0.0,0.0,0.0,0.0,0.0,0.0,0.0,0.0,0.0,0.0,0.0,0.0,0.0,0.0,0.0,0.0,0.0,0.0,0.0,0.0,0.0,0.0,0.0,0.0,0.0,0.0,0.0,0.0,0.0,0.0,0.0,0.0,0.0,0.0,0.0,0.0,0.0,0.0,0.0,0.0,0.0,-0.8928,-0.7598,-0.759,-0.7351,0.0,0.0,-0.6305,-0.5874,-0.6084,-0.6105,-0.5665,0.0,0.0,0.0,0.0,0.0,0.0,0.0,0.0,0.0,0.0,0.0,0.0,0.0,0.0,0.0,0.0,0.0,0.0,0.0,0.0,0.0,0.0,0.0,0.0,0.0,0.0,0.0,0.0,0.0,0.0,0.0,0.0,0.0,0.0,0.0,0.0,0.0,0.0,0.0,0.0,0.0,0.0,0.0,0.0,0.0,0.0,0.0,0.0,0.0,0.0,0.0,0.0,0.0,-0.63,-0.6306,-0.6841,-0.7095,-0.7095,-0.7095,-0.7095,-0.7095,-0.6812,-0.6563,0.0,0.0,0.0,0.0,0.0,0.0,0.0,0.0,0.0,0.0,0.0,0.0,0.0,0.0,0.0,0.0,0.0,0.0,0.0,0.0,0.0,0.0,0.0,0.0,0.0,0.0,0.0,0.0,-0.5504,-0.534,-0.5039,0.0,0.0,0.0,0.0,0.0,0.0,0.0,0.0,0.0,0.0,-0.7419,-0.7091,-0.713,0.0,0.0,-0.6327,-0.6455,-0.5675,-0.5861,-0.5951,-0.5384,-0.513,0.0,0.0,0.0,0.0,0.0,0.0,0.0,0.0,0.0,0.0,0.0,0.0,0.0,0.0,0.0,0.0,0.0,0.0,0.0,0.0,0.0,0.0,0.0,0.0,0.0,0.0,0.0,0.0,0.0,0.0,0.0,0.0,0.0,0.0,0.0,0.0,0.0,0.0,0.0,0.0,0.0,0.0,0.0,0.0,0.0,0.0,0.0,0.0,0.0,0.0,0.0,0.0,-0.6429,-0.6433,-0.6976,-0.723,-0.7233,-0.7233,-0.7233,-0.7227,-0.7034,-0.6679,0.0,0.0,0.0,0.0,0.0,0.0,0.0,0.0,0.0,0.0,0.0,0.0,0.0,0.0,0.0,0.0,0.0,0.0,0.0,0.0,0.0,0.0,0.0,0.0,0.0,0.0,0.0,0.0,-0.5659,-0.5585,-0.5165,0.0,0.0,0.0,0.0,0.0,0.0,0.0,0.0,0.0,0.0,-0.6452,-0.6198,-0.6399,-0.629,-0.5581,-0.6033,-0.6244,-0.5614,-0.5577,-0.5456,-0.4961,0.0,0.0,0.0,0.0,0.0,0.0,0.0,0.0,0.0,0.0,0.0,0.0,0.0,0.0,0.0,0.0,0.0,0.0,0.0,0.0,0.0,0.0,0.0,0.0,0.0,0.0,0.0,0.0,0.0,0.0,-0.5839,0.0,0.0,0.0,0.0,0.0,0.0,0.0,0.0,0.0,0.0,0.0,0.0,0.0,0.0,0.0,0.0,0.0,0.0,0.0,0.0,0.0,0.0,-0.6685,-0.6695,-0.7272,-0.7584,-0.7584,-0.759,-0.758,-0.7577,-0.7438,-0.6809,-0.5569,0.0,0.0,0.0,0.0,0.0,0.0,0.0,0.0,0.0,0.0,0.0,0.0,0.0,0.0,0.0,0.0,0.0,0.0,0.0,0.0,0.0,0.0,0.0,0.0,0.0,0.0,-0.4328,-0.4663,-0.4952,0.0,0.0,0.0,0.0,0.0,0.0,0.0,0.0,0.0,0.0,-0.5682,-0.6299,-0.4789,-0.5248,-0.5548,-0.4828,-0.5114,-0.5504,-0.5706,-0.518,-0.464,0.0,0.0,0.0,0.0,0.0,0.0,0.0,0.0,0.0,0.0,0.0,0.0,0.0,0.0,0.0,0.0,0.0,0.0,0.0,0.0,0.0,0.0,0.0,0.0,0.0,0.0,0.0,-0.6755,-0.6779,0.0,0.0,0.0,0.0,0.0,0.0,0.0,0.0,0.0,0.0,0.0,-0.7611,-0.7812,0.0,0.0,0.0,0.0,0.0,0.0,0.0,0.0,0.0,0.0,0.0,0.0,-0.6702,-0.6729,-0.7295,-0.7597,-0.7597,-0.7597,-0.7597,-0.7597,-0.755,-0.6871,-0.553,0.0,0.0,0.0,0.0,0.0,0.0,0.0,0.0,0.0,0.0,0.0,0.0,0.0,0.0,0.0,0.0,0.0,0.0,0.0,0.0,0.0,0.0,0.0,0.0,0.0,-0.4353,0.0,0.0,0.0,0.0,0.0,0.0,0.0,0.0,0.0,0.0,0.0,-0.3747,-0.3557,-0.406,-0.4316,-0.4006,-0.419,-0.4337,0.0,0.0,0.0,0.0,0.0,0.0,0.0,0.0,0.0,0.0,0.0,0.0,0.0,0.0,-0.0199,-0.1022,-0.1308,-0.114,-0.0235,0.0,0.0,0.0,0.0,0.0,0.0,0.0,0.0,0.0,0.0,0.0,0.0,0.0,0.0,-0.6891,0.0,-0.6085,0.0,0.0,0.0,0.0,0.0,0.0,0.0,0.0,-0.6471,-0.6965,-0.7488,-0.7702,-0.7823,0.0,-0.7762,-0.7339,0.0,0.0,0.0,0.0,0.0,0.0,0.0,0.0,-0.6854,-0.6881,-0.7448,-0.7753,-0.7753,-0.7753,-0.7753,-0.7702,-0.7025,-0.6186,-0.5211,-0.3851,-0.2984,0.0,0.0,0.0,0.0,0.0,0.0,0.0,0.0,0.0,0.0,0.0,0.0,0.0,0.0,0.0,0.0,0.0,0.0,0.0,0.0,0.0,0.0,0.0,-0.3796,0.0,0.0,0.0,0.0,0.0,0.0,0.0,0.0,0.0,-0.3075,-0.3021,-0.2983,-0.2995,-0.3287,-0.3414,-0.3265,0.0,0.0,0.0,0.0,0.0,0.0,0.0,-0.3488,-0.2847,-0.2639,-0.247,-0.2285,-0.1455,-0.0533,0.045,0.0,0.0,-0.0105,-0.0355,-0.0218,0.0655,0.0609,0.0531,0.0922,0.0876,0.0726,0.0,0.0,0.0,0.0,0.0,0.0,0.0,0.0,-0.773,-0.7121,0.0,-0.5708,0.0,0.0,0.0,0.0,0.0,-0.515,0.0,0.0,-0.6457,-0.6737,-0.6753,-0.6839,-0.6949,-0.6896,-0.6803,-0.6777,-0.6767,-0.7278,0.0,0.0,0.0,0.0,0.0,0.0,-0.7058,-0.7037,-0.7586,-0.7935,-0.7832,-0.7836,-0.7885,-0.7779,-0.5821,-0.4703,-0.4522,-0.3211,-0.2156,-0.1433,-0.1945,0.0,0.0,0.0,0.0,0.0,0.0,0.0,0.0,0.0,0.0,0.0,0.0,0.0,0.0,0.0,0.0,0.0,0.0,0.0,0.0,-0.2791,0.0,0.0,0.0,0.0,0.0,0.0,0.0,0.0,0.0,0.0,-0.2002,-0.2677,-0.3014,-0.2436,0.0,0.0,0.0,0.0,-0.3319,-0.2233,-0.2664,-0.3143,-0.3119,-0.2614,-0.2225,-0.2252,0.0,0.0,-0.042,-0.0244,0.0,0.075,0.0818,0.0819,0.0936,0.0701,0.0553,0.0665,0.0998,0.1246,0.1318,0.1771,0.2207,-1.0389,0.0,0.0,0.0,0.0,-0.7999,-0.7811,-0.7397,-0.6835,-0.6831,-0.7101,-0.5956,0.0,0.0,0.0,0.0,0.0,0.0,-0.5666,-0.6064,-0.6309,-0.6678,-0.7063,-0.6877,-0.7037,-0.7358,-0.7177,-0.7207,-0.7485,-0.7632,-0.7384,-0.6731,0.0,0.0,0.0,0.0,-0.6837,-0.6348,-0.6669,-0.6481,-0.5724,-0.5727,-0.5727,-0.5727,-0.4401,-0.3636,-0.3567,-0.2472,-0.1748,-0.1469,-0.159,0.0,0.0,0.0,0.0,0.0,0.0,0.0,0.0,0.0,0.0,0.0,0.0,0.0,0.0,0.0,0.0,0.0,0.0,0.0,-0.2199,-0.2259,-0.2476,0.0,0.0,0.0,0.0,0.0,0.0,0.0,0.0,0.0,-0.1506,-0.1633,-0.1676,0.0,0.0,-0.1795,-0.1502,-0.1756,-0.1864,-0.158,-0.1692,0.0,-0.1853,-0.2103,-0.2123,-0.1646,-0.143,-0.1094,-0.042,-0.0341,-0.0086,0.0648,0.0742,0.0742,0.0812,0.1146,0.1567,0.2079,0.2307,0.2322,0.2359,0.2497,0.2589,-1.1467,-1.0156,-0.9598,-0.9091,-0.8571,-0.8142,-0.7728,-0.7321,-0.6865,-0.6756,-0.6826,-0.601,-0.5721,-0.5824,-0.5351,0.0,0.0,0.0,-0.5832,-0.6299,-0.6334,-0.6593,-0.7026,-0.6943,-0.7066,-0.7359,-0.726,-0.7379,-0.7707,-0.7588,-0.7316,-0.68,0.0,0.0,-0.6881,-0.6723,-0.6434,-0.6025,-0.5868,-0.5429,-0.4824,-0.4774,-0.4774,-0.4774,-0.3775,-0.3225,-0.3173,-0.2147,-0.1573,-0.1536,-0.1354,-0.1254,0.0,0.0,0.0,0.0,0.0,0.0,0.0,0.0,0.0,0.0,0.0,-0.0776,0.0,0.0,0.0,0.0,-0.0869,-0.1047,-0.1517,-0.1532,0.0,0.0,0.0,0.0,0.0,0.0,0.0,-0.1371,-0.1239,-0.114,-0.1139,-0.1143,-0.1204,-0.1234,-0.1206,-0.1175,-0.1187,0.0,-0.1299,-0.1314,-0.1326,-0.1306,-0.13,-0.1671,-0.1793,-0.1445,-0.1393,-0.1151,-0.0487,-0.036,-0.0045,0.0816,0.1127,0.1211,0.1525,0.193,0.2244,0.2424,0.2667,0.282,0.2863,0.2789,0.2764,-1.2218,-1.0735,-0.9607,-0.9324,-0.9498,-0.8572,-0.7907,-0.748,-0.7389,-0.679,-0.5871,-0.6035,-0.5841,-0.547,-0.5468,0.0,-0.5715,-0.5729,-0.5979,-0.6378,-0.6431,-0.6534,-0.6786,-0.6906,-0.6964,-0.7015,-0.7131,-0.7241,-0.7431,-0.718,-0.7042,-0.6929,-0.7167,-0.7165,-0.6903,-0.6204,-0.5769,-0.5693,-0.5012,-0.461,-0.4522,-0.4574,-0.4574,-0.4524,-0.3574,-0.3074,-0.3022,-0.2119,-0.1566,-0.1564,-0.127,-0.1091,-0.1066,0.0,0.0,0.0,0.0,0.0,0.0,0.0,0.0,0.0,0.0,0.0,0.0,0.0,0.0,0.0,-0.0477,0.0,-0.0877,-0.0732,0.0,0.0,0.0,-0.0448,-0.0391,-0.0355,-0.0356,-0.0276,0.0,0.0,-0.0754,-0.0971,-0.1118,-0.1145,-0.1227,-0.1328,-0.1312,-0.1335,-0.1374,-0.1323,-0.13,-0.1277,-0.116,-0.1232,-0.1316,-0.1312,-0.1478,-0.1234,-0.0569,-0.0375,0.0186,0.1299,0.1644,0.1896,0.2573,0.2625,0.2618,0.1943,0.2428,0.2917,0.2914,0.2911,0.2862,-1.2391,-1.1208,-0.9997,-0.8929,-0.8026,-0.7749,-0.7609,-0.7439,-0.6741,-0.6661,-0.7018,-0.6385,-0.6021,-0.5915,-0.5915,-0.5947,-0.6007,-0.61,-0.6218,-0.6324,-0.6361,-0.655,-0.6805,-0.6633,-0.6743,-0.7143,-0.6977,-0.6587,-0.6077,-0.6023,-0.5567,-0.48,-0.484,-0.5115,-0.5591,-0.464,-0.3864,-0.3274,-0.3258,-0.2983,-0.2418,-0.237,-0.2371,-0.237,-0.2119,-0.1969,-0.1969,-0.1768,-0.1516,-0.1313,-0.1202,-0.1079,-0.0806,-0.0858,0.0,0.0,0.0,0.0,0.0,0.0,0.0,0.0,0.0,-0.0604,-0.0717,0.0,-0.072,0.0,-0.0625,-0.0654,-0.0657,-0.0651,0.0,0.0,-0.0505,-0.0233,0.0509,0.0616,0.0961,0.1695,0.1052,0.0565,0.0564,0.048,0.0444,0.0368,-0.0614,-0.13,-0.1288,-0.1166,-0.1154,-0.1323,-0.1176,-0.0973,-0.0602,-0.056,-0.0566,-0.0571,-0.1049,-0.124,-0.0477,-0.0333,0.0,0.0852,0.1085,0.1222,0.1409,0.1832,0.2159,0.2015,0.2477,0.292,0.292,0.2921,0.2921,-1.1114,-1.0088,-0.938,-0.8331,-0.7183,-0.7061,-0.7009,-0.6961,-0.6432,-0.6529,-0.7009,-0.648,-0.6241,-0.6241,-0.6241,-0.6241,-0.6246,-0.6314,-0.6344,-0.6347,-0.636,-0.6489,-0.6642,-0.6489,-0.6537,-0.6836,-0.6189,-0.5734,-0.5425,-0.4922,-0.4426,-0.3801,-0.3362,-0.3297,-0.3585,-0.3249,-0.2849,-0.2406,-0.2075,-0.1747,-0.1412,-0.1415,-0.1454,-0.1578,-0.1478,-0.1417,-0.1392,-0.1296,-0.1247,-0.1152,-0.1056,-0.0903,-0.0697,-0.067,-0.0601,0.0,0.0,0.0,0.0,0.0,0.0,0.0,0.0,0.0,0.0,0.0,-0.0572,-0.0566,-0.0444,-0.0419,-0.0457,0.0041,0.0415,0.0417,0.0875,0.1343,0.1883,0.1946,0.2195,0.2759,0.2251,0.1838,0.1839,0.176,0.1643,0.1585,0.0889,0.0182,-0.0224,-0.0229,-0.042,-0.0982,-0.024,0.044,0.0586,0.0342,0.0195,0.0147,-0.0147,-0.0293,0.0098,0.0194,0.0483,0.1158,0.1341,0.1524,0.1811,0.2191,0.2476,0.2517,0.2762,0.2956,0.2997,0.2998,0.2997,-0.944,-0.8453,-0.8437,-0.7806,-0.6809,-0.653,-0.6425,-0.6408,-0.6392,-0.6387,-0.6387,-0.6387,-0.6387,-0.6387,-0.6387,-0.6387,-0.6387,-0.6387,-0.6387,-0.6387,-0.6387,-0.6387,-0.6387,-0.6387,-0.6337,-0.6137,-0.5236,-0.4782,-0.4726,-0.3822,-0.3261,-0.3097,-0.2198,-0.162,-0.1417,-0.187,-0.2105,-0.2151,-0.1214,-0.0921,-0.1202,-0.1198,-0.1274,-0.1423,-0.123,-0.1117,-0.1079,-0.0897,-0.0852,-0.0987,-0.0807,-0.0629,-0.0632,-0.0261,0.0,0.0,0.0328,0.0,0.0,0.0,0.0,0.0,0.0,0.0,0.0,-0.0041,-0.0081,-0.004,0.0249,0.0337,0.0166,0.1121,0.1825,0.1836,0.2659,0.3246,0.3359,0.3382,0.3436,0.358,0.3346,0.316,0.3163,0.2916,0.2799,0.28,0.2725,0.2364,0.1594,0.1213,0.0735,-0.0246,0.1295,0.2254,0.1904,0.1508,0.1206,0.1208,0.1055,0.1008,0.1056,0.1142,0.1377,0.1915,0.2187,0.2499,0.312,0.3267,0.3315,0.3367,0.3363,0.3351,0.3282,0.3228,0.319,-0.961,-0.8642,-0.8474,-0.7812,-0.6937,-0.6796,-0.6676,-0.6527,-0.6427,-0.6387,-0.6387,-0.6387,-0.6387,-0.6387,-0.6387,-0.6387,-0.6387,-0.6387,-0.6387,-0.6387,-0.6387,-0.6387,-0.6387,-0.6387,-0.5934,-0.5133,-0.4885,-0.3927,-0.2267,-0.2065,-0.1538,-0.0674,-0.0482,-0.0331,-0.0319,0.0,0.0,0.0,-0.0748,-0.0861,-0.1107,-0.1121,-0.1143,-0.118,-0.0998,0.0,-0.0852,-0.0807,-0.0718,-0.0538,-0.0493,0.0,0.0,0.0,0.0,0.0,0.0,0.0,0.0,0.0,0.0,0.0,0.2369,0.1555,-0.0042,0.067,0.1564,0.2263,0.2507,0.2551,0.2534,0.2727,0.2925,0.2909,0.3102,0.349,0.4277,0.4482,0.477,0.5601,0.4935,0.4432,0.4428,0.4399,0.4355,0.4353,0.4372,0.4268,0.4036,0.3093,0.2303,0.1955,0.276,0.3318,0.3218,0.3119,0.2967,0.3017,0.2466,0.2214,0.2366,0.2411,0.2555,0.2908,0.33,0.3637,0.3788,0.4189,0.4426,0.4484,0.4484,0.4347,0.3881,0.376,0.376,-0.8477,0.0,-0.7864,-0.75,0.0,-0.7002,-0.6942,-0.6866,-0.663,-0.6491,-0.6387,-0.6387,-0.6387,-0.6387,-0.6387,-0.6387,-0.6387,-0.6387,-0.6387,-0.6387,-0.6387,-0.6087,-0.5586,-0.5586,-0.5033,-0.4029,-0.3475,-0.267,-0.1613,-0.1059,-0.055,0.0,0.0,0.0,0.0,0.0,-0.0047,-0.0185,-0.0283,-0.0481,-0.0735,-0.077,-0.0802,-0.088,-0.0694,0.0,0.0,0.0,0.0,0.0,0.0,0.0,0.0,0.1041,0.0,0.235,0.2804,0.3114,0.3175,0.3088,0.3115,0.3178,0.3134,0.2604,0.1505,0.2021,0.2601,0.3039,0.3181,0.3221,0.322,0.3665,0.3971,0.4006,0.445,0.4986,0.5431,0.5571,0.5753,0.6205,0.5902,0.5584,0.5584,0.5586,0.5586,0.5586,0.5584,0.5586,0.5484,0.458,0.3875,0.4223,0.3922,0.4024,0.4475,0.4327,0.4176,0.4126,0.3875,0.3674,0.3776,0.3776,0.3828,0.3981,0.4234,0.4384,0.4433,0.4634,0.4782,0.4782,0.4782,0.481,0.4714,0.4503,0.46,-0.721,-0.721,-0.721,-0.7221,-0.724,-0.7221,-0.721,-0.7185,0.0,0.0,0.0,-0.6419,-0.6408,-0.6387,-0.6387,-0.6387,-0.6387,-0.6184,-0.6084,-0.6134,-0.5934,-0.5381,-0.4533,-0.4533,-0.3979,-0.2871,-0.2016,-0.1513,-0.1311,-0.0404,0.0,0.0,0.0,0.0,0.0,0.0,0.0,0.0,0.0,-0.0145,-0.0399,-0.0397,-0.0439,-0.0614,-0.0425,-0.0325,-0.0269,-0.009,-0.009,-0.0224,-0.0225,0.0135,0.0995,0.1222,0.1815,0.2833,0.329,0.348,0.3499,0.365,0.3747,0.3768,0.3776,0.3652,0.3527,0.3479,0.3567,0.3751,0.3745,0.3769,0.378,0.4524,0.5098,0.5077,0.5887,0.6384,0.6384,0.6387,0.6381,0.6387,0.6384,0.6387,0.6387,0.6337,0.6387,0.6387,0.6337,0.6387,0.6287,0.5584,0.5334,0.5882,0.5229,0.4778,0.5384,0.5384,0.5085,0.5133,0.5083,0.5035,0.4935,0.4935,0.4935,0.4684,0.4834,0.4935,0.4935,0.5085,0.5085,0.5085,0.5085,0.5286,0.5737,0.5484,0.5475,-0.7213,-0.721,-0.721,-0.7214,-0.7304,-0.7254,-0.721,-0.7199,-0.6997,-0.6809,-0.6594,-0.6594,-0.6484,-0.6387,-0.6387,-0.6387,-0.6337,-0.5436,-0.5035,-0.4985,-0.4078,-0.3575,-0.3425,-0.3425,-0.2871,-0.1865,-0.1664,-0.111,0.0,0.0,0.0,0.0,0.0,0.0,0.0,0.0,0.0,0.0,-0.0145,-0.0287,-0.0336,-0.0325,-0.0319,-0.0362,-0.0181,-0.0045,-0.0045,0.0,0.0,-0.0045,-0.0045,0.0046,0.0189,0.1086,0.1629,0.1928,0.3569,0.4571,0.4593,0.5442,0.5951,0.5929,0.5934,0.5563,0.4684,0.46,0.4958,0.5787,0.5879,0.5941,0.5959,0.6059,0.6114,0.6132,0.6284,0.6387,0.6387,0.6387,0.6387,0.6387,0.6387,0.6387,0.6387,0.6387,0.6387,0.6387,0.6387,0.6387,0.6387,0.6284,0.6237,0.6387,0.6237,0.6134,0.6184,0.6237,0.6087,0.6184,0.6087,0.5934,0.5536,0.5484,0.5336,0.4885,0.5236,0.5436,0.5486,0.5887,0.6037,0.6037,0.6037,0.6334,0.6933,0.6534,0.6084,-0.7252,-0.7241,-0.7237,-0.724,-0.7239,-0.7247,-0.7293,-0.7345,-0.7296,-0.7138,-0.6921,-0.691,-0.6844,-0.6733,-0.6665,-0.6597,-0.643,-0.5308,-0.4782,-0.4734,-0.3676,-0.2871,-0.2368,-0.2318,-0.1764,-0.0757,-0.0757,-0.0505,0.0,0.0,0.0,0.0,0.0,0.0,0.0,0.0,0.0,0.0,-0.0099,-0.0148,-0.0148,-0.0145,-0.0144,-0.0144,-0.0048,0.0,0.0,0.0,0.0,0.0,0.0,0.0242,0.0834,0.1327,0.1881,0.2466,0.3929,0.4782,0.4782,0.5784,0.6387,0.6387,0.6387,0.6234,0.5737,0.5684,0.5887,0.6337,0.6387,0.6387,0.6387,0.6387,0.6387,0.6387,0.6387,0.6387,0.6387,0.6387,0.6387,0.6387,0.6387,0.6387,0.6387,0.6387,0.6387,0.6387,0.6387,0.6387,0.6387,0.6387,0.6387,0.6387,0.6387,0.6387,0.6387,0.6387,0.6387,0.6387,0.6387,0.6337,0.6084,0.6034,0.5937,0.5734,0.5884,0.6037,0.6037,0.6237,0.6387,0.6387,0.6387,0.6637,0.6783,0.6634,0.6484,-0.732,-0.7309,-0.7247,-0.7179,-0.7224,-0.7285,-0.7347,-0.7516,-0.7546,-0.7467,-0.7377,-0.7236,-0.7133,-0.7018,-0.6652,-0.6391,-0.6068,-0.4747,-0.4085,-0.3955,-0.2991,-0.2024,-0.1312,-0.1211,-0.0808,0.0,0.0,0.0,0.0,0.0,0.0,0.0,0.0,0.0,0.0,0.0,0.0,0.0,0.0,0.0,0.0,0.0,0.0,0.0,0.0,0.0,0.0,0.0,0.0101,0.0353,0.0353,0.0858,0.1865,0.1965,0.2318,0.3173,0.423,0.4935,0.5183,0.5934,0.6387,0.6387,0.6387,0.6387,0.6387,0.6387,0.6387,0.6387,0.6387,0.6387,0.6387,0.6387,0.6387,0.6387,0.6387,0.6387,0.6387,0.6387,0.6387,0.6387,0.6387,0.6387,0.6387,0.6387,0.6387,0.6387,0.6387,0.6387,0.6387,0.6387,0.6387,0.6387,0.6387,0.6387,0.6387,0.6387,0.6387,0.6387,0.6387,0.6387,0.6337,0.6387,0.6387,0.6337,0.6337,0.6337,0.6387,0.6387,0.6487,0.6637,0.6786,0.6783,0.7083,0.7132,0.6933,-0.7502,-0.7483,-0.7369,-0.7255,-0.7235,-0.7285,-0.7407,-0.7524,-0.7633,-0.7736,-0.7807,-0.7464,-0.7204,-0.7035,-0.5906,-0.5404,-0.521,-0.2925,-0.197,-0.1866,-0.0776,0.0,0.0,0.0,0.0,0.0,0.0,0.0,0.0,0.0,0.0,0.0,0.0,0.0,0.0,0.0,0.0,0.0,0.0,0.0,0.0,0.0,0.0,0.0,0.0,0.0,0.0,0.0,0.0454,0.1362,0.1412,0.1916,0.2871,0.3022,0.3073,0.3225,0.418,0.5186,0.6134,0.6337,0.6387,0.6387,0.6387,0.6387,0.6387,0.6387,0.6387,0.6387,0.6387,0.6387,0.6387,0.6387,0.6387,0.6387,0.6387,0.6387,0.6387,0.6387,0.6387,0.6387,0.6387,0.6387,0.6387,0.6387,0.6387,0.6387,0.6387,0.6387,0.6387,0.6387,0.6387,0.6387,0.6387,0.6387,0.6387,0.6387,0.6387,0.6387,0.6387,0.6387,0.6387,0.6387,0.6387,0.6387,0.6387,0.6387,0.6387,0.6437,0.6736,0.7185,0.7431,0.768,0.8326,0.8425,0.8028,-0.7627,-0.7614,-0.7436,-0.7375,-0.7279,-0.7317,-0.7347,-0.7521,-0.757,-0.7695,-0.7723,-0.687,-0.6818,-0.7417,-0.6012,-0.5364,-0.5164,-0.2752,-0.1572,-0.1496,0.0,0.0,0.0,0.0,0.0,0.0,0.0,0.0,0.0,0.0,0.0,0.0,0.0,0.0,0.0,0.0,0.0,0.0,0.0,0.0,0.0,0.0,0.0,0.0,0.0,0.0,0.0,0.0,0.0505,0.1462,0.1563,0.2067,0.3123,0.3225,0.3225,0.3274,0.423,0.5286,0.6337,0.6387,0.6387,0.6387,0.6387,0.6387,0.6387,0.6387,0.6387,0.6387,0.6387,0.6387,0.6387,0.6387,0.6387,0.6387,0.6387,0.6387,0.6387,0.6387,0.6387,0.6387,0.6387,0.6387,0.6387,0.6387,0.6387,0.6387,0.6387,0.6387,0.6387,0.6387,0.6387,0.6387,0.6387,0.6387,0.6387,0.6387,0.6387,0.6387,0.6387,0.6387,0.6387,0.6387,0.6387,0.6387,0.6487,0.6437,0.6387,0.6883,0.7282,0.773,0.8127,0.8428,0.8726,0.8775,0.8428,-0.775,-0.7728,-0.7619,-0.75,-0.7331,-0.7385,-0.7456,-0.7442,-0.7151,-0.7142,-0.7187,-0.5965,-0.5809,-0.6351,-0.5139,-0.4483,-0.4177,-0.2155,-0.1169,-0.11,-0.0326,0.0,0.0,0.0,0.0,0.0,0.0,0.0,0.0,0.0,0.0,0.0,0.0,0.0,0.0,0.0,0.0,0.0,0.0,0.0,0.0,0.0,0.0,0.0,0.0,0.0151,0.0404,0.0454,0.111,0.2418,0.2469,0.2972,0.3976,0.4076,0.4076,0.4126,0.478,0.5584,0.6387,0.6387,0.6387,0.6387,0.6387,0.6387,0.6387,0.6387,0.6387,0.6387,0.6387,0.6387,0.6387,0.6387,0.6387,0.6387,0.6387,0.6387,0.6387,0.6387,0.6387,0.6387,0.6387,0.6387,0.6387,0.6387,0.6387,0.6387,0.6387,0.6387,0.6387,0.6387,0.6387,0.6387,0.6387,0.6387,0.6387,0.6387,0.6387,0.6387,0.6387,0.6387,0.6387,0.6387,0.6387,0.6437,0.6537,0.6786,0.6983,0.7431,0.8127,0.8375,0.8821,0.9365,0.9661,0.9517,0.9517,-0.7928,-0.7906,-0.7741,-0.7625,-0.751,-0.751,-0.752,-0.744,-0.6359,-0.5877,-0.5837,-0.4551,-0.3997,-0.4052,-0.282,-0.2195,-0.2044,-0.0838,0.0,0.0,0.0,0.0,0.0,0.0,0.0,0.0,0.0,0.0,0.0,0.0,0.0,0.0,0.0,0.0,0.0,0.0,0.0,0.0,0.0,0.0,0.0,0.0,0.0,0.0,0.0,0.0505,0.1362,0.1513,0.2469,0.4533,0.4531,0.5033,0.6087,0.6187,0.6134,0.6187,0.6237,0.6337,0.6387,0.6387,0.6387,0.6387,0.6387,0.6387,0.6387,0.6387,0.6387,0.6387,0.6387,0.6387,0.6387,0.6387,0.6387,0.6387,0.6387,0.6387,0.6387,0.6387,0.6387,0.6387,0.6387,0.6387,0.6387,0.6387,0.6387,0.6387,0.6387,0.6387,0.6387,0.6387,0.6387,0.6387,0.6387,0.6387,0.6387,0.6387,0.6387,0.6387,0.6387,0.6387,0.6387,0.6387,0.6387,0.6587,0.7036,0.7381,0.763,0.8226,0.897,0.9567,1.0207,1.065,1.0502,1.0895,1.085,-0.7933,-0.7928,-0.7826,-0.7741,-0.7641,-0.7638,-0.7179,-0.6432,-0.5951,-0.5275,-0.4482,-0.3263,-0.271,-0.2587,-0.111,-0.0984,-0.1833,-0.0606,0.0,0.0,0.0,0.0,0.0,0.0,0.0,0.0,0.0,0.0,0.0,0.0,0.0,0.0,0.0,0.0,0.0,0.0,0.0,0.0,0.0,0.0,0.0,0.0,0.0303,0.1009,0.1009,0.1211,0.1563,0.2267,0.3324,0.4734,0.4782,0.5284,0.6237,0.6387,0.6387,0.6387,0.6387,0.6387,0.6387,0.6387,0.6387,0.6387,0.6387,0.6437,0.6387,0.6387,0.6387,0.6387,0.6387,0.6387,0.6387,0.6387,0.6387,0.6387,0.6387,0.6387,0.6387,0.6387,0.6387,0.6387,0.6387,0.6387,0.6387,0.6387,0.6387,0.6387,0.6387,0.6387,0.6387,0.6387,0.6387,0.6387,0.6387,0.6387,0.6387,0.6387,0.6387,0.6387,0.6387,0.6387,0.6387,0.6387,0.6387,0.7033,0.7481,0.8028,0.8326,0.9167,0.9916,1.0458,1.1145,1.134,1.1194,1.1389,1.134,-0.7933,-0.7933,-0.7933,-0.7826,-0.77,-0.7271,-0.6603,-0.5633,-0.4783,-0.3898,-0.2949,-0.1663,-0.1048,-0.0863,0.0185,0.0123,-0.0863,-0.0061,0.0,0.0301,0.0295,0.0346,0.0283,0.0278,0.0273,0.0,0.0264,0.0259,0.0306,0.0255,0.0254,0.0,0.0151,0.005,0.0,0.0,0.0,0.0,0.0,0.0,0.0,0.0353,0.0858,0.1613,0.2317,0.2719,0.267,0.3324,0.423,0.5236,0.5436,0.5837,0.6537,0.6637,0.6637,0.6637,0.6639,0.6686,0.6637,0.6637,0.6637,0.6689,0.6637,0.6686,0.6637,0.6587,0.6539,0.6489,0.6437,0.6387,0.6387,0.6387,0.6387,0.6387,0.6387,0.6387,0.6387,0.6387,0.6387,0.6387,0.6387,0.6387,0.6387,0.6387,0.6387,0.6387,0.6387,0.6387,0.6387,0.6387,0.6387,0.6387,0.6387,0.6387,0.6437,0.6437,0.6437,0.6437,0.6387,0.6387,0.6487,0.6487,0.6786,0.7431,0.8028,0.8574,0.9266,1.0113,1.0703,1.1194,1.1639,1.198,1.1829,1.1683,1.1731,-0.7872,-0.7869,-0.7869,-0.7683,-0.7487,-0.632,-0.5841,-0.5096,-0.2824,-0.172,-0.1293,0.0185,0.0679,0.0864,0.0864,0.0926,0.0864,0.0924,0.0979,0.0907,0.0903,0.0887,0.0805,0.0791,0.0777,0.0818,0.086,0.0846,0.0832,0.0777,0.0668,0.0456,0.0404,0.0303,0.0,0.0,0.0,0.0,0.0,0.0,0.0151,0.1009,0.1613,0.2066,0.3823,0.4878,0.4734,0.4834,0.5436,0.6539,0.6692,0.6889,0.7086,0.7135,0.7185,0.7135,0.7138,0.7188,0.7185,0.7138,0.7135,0.7135,0.7138,0.7135,0.7086,0.6942,0.6792,0.6792,0.6639,0.6484,0.6487,0.6439,0.6437,0.6387,0.6387,0.6387,0.6387,0.6387,0.6387,0.6387,0.6387,0.6387,0.6387,0.6387,0.6387,0.6387,0.6387,0.6487,0.6587,0.6637,0.6487,0.6487,0.6736,0.6986,0.6686,0.6437,0.6487,0.6537,0.6437,0.6437,0.6686,0.6783,0.7335,0.7978,0.9164,0.976,1.0449,1.1194,1.1389,1.1829,1.2224,1.2473,1.2273,1.217,1.2419,-0.7691,-0.7686,-0.6392,-0.5961,-0.5963,-0.455,-0.3444,-0.2522,-0.1477,-0.0678,0.0185,0.0741,0.0988,0.105,0.1235,0.1359,0.1359,0.1544,0.1417,0.1102,0.1031,0.0955,0.0936,0.092,0.09,0.0878,0.087,0.0914,0.09,0.0888,0.0828,0.0771,0.0711,0.0657,0.0505,0.0353,0.0252,0.0252,0.0101,0.0353,0.1009,0.1463,0.2367,0.3974,0.4826,0.5532,0.6387,0.6437,0.6639,0.7092,0.7089,0.7138,0.7188,0.7185,0.7185,0.7185,0.7185,0.7185,0.7185,0.7235,0.7235,0.7185,0.7185,0.7185,0.7185,0.7135,0.7089,0.7089,0.6986,0.6986,0.6936,0.6789,0.6639,0.6437,0.6387,0.6387,0.6387,0.6387,0.6387,0.6387,0.6387,0.6387,0.6437,0.6437,0.6537,0.6537,0.6537,0.6684,0.7132,0.7332,0.7232,0.7232,0.7531,0.7826,0.7677,0.7723,0.7872,0.7574,0.7229,0.7132,0.7232,0.7431,0.7978,0.8916,1.0051,1.0895,1.1634,1.2029,1.2219,1.237,1.2667,1.2716,1.2619,1.2759,1.3001,-0.7016,-0.6639,-0.5408,-0.4732,-0.4364,-0.289,-0.1783,-0.0923,-0.0308,0.0432,0.1111,0.1297,0.1359,0.142,0.1606,0.1668,0.173,0.1915,0.1791,0.1419,0.1346,0.1328,0.1246,0.122,0.1249,0.122,0.127,0.1259,0.1239,0.1225,0.1161,0.1047,0.103,0.0919,0.0816,0.0659,0.0556,0.0556,0.0807,0.121,0.1914,0.2668,0.3822,0.5177,0.5832,0.6487,0.7338,0.7441,0.7441,0.7391,0.7441,0.7487,0.7487,0.7487,0.7487,0.7487,0.7487,0.7487,0.7487,0.7537,0.7487,0.7487,0.7487,0.7487,0.7487,0.7437,0.7338,0.7338,0.7238,0.7185,0.7185,0.7039,0.7036,0.7325,0.6734,0.6487,0.6387,0.6387,0.6587,0.6734,0.6886,0.6986,0.7182,0.7282,0.7282,0.7282,0.7478,0.7673,0.8269,0.8513,0.8563,0.8658,0.9,0.9049,0.8806,0.9004,0.9304,0.8859,0.8269,0.8269,0.8322,0.8471,0.8867,1.0096,1.1277,1.1731,1.2375,1.2764,1.3007,1.3055,1.3055,1.3195,1.3286,1.3383,1.3576,-0.5976,-0.4856,-0.461,-0.3811,-0.2704,-0.1354,-0.0677,-0.0493,0.074,0.142,0.1606,0.1791,0.1915,0.1977,0.1977,0.1977,0.2038,0.1977,0.1977,0.1915,0.191,0.1832,0.1795,0.169,0.1709,0.1739,0.1735,0.1723,0.1698,0.169,0.1626,0.1386,0.1312,0.1195,0.1034,0.0867,0.0911,0.1161,0.1865,0.2316,0.2717,0.4372,0.5575,0.5824,0.6836,0.7494,0.7643,0.7789,0.7842,0.7693,0.7839,0.7939,0.7988,0.7988,0.7939,0.7942,0.7988,0.7939,0.7988,0.7889,0.7942,0.7889,0.7889,0.7988,0.7889,0.7739,0.7643,0.7643,0.7441,0.7285,0.7285,0.7238,0.763,0.8266,0.7621,0.7077,0.6734,0.683,0.7325,0.7773,0.7826,0.8028,0.8718,0.8817,0.8817,0.8867,0.916,0.9353,0.9698,0.994,1.0324,1.0422,1.0427,1.0329,1.0132,1.0435,1.0734,1.0587,0.9944,0.9797,0.9752,0.985,1.01,1.1326,1.216,1.2613,1.2958,1.3298,1.3443,1.3389,1.3534,1.3817,1.3962,1.3962,1.3962,-0.4537,-0.3382,-0.1908,-0.123,-0.0923,0.0555,0.1172,0.1234,0.1605,0.1853,0.1915,0.1977,0.2038,0.2038,0.2038,0.2038,0.2038,0.2038,0.2038,0.2038,0.2038,0.1945,0.19,0.1802,0.1825,0.18,0.1795,0.1791,0.1782,0.1817,0.1746,0.1683,0.1655,0.163,0.1455,0.1344,0.1584,0.2121,0.2317,0.3318,0.4622,0.5222,0.6129,0.7089,0.7444,0.7696,0.7842,0.7939,0.7992,0.7942,0.7939,0.7988,0.7988,0.7988,0.7988,0.7988,0.7988,0.7988,0.7988,0.7988,0.7988,0.7988,0.7988,0.7988,0.7988,0.7939,0.7889,0.7892,0.7789,0.7786,0.7736,0.7739,0.7736,0.7726,0.8704,0.9239,0.9091,0.9387,0.9436,0.9637,0.9587,0.9735,0.9936,1.0038,1.0038,1.0038,1.023,1.0525,1.0974,1.1268,1.1551,1.156,1.1614,1.156,1.1614,1.1965,1.2165,1.2214,1.1868,1.1619,1.157,1.1521,1.1868,1.2511,1.2845,1.3292,1.3485,1.3727,1.3727,1.3727,1.3919,1.4154,1.4202,1.4202,1.4202,-0.2755,-0.1677,-0.0494,0.0185,0.0616,0.1605,0.2038,0.2038,0.2038,0.2038,0.2038,0.2038,0.2038,0.2038,0.2038,0.2038,0.2038,0.2038,0.2038,0.2038,0.2038,0.195,0.1908,0.1874,0.1844,0.1814,0.1801,0.1795,0.1792,0.1776,0.1825,0.1928,0.2225,0.2463,0.2547,0.2815,0.3145,0.3718,0.3944,0.4774,0.5829,0.6426,0.6933,0.769,0.7793,0.7842,0.7988,0.7988,0.7988,0.7988,0.7988,0.7988,0.7988,0.7988,0.7988,0.7988,0.7988,0.7988,0.7988,0.7988,0.7988,0.7988,0.7988,0.7988,0.7988,0.7988,0.7988,0.7988,0.7988,0.8237,0.8726,0.9262,0.9604,0.9936,1.1058,1.1351,1.0026,1.0026,1.052,1.0765,1.0916,1.1063,1.1312,1.1361,1.1414,1.1463,1.1712,1.2004,1.2349,1.249,1.2635,1.2689,1.2791,1.2834,1.2834,1.3082,1.3136,1.319,1.3141,1.2942,1.2845,1.2845,1.3136,1.3389,1.363,1.3823,1.3919,1.4016,1.4064,1.4106,1.4298,1.4298,1.4298,1.4298,1.4298,-0.0946,0.0189,0.0186,0.0863,0.1853,0.2038,0.2038,0.2038,0.2038,0.2038,0.2038,0.2038,0.2038,0.2038,0.2038,0.2038,0.2038,0.2038,0.2038,0.2038,0.2037,0.196,0.1935,0.1896,0.1865,0.1778,0.1809,0.1797,0.1794,0.1793,0.1961,0.2285,0.3026,0.3549,0.3729,0.4494,0.5097,0.5304,0.5701,0.6155,0.6692,0.7335,0.7786,0.7889,0.7939,0.7939,0.7988,0.7988,0.7988,0.7988,0.7988,0.7988,0.7988,0.7988,0.7988,0.7988,0.7988,0.7988,0.7988,0.7988,0.8137,0.8237,0.8134,0.8184,0.8432,0.8531,0.8432,0.8726,0.8386,0.897,0.9756,1.1317,1.1799,1.1896,1.3125,1.228,1.0369,1.0177,1.1107,1.1707,1.1907,1.2252,1.2657,1.2958,1.2953,1.2737,1.2937,1.3082,1.3323,1.3468,1.3661,1.3811,1.3962,1.4154,1.4106,1.4154,1.4058,1.4058,1.3962,1.3817,1.3624,1.3673,1.401,1.4208,1.4112,1.4112,1.4208,1.425,1.4346,1.4298,1.4298,1.4298,1.4298,1.4298,1.4298,0.0319,0.1574,0.1552,0.1729,0.1977,0.2038,0.2038,0.2038,0.2038,0.2038,0.2038,0.2038,0.2038,0.2038,0.2038,0.2038,0.2038,0.2038,0.2038,0.2038,0.2038,0.2036,0.1955,0.1914,0.1872,0.1842,0.181,0.1795,0.1851,0.2018,0.2353,0.3187,0.3674,0.4033,0.4907,0.5297,0.5679,0.6231,0.6581,0.7027,0.7509,0.7793,0.7988,0.7988,0.7988,0.7988,0.7988,0.7988,0.7988,0.7988,0.7988,0.7988,0.7988,0.7988,0.7988,0.7988,0.7988,0.7988,0.7988,0.8088,0.8382,0.9019,0.8676,0.8726,1.0342,0.9657,0.9756,1.0243,1.0534,1.0435,1.0881,1.1219,1.1804,1.215,1.263,1.292,1.2188,1.2727,1.3264,1.3516,1.3619,1.3763,1.3913,1.3865,1.3913,1.3962,1.401,1.4106,1.4154,1.4202,1.425,1.4298,1.4298,1.4298,1.4298,1.4298,1.4298,1.4298,1.4298,1.4298,1.4112,1.4064,1.425,1.4298,1.4298,1.4346,1.449,1.4442,1.4484,1.4394,1.4394,1.4442,1.449,1.4442,1.449,0.1348,0.2035,0.1994,0.2038,0.2038,0.2038,0.2038,0.2038,0.2038,0.2038,0.2038,0.2038,0.2038,0.2038,0.2038,0.2038,0.2038,0.2038,0.2038,0.2038,0.2038,0.2038,0.1969,0.1932,0.1892,0.1858,0.1815,0.2021,0.2465,0.2744,0.3302,0.4416,0.4918,0.562,0.6224,0.6567,0.7175,0.7472,0.7492,0.7706,0.8056,0.8022,0.7988,0.7988,0.7988,0.7988,0.7988,0.7988,0.7988,0.7988,0.7988,0.7988,0.7988,0.7988,0.7988,0.7988,0.7988,0.7988,0.8038,0.8482,0.9019,0.9558,0.946,1.0145,1.0828,1.0636,1.0636,1.1023,1.1219,1.1317,1.1853,1.249,1.2592,1.2737,1.3071,1.342,1.3559,1.4004,1.4298,1.4298,1.4202,1.4202,1.4298,1.4298,1.4298,1.4154,1.4154,1.4202,1.4202,1.4298,1.4298,1.4298,1.4298,1.4298,1.4298,1.4298,1.4298,1.4298,1.4298,1.4298,1.4256,1.425,1.4298,1.4346,1.4346,1.4675,1.4771,1.4723,1.4819,1.4962,1.501,1.4867,1.4771,1.4819,1.4867,0.2129,0.2123,0.2001,0.2038,0.2038,0.2038,0.2038,0.2038,0.2038,0.2038,0.2038,0.2038,0.2038,0.2038,0.2038,0.2038,0.2038,0.2038,0.2038,0.2038,0.2406,0.2468,0.2518,0.2728,0.2862,0.2468,0.2288,0.2817,0.3585,0.3916,0.4472,0.5586,0.648,0.6974,0.7453,0.816,0.8507,0.8424,0.8321,0.8213,0.8255,0.8143,0.8089,0.7988,0.7988,0.7988,0.7988,0.7988,0.7988,0.7988,0.7988,0.8088,0.8187,0.8038,0.7988,0.8038,0.8187,0.8432,0.8627,0.9266,0.9953,1.0002,1.0583,1.1317,1.1609,1.1658,1.1658,1.1755,1.1999,1.2242,1.2926,1.3463,1.4004,1.4154,1.425,1.4298,1.4298,1.4298,1.4298,1.4298,1.4298,1.4298,1.4298,1.4298,1.4298,1.4298,1.4298,1.4298,1.4298,1.4298,1.4298,1.4298,1.4298,1.4627,1.4675,1.4729,1.4682,1.4682,1.4586,1.4538,1.4442,1.4298,1.4298,1.4388,1.4484,1.4813,1.5242,1.5384,1.5527,1.5669,1.5724,1.5676,1.5486,1.5296,1.5391,0.2129,0.2124,0.2001,0.2038,0.2038,0.2038,0.2038,0.2038,0.2038,0.2038,0.2038,0.2038,0.2038,0.2038,0.2038,0.2038,0.2162,0.2223,0.2223,0.2468,0.3143,0.3571,0.3744,0.4373,0.4836,0.4695,0.4088,0.4087,0.4873,0.5192,0.5753,0.6647,0.7096,0.7598,0.8318,0.8789,0.8767,0.8747,0.8632,0.8499,0.8374,0.8218,0.8136,0.8002,0.7988,0.7988,0.7988,0.7988,0.7988,0.7988,0.7988,0.8482,0.8874,0.8482,0.8184,0.8432,0.8973,0.9316,0.946,1.0342,1.1321,1.1755,1.1755,1.2247,1.2974,1.2974,1.2829,1.3318,1.3565,1.3763,1.4004,1.4202,1.425,1.4298,1.4298,1.4298,1.4298,1.4298,1.4298,1.4298,1.4298,1.4298,1.4298,1.4298,1.4298,1.4298,1.4298,1.4298,1.4298,1.4298,1.4298,1.4298,1.4298,1.4771,1.5146,1.5201,1.5201,1.5296,1.5248,1.501,1.4819,1.4442,1.4346,1.4771,1.5003,1.5289,1.5622,1.6096,1.6379,1.6567,1.6574,1.6581,1.6386,1.6285,1.6332,0.2129,0.2122,0.2001,0.2038,0.2038,0.2038,0.2038,0.2038,0.2038,0.2038,0.2038,0.2038,0.2038,0.2038,0.2038,0.2346,0.2898,0.302,0.3388,0.4,0.4673,0.4918,0.4977,0.5728,0.6169,0.6244,0.5929,0.5718,0.6214,0.6255,0.6924,0.7765,0.8045,0.838,0.8771,0.8875,0.8841,0.8821,0.8747,0.8608,0.8377,0.8255,0.8109,0.8015,0.7988,0.7988,0.7988,0.7988,0.7988,0.7988,0.7988,0.8577,0.9118,0.9266,0.9065,0.9608,1.0145,1.044,1.0587,1.137,1.2193,1.2587,1.2635,1.3221,1.3859,1.3854,1.3757,1.4106,1.4298,1.4298,1.425,1.4298,1.4298,1.4298,1.4298,1.4346,1.4298,1.4346,1.4346,1.4346,1.4298,1.4298,1.4298,1.4298,1.4298,1.4298,1.4298,1.4298,1.4298,1.4298,1.4298,1.4298,1.4346,1.4819,1.5384,1.5622,1.5906,1.6048,1.6136,1.59,1.5669,1.548,1.5486,1.5724,1.5866,1.6042,1.6608,1.7225,1.7365,1.7598,1.7878,1.8017,1.7552,1.7318,1.7412,0.206,0.205,0.1999,0.2038,0.2038,0.2038,0.2038,0.2038,0.2038,0.2038,0.2038,0.2038,0.2038,0.21,0.2468,0.3081,0.4243,0.4304,0.4916,0.5651,0.6261,0.6385,0.6508,0.685,0.7428,0.7877,0.784,0.7781,0.7471,0.7485,0.8045,0.8494,0.8881,0.8937,0.8937,0.8937,0.8937,0.8844,0.8774,0.8676,0.8462,0.8238,0.8065,0.7992,0.7988,0.7988,0.7988,0.7988,0.7988,0.7988,0.8137,0.8577,0.9653,0.9899,1.0534,1.1512,1.1604,1.1512,1.1755,1.2441,1.3071,1.3221,1.3854,1.4196,1.425,1.4202,1.425,1.4298,1.4298,1.4298,1.4298,1.4298,1.4346,1.4394,1.4394,1.4394,1.4496,1.4496,1.449,1.449,1.4346,1.4346,1.4352,1.4298,1.4298,1.4298,1.4298,1.4298,1.4298,1.4298,1.4298,1.4298,1.449,1.4921,1.5486,1.6089,1.652,1.7084,1.7264,1.725,1.7023,1.6796,1.685,1.6936,1.6983,1.725,1.7824,1.8295,1.8527,1.885,1.9363,1.9363,1.885,1.8619,1.8619,0.2048,0.2022,0.199,0.2038,0.2038,0.2038,0.2038,0.2038,0.2038,0.2038,0.2161,0.21,0.2161,0.2531,0.3387,0.4427,0.5345,0.5774,0.6139,0.6933,0.7606,0.8155,0.8581,0.9744,0.9397,0.936,0.9432,0.9205,0.8719,0.8546,0.866,0.8881,0.8937,0.8937,0.8937,0.8937,0.8937,0.8878,0.8854,0.876,0.8503,0.8368,0.8174,0.8072,0.8038,0.8038,0.8038,0.8038,0.8038,0.8038,0.8038,0.9019,1.0583,1.1023,1.2145,1.2974,1.3167,1.2533,1.2678,1.3366,1.3908,1.3908,1.4202,1.4298,1.4298,1.4298,1.4298,1.4298,1.4346,1.44,1.44,1.4346,1.4442,1.4544,1.464,1.479,1.4885,1.4742,1.4736,1.4736,1.4646,1.4496,1.44,1.4352,1.4298,1.4298,1.4346,1.449,1.4675,1.5003,1.5099,1.5283,1.5473,1.5852,1.6459,1.6929,1.7404,1.8064,1.8334,1.8511,1.828,1.8149,1.8326,1.8373,1.8365,1.8365,1.8742,1.9171,1.9592,1.9874,2.0093,2.0192,2.0102,1.9965,1.9691,0.2031,0.2016,0.1988,0.2038,0.2038,0.2038,0.2038,0.2038,0.2038,0.2406,0.302,0.3267,0.3819,0.4676,0.5468,0.6322,0.7296,0.7543,0.8094,0.8641,0.9377,0.9744,0.999,1.0464,1.0498,1.0262,1.0098,0.9838,0.9471,0.9047,0.8937,0.8937,0.8937,0.8937,0.8992,0.8937,0.8937,0.8913,0.8842,0.8753,0.8716,0.8601,0.8451,0.8244,0.824,0.8237,0.8187,0.8041,0.8187,0.8283,0.8233,0.8825,1.0297,1.1077,1.2004,1.3511,1.3902,1.3752,1.3709,1.41,1.425,1.4346,1.4346,1.4298,1.4298,1.4346,1.44,1.4544,1.4544,1.4592,1.4694,1.4742,1.479,1.4885,1.4933,1.4981,1.5083,1.5035,1.4939,1.4939,1.4939,1.479,1.4873,1.533,1.5371,1.5371,1.5798,1.6311,1.6499,1.6781,1.6781,1.668,1.6868,1.7102,1.7755,1.8319,1.8696,1.9217,1.9455,1.9583,1.9492,1.9492,1.9575,1.9621,1.9538,1.9629,1.9766,1.9994,2.032,2.0546,2.0682,2.0736,2.0736,2.0382,2.0147,0.2445,0.2442,0.2109,0.2038,0.2038,0.2407,0.2653,0.2653,0.3206,0.3817,0.449,0.4981,0.5898,0.7057,0.7423,0.7969,0.9252,0.9313,0.9926,1.0604,1.097,1.091,1.0974,1.1072,1.0859,1.0416,1.0416,1.0175,0.9746,0.9434,0.9213,0.9103,0.9213,0.9158,0.9154,0.9154,0.9154,0.904,0.9009,0.8986,0.8931,0.8931,0.8769,0.8636,0.8507,0.8478,0.8482,0.8333,0.8478,0.8577,0.8432,0.9122,1.0694,1.137,1.2393,1.3757,1.4442,1.4592,1.4496,1.4544,1.449,1.449,1.449,1.4592,1.4544,1.4496,1.4544,1.479,1.479,1.4885,1.5035,1.5083,1.5124,1.5124,1.522,1.522,1.5267,1.5404,1.5363,1.5267,1.5267,1.5124,1.5439,1.6264,1.6539,1.6492,1.7055,1.7948,1.8133,1.8172,1.794,1.7662,1.7662,1.794,1.8588,1.9247,1.9766,2.0192,2.0464,2.06,2.0464,2.051,2.0591,2.0645,2.0564,2.069,2.0727,2.0907,2.1042,2.1141,2.123,2.1365,2.1275,2.088,2.0744,0.3758,0.3697,0.2531,0.2162,0.2222,0.3634,0.4247,0.4307,0.5776,0.6388,0.6632,0.6877,0.7606,0.8459,0.8888,0.9438,1.06,1.0664,1.091,1.1091,1.1269,1.1398,1.1526,1.1543,1.1351,1.0813,1.0755,1.0402,0.9998,0.9871,0.9761,0.9706,0.9596,0.9706,0.9651,0.9596,0.9485,0.9375,0.9332,0.9254,0.9265,0.9222,0.9172,0.9001,0.8864,0.8775,0.8775,0.8825,0.897,0.9118,0.9118,0.9805,1.137,1.1907,1.298,1.4202,1.4885,1.5029,1.5029,1.4981,1.4981,1.5035,1.4987,1.4933,1.4885,1.4981,1.5035,1.5029,1.5077,1.5124,1.5131,1.5131,1.5315,1.5452,1.5642,1.5879,1.5967,1.6055,1.5961,1.5737,1.5784,1.6055,1.652,1.7475,1.7375,1.7282,1.8303,1.9147,1.891,1.8864,1.8588,1.8403,1.8303,1.8542,1.9147,1.9758,2.0411,2.0781,2.1051,2.1284,2.1374,2.1463,2.1284,2.1329,2.1239,2.1463,2.1553,2.1365,2.132,2.1553,2.1687,2.1642,2.1731,2.1553,2.1508,0.5466,0.5404,0.5102,0.4798,0.4429,0.5284,0.5651,0.5772,0.6508,0.7487,0.8404,0.9255,0.999,1.0482,1.0664,1.0849,1.1402,1.1405,1.1526,1.1587,1.1647,1.1708,1.1776,1.1723,1.1526,1.1123,1.1031,1.081,1.0398,1.0312,1.0312,1.0257,1.0033,0.9816,0.9816,0.9816,0.9761,0.9706,0.9636,0.9625,0.9696,0.972,0.9609,0.9337,0.9295,0.9172,0.9153,0.9567,0.9903,1.0243,1.0485,1.1361,1.2247,1.2684,1.3511,1.4592,1.5077,1.5363,1.5404,1.5274,1.5131,1.5131,1.5083,1.5131,1.5178,1.5131,1.522,1.5261,1.5356,1.5363,1.5499,1.5547,1.5642,1.5825,1.6109,1.644,1.6763,1.6889,1.7077,1.699,1.7358,1.7684,1.8234,1.878,1.8403,1.8118,1.9322,2.0158,1.9931,1.9832,1.9695,1.965,1.9604,1.9741,2.0303,2.0718,2.1096,2.132,2.1553,2.1642,2.1687,2.1687,2.1553,2.1687,2.1687,2.1642,2.1597,2.1508,2.1553,2.1642,2.1687,2.1687,2.182,2.2132,2.2255,0.7113,0.7174,0.7789,0.7301,0.6261,0.6933,0.7235,0.7421,0.8155,0.8894,1.0119,1.1091,1.1583,1.1772,1.1776,1.1712,1.1712,1.1772,1.1776,1.1772,1.1772,1.1837,1.1837,1.1719,1.1585,1.1301,1.1191,1.0981,1.0649,1.0692,1.0637,1.0527,1.0308,1.0147,1.0091,0.9981,0.9923,0.9923,0.9966,0.9991,1.0081,1.0111,1.0453,1.0257,1.0259,1.0427,1.0609,1.1035,1.1214,1.156,1.1901,1.2436,1.3022,1.3559,1.4046,1.4675,1.5207,1.5635,1.5642,1.5547,1.5315,1.5363,1.5363,1.5363,1.5315,1.5322,1.5452,1.5547,1.5594,1.5642,1.5825,1.573,1.6062,1.6298,1.6723,1.7044,1.7684,1.7956,1.8234,1.8427,1.8611,1.8557,1.888,1.9338,1.9741,1.9505,2.0249,2.0988,2.0997,2.0997,2.1087,2.1087,2.1132,2.1365,2.1642,2.1508,2.1374,2.1463,2.1642,2.1642,2.1687,2.1731,2.1731,2.1687,2.1687,2.1687,2.1687,2.1642,2.1642,2.1687,2.182,2.2087,2.2633,2.294,2.3038,0.876,0.8882,1.0112,0.9009,0.6991,0.8462,0.9198,0.9319,1.0607,1.1345,1.1466,1.1772,1.1772,1.1837,1.1837,1.1837,1.1837,1.1837,1.1837,1.1837,1.1837,1.1837,1.1837,1.1788,1.1585,1.1305,1.1191,1.1041,1.0696,1.0692,1.0692,1.0692,1.0582,1.0527,1.0637,1.0417,1.0312,1.0312,1.0312,1.0292,1.0522,1.0634,1.1114,1.1697,1.1601,1.1726,1.2153,1.2422,1.2592,1.2678,1.2969,1.3457,1.4148,1.4292,1.4777,1.554,1.5683,1.5778,1.5778,1.5778,1.5737,1.5689,1.5642,1.5642,1.573,1.573,1.5683,1.573,1.573,1.5778,1.5825,1.5872,1.6298,1.6864,1.7239,1.7924,1.8519,1.9247,1.953,1.9712,1.9247,1.8926,1.9247,1.9758,2.0619,2.1033,2.1454,2.1687,2.1687,2.1687,2.1687,2.1687,2.1687,2.1687,2.1687,2.1687,2.1642,2.1687,2.1687,2.1687,2.1776,2.1909,2.1865,2.1776,2.2078,2.2378,2.2122,2.182,2.2211,2.2599,2.2485,2.275,2.329,2.3714,2.3767,1.0475,1.0536,1.122,1.0785,0.9802,1.0293,1.06,1.0725,1.1405,1.1837,1.1837,1.1837,1.1837,1.1837,1.1837,1.1837,1.1837,1.1837,1.1837,1.1837,1.1837,1.1837,1.1837,1.1736,1.1573,1.1313,1.1196,1.1041,1.0692,1.0692,1.0692,1.0692,1.0852,1.0692,1.0692,1.0582,1.0586,1.0586,1.0637,1.0844,1.1596,1.1747,1.2198,1.3235,1.2926,1.3013,1.3458,1.3628,1.3786,1.3854,1.4088,1.4765,1.5159,1.5207,1.5397,1.5778,1.5825,1.5825,1.5825,1.5778,1.5778,1.5825,1.5825,1.5825,1.5825,1.5825,1.5825,1.5825,1.592,1.5872,1.5825,1.5825,1.6292,1.7185,1.7839,1.8796,1.9567,2.0447,2.0952,2.0997,2.0718,2.0538,2.0673,2.0447,2.1087,2.141,2.1642,2.1687,2.1687,2.1687,2.1687,2.1687,2.1687,2.1687,2.1687,2.1687,2.1865,2.1989,2.1865,2.1687,2.182,2.2299,2.2476,2.2599,2.2853,2.3105,2.3018,2.3018,2.342,2.3681,2.356,2.3363,2.3604,2.4112,2.4509,1.1458,1.1522,1.1712,1.1647,1.1518,1.1458,1.1458,1.1522,1.1712,1.1837,1.1837,1.1837,1.1837,1.1837,1.1837,1.1837,1.1837,1.1837,1.1837,1.1837,1.1837,1.1837,1.1837,1.1808,1.1549,1.1317,1.1183,1.1041,1.0704,1.0692,1.0962,1.1286,1.1341,1.1719,1.1719,1.1773,1.1341,1.15,1.1769,1.2358,1.2788,1.3082,1.3526,1.417,1.436,1.4225,1.4474,1.4735,1.4913,1.5054,1.535,1.5825,1.5825,1.5825,1.5825,1.5825,1.5825,1.5825,1.5825,1.5825,1.5825,1.5825,1.5825,1.5825,1.5825,1.5825,1.5825,1.5872,1.6109,1.6298,1.6346,1.6339,1.7171,1.811,1.875,1.9749,2.0492,2.132,2.1508,2.1642,2.1687,2.1687,2.1731,2.1597,2.1597,2.1642,2.1687,2.1731,2.1731,2.1731,2.1731,2.1687,2.1731,2.1741,2.1741,2.1687,2.1909,2.2255,2.2167,2.2033,2.2799,2.3444,2.3454,2.3507,2.3877,2.4157,2.4211,2.4339,2.4467,2.4563,2.4584,2.437,2.4079,2.4637,2.5401,1.1837,1.1837,1.1837,1.1837,1.1776,1.1772,1.1772,1.1772,1.1772,1.1837,1.1837,1.1837,1.1837,1.1837,1.1837,1.1837,1.1837,1.1837,1.1837,1.1837,1.1837,1.1837,1.1837,1.1816,1.1541,1.1338,1.1179,1.1155,1.0835,1.1391,1.1878,1.2254,1.2467,1.2847,1.3063,1.3117,1.263,1.2738,1.3058,1.3652,1.4083,1.4186,1.4812,1.5388,1.564,1.5774,1.5972,1.6111,1.5932,1.5822,1.5798,1.5832,1.5825,1.5825,1.5825,1.5825,1.5825,1.5825,1.5825,1.5825,1.5825,1.5825,1.5974,1.5872,1.5872,1.5967,1.6204,1.6433,1.681,1.7138,1.7372,1.8056,1.8788,1.9384,1.9886,2.0628,2.1275,2.1642,2.1642,2.1687,2.1741,2.1785,2.182,2.1776,2.1865,2.1909,2.1909,2.1909,2.1909,2.182,2.1776,2.1731,2.1731,2.1785,2.1785,2.1865,2.2334,2.2809,2.2731,2.2731,2.3661,2.4467,2.4563,2.4691,2.501,2.5252,2.54,2.5347,2.5305,2.54,2.5673,2.5516,2.5306,2.5924,2.6599,1.1837,1.1837,1.1837,1.1837,1.1837,1.1837,1.1837,1.1837,1.1837,1.1837,1.1837,1.1837,1.1837,1.1837,1.1837,1.1837,1.1837,1.1837,1.1837,1.1837,1.1837,1.1837,1.1837,1.1868,1.1592,1.1396,1.1343,1.1655,1.2064,1.2521,1.3004,1.3545,1.3599,1.3917,1.4293,1.4615,1.4245,1.403,1.4293,1.4728,1.5215,1.5375,1.6074,1.6588,1.6691,1.6851,1.6832,1.6603,1.6279,1.6152,1.5925,1.5838,1.5825,1.5825,1.5825,1.5825,1.5825,1.5825,1.5825,1.5825,1.5872,1.6109,1.644,1.6346,1.6251,1.6433,1.6857,1.7178,1.7731,1.8249,1.8473,1.9018,1.9658,2.0167,2.0574,2.0988,2.1597,2.182,2.182,2.182,2.1874,2.1954,2.1998,2.2087,2.2176,2.2176,2.2176,2.2132,2.2087,2.1998,2.1954,2.1865,2.1954,2.2043,2.2141,2.222,2.2862,2.3333,2.3377,2.3747,2.4755,2.5431,2.5621,2.5872,2.6235,2.6453,2.6629,2.6535,2.64,2.667,2.6899,2.6734,2.6693,2.7144,2.7377,1.1837,1.1837,1.1837,1.1837,1.1837,1.1837,1.1837,1.1837,1.1837,1.1837,1.1837,1.1837,1.1837,1.1837,1.1837,1.1837,1.1837,1.1837,1.1837,1.1837,1.1893,1.1837,1.1837,1.2277,1.236,1.2147,1.2411,1.2992,1.3272,1.3647,1.4132,1.4781,1.4781,1.5102,1.5589,1.6127,1.6127,1.5802,1.5695,1.5968,1.6234,1.6505,1.7094,1.7384,1.7368,1.734,1.7192,1.677,1.6596,1.6375,1.6046,1.5939,1.5885,1.5825,1.5825,1.5825,1.5933,1.5974,1.5974,1.5981,1.6157,1.6574,1.7084,1.7311,1.7451,1.7731,1.7824,1.8056,1.8834,1.9438,1.9567,1.9749,2.0303,2.0808,2.1033,2.1266,2.1588,2.1909,2.1998,2.1998,2.2087,2.2176,2.2264,2.2353,2.2397,2.2353,2.2309,2.2309,2.2309,2.2264,2.2176,2.2122,2.2264,2.2441,2.253,2.2906,2.3757,2.4339,2.4553,2.5062,2.5933,2.64,2.6588,2.701,2.7429,2.7522,2.751,2.7632,2.7632,2.7817,2.7817,2.7644,2.7522,2.7725,2.7886,1.1837,1.1837,1.1837,1.1837,1.1837,1.1837,1.1837,1.1837,1.1837,1.1837,1.1837,1.1837,1.1837,1.1837,1.1837,1.1837,1.1837,1.1837,1.1837,1.1893,1.2191,1.2251,1.2608,1.3108,1.3473,1.3687,1.3933,1.416,1.4256,1.4776,1.5476,1.6021,1.6021,1.634,1.7094,1.7259,1.7252,1.7199,1.7147,1.7312,1.7364,1.7529,1.7589,1.7589,1.7581,1.7514,1.7313,1.7112,1.6945,1.6563,1.6281,1.6161,1.6021,1.5967,1.592,1.5967,1.6163,1.6218,1.6218,1.6218,1.677,1.7271,1.7824,1.8411,1.878,1.901,1.9101,1.933,2.0014,2.052,2.0746,2.0934,2.1347,2.1535,2.1678,2.1811,2.1945,2.2176,2.222,2.2264,2.2353,2.2441,2.2485,2.2574,2.2706,2.2574,2.252,2.252,2.2574,2.2574,2.2564,2.2476,2.2574,2.2828,2.3333,2.3833,2.4851,2.54,2.5652,2.6329,2.7203,2.7458,2.7592,2.7805,2.8018,2.8219,2.8299,2.8259,2.8219,2.8259,2.8311,2.8431,2.8431,2.8299,2.8259,1.1837,1.1837,1.1837,1.1837,1.1837,1.1837,1.1837,1.1837,1.1837,1.1837,1.1837,1.1837,1.1837,1.1837,1.1837,1.1837,1.1837,1.1837,1.1837,1.2307,1.2724,1.3195,1.3495,1.4545,1.476,1.4656,1.4834,1.5292,1.5594,1.618,1.6776,1.71,1.71,1.7424,1.7799,1.7852,1.7957,1.8108,1.8108,1.795,1.774,1.7641,1.7589,1.7589,1.7615,1.7608,1.7447,1.7293,1.7038,1.6653,1.6638,1.6525,1.6421,1.64,1.6393,1.64,1.6487,1.6636,1.6683,1.6817,1.7365,1.8048,1.8688,1.955,2.0141,2.0367,2.0602,2.0782,2.106,2.1516,2.1837,2.2033,2.222,2.222,2.2264,2.2309,2.2353,2.2397,2.2441,2.253,2.2627,2.2671,2.2706,2.2794,2.2925,2.2916,2.296,2.296,2.3091,2.3091,2.3125,2.3081,2.2925,2.3178,2.3887,2.4595,2.5484,2.6329,2.6753,2.751,2.8351,2.8219,2.8047,2.8259,2.8431,2.851,2.851,2.8471,2.8471,2.851,2.851,2.851,2.851,2.8431,2.8431,1.1837,1.1837,1.1837,1.1837,1.1837,1.1837,1.1837,1.1837,1.1837,1.1837,1.1837,1.1837,1.1837,1.1837,1.1837,1.1837,1.1837,1.1837,1.2423,1.3011,1.3605,1.4192,1.496,1.5961,1.593,1.5858,1.6227,1.6595,1.6861,1.7213,1.7641,1.7694,1.7694,1.7852,1.8016,1.8115,1.8272,1.837,1.8422,1.8265,1.7898,1.7852,1.7694,1.7641,1.7582,1.7635,1.7601,1.7506,1.7414,1.7106,1.6971,1.6732,1.6625,1.6541,1.6588,1.677,1.6998,1.7419,1.7505,1.7777,1.8326,1.9193,1.977,2.0719,2.1561,2.1793,2.1695,2.1882,2.1793,2.2113,2.2113,2.2309,2.2309,2.2353,2.2485,2.2618,2.2706,2.2784,2.2794,2.2838,2.2882,2.2882,2.2916,2.2969,2.3047,2.3222,2.3212,2.3681,2.3777,2.3864,2.381,2.3714,2.3594,2.4026,2.4819,2.54,2.5944,2.6782,2.7632,2.8007,2.8431,2.8471,2.851,2.851,2.851,2.851,2.851,2.851,2.851,2.851,2.851,2.851,2.851,2.851,2.859,1.1837,1.1837,1.1837,1.1837,1.1837,1.1837,1.1837,1.1837,1.1837,1.1953,1.2247,1.2191,1.2074,1.1897,1.1893,1.1893,1.207,1.2543,1.3246,1.3894,1.4658,1.5548,1.655,1.7517,1.7475,1.7433,1.7518,1.7702,1.7852,1.8016,1.7957,1.7793,1.7905,1.8069,1.8174,1.8331,1.8534,1.8639,1.8639,1.8527,1.837,1.822,1.7957,1.7793,1.7681,1.7687,1.7793,1.7857,1.7891,1.765,1.7414,1.7239,1.7301,1.7366,1.7345,1.7581,1.8334,1.8613,1.8765,1.9201,2.0113,2.0926,2.1266,2.1765,2.2564,2.2794,2.2706,2.2652,2.252,2.252,2.252,2.252,2.252,2.253,2.275,2.2891,2.2969,2.3047,2.3057,2.3057,2.3101,2.3091,2.3091,2.3091,2.3353,2.3474,2.3854,2.4317,2.4701,2.4819,2.4851,2.4681,2.452,2.5073,2.583,2.6121,2.6494,2.7377,2.8139,2.8351,2.851,2.851,2.851,2.851,2.851,2.851,2.851,2.851,2.851,2.851,2.851,2.851,2.851,2.855,2.8669,1.1837,1.1837,1.1837,1.1837,1.1893,1.1893,1.1837,1.1837,1.1953,1.2427,1.3421,1.3591,1.3181,1.2178,1.2122,1.2419,1.3135,1.3605,1.4018,1.4545,1.6315,1.7319,1.8042,1.8718,1.9215,1.8947,1.8459,1.8282,1.8331,1.8325,1.8272,1.8213,1.8272,1.8436,1.8712,1.8817,1.8862,1.8959,1.9011,1.8959,1.875,1.8541,1.8318,1.8258,1.8265,1.8265,1.8258,1.8265,1.8137,1.7953,1.7896,1.7957,1.8189,1.8583,1.8875,1.9012,1.9764,2.0025,2.0271,2.0451,2.1212,2.1606,2.1863,2.2094,2.2696,2.3013,2.296,2.296,2.2872,2.2872,2.2872,2.2872,2.2872,2.2872,2.3013,2.3013,2.3057,2.3091,2.3101,2.3101,2.3101,2.3091,2.3135,2.343,2.4069,2.436,2.4946,2.5411,2.5579,2.5735,2.5944,2.5777,2.5568,2.6038,2.6753,2.6723,2.7144,2.7978,2.851,2.851,2.851,2.851,2.851,2.851,2.851,2.851,2.851,2.851,2.851,2.851,2.851,2.851,2.851,2.8736,2.9]}]]